﻿<?xml version="1.0" encoding="utf-8"?><gpx creator="Garmin Desktop App" version="1.1" xsi:schemaLocation="http://www.topografix.com/GPX/1/1 http://www.topografix.com/GPX/1/1/gpx.xsd http://www.garmin.com/xmlschemas/WaypointExtension/v1 http://www8.garmin.com/xmlschemas/WaypointExtensionv1.xsd http://www.garmin.com/xmlschemas/TrackPointExtension/v1 http://www.garmin.com/xmlschemas/TrackPointExtensionv1.xsd http://www.garmin.com/xmlschemas/GpxExtensions/v3 http://www8.garmin.com/xmlschemas/GpxExtensionsv3.xsd http://www.garmin.com/xmlschemas/ActivityExtension/v1 http://www8.garmin.com/xmlschemas/ActivityExtensionv1.xsd http://www.garmin.com/xmlschemas/AdventuresExtensions/v1 http://www8.garmin.com/xmlschemas/AdventuresExtensionv1.xsd http://www.garmin.com/xmlschemas/PressureExtension/v1 http://www.garmin.com/xmlschemas/PressureExtensionv1.xsd http://www.garmin.com/xmlschemas/TripExtensions/v1 http://www.garmin.com/xmlschemas/TripExtensionsv1.xsd http://www.garmin.com/xmlschemas/TripMetaDataExtensions/v1 http://www.garmin.com/xmlschemas/TripMetaDataExtensionsv1.xsd http://www.garmin.com/xmlschemas/ViaPointTransportationModeExtensions/v1 http://www.garmin.com/xmlschemas/ViaPointTransportationModeExtensionsv1.xsd http://www.garmin.com/xmlschemas/CreationTimeExtension/v1 http://www.garmin.com/xmlschemas/CreationTimeExtensionsv1.xsd http://www.garmin.com/xmlschemas/AccelerationExtension/v1 http://www.garmin.com/xmlschemas/AccelerationExtensionv1.xsd http://www.garmin.com/xmlschemas/PowerExtension/v1 http://www.garmin.com/xmlschemas/PowerExtensionv1.xsd http://www.garmin.com/xmlschemas/VideoExtension/v1 http://www.garmin.com/xmlschemas/VideoExtensionv1.xsd" xmlns="http://www.topografix.com/GPX/1/1" xmlns:xsi="http://www.w3.org/2001/XMLSchema-instance" xmlns:wptx1="http://www.garmin.com/xmlschemas/WaypointExtension/v1" xmlns:gpxtrx="http://www.garmin.com/xmlschemas/GpxExtensions/v3" xmlns:gpxtpx="http://www.garmin.com/xmlschemas/TrackPointExtension/v1" xmlns:gpxx="http://www.garmin.com/xmlschemas/GpxExtensions/v3" xmlns:trp="http://www.garmin.com/xmlschemas/TripExtensions/v1" xmlns:adv="http://www.garmin.com/xmlschemas/AdventuresExtensions/v1" xmlns:prs="http://www.garmin.com/xmlschemas/PressureExtension/v1" xmlns:tmd="http://www.garmin.com/xmlschemas/TripMetaDataExtensions/v1" xmlns:vptm="http://www.garmin.com/xmlschemas/ViaPointTransportationModeExtensions/v1" xmlns:ctx="http://www.garmin.com/xmlschemas/CreationTimeExtension/v1" xmlns:gpxacc="http://www.garmin.com/xmlschemas/AccelerationExtension/v1" xmlns:gpxpx="http://www.garmin.com/xmlschemas/PowerExtension/v1" xmlns:vidx1="http://www.garmin.com/xmlschemas/VideoExtension/v1">

  <metadata>
    <link href="http://www.garmin.com">
      <text>Garmin International</text>
    </link>
    <time>2016-12-11T12:33:55Z</time>
    <bounds maxlat="51.862671067938209" maxlon="39.575484730303288" minlat="51.738335676491261" minlon="39.35492274351418" />
  </metadata>

  <trk>
    <name>Трек 001</name>
    <extensions>
      <gpxx:TrackExtension>
        <gpxx:DisplayColor>DarkBlue</gpxx:DisplayColor>
      </gpxx:TrackExtension>
    </extensions>
    <trkseg>
      <trkpt lat="51.738335676491261" lon="39.355050316080451">
        <ele>106.84</ele>
        <time>2016-12-11T06:57:19Z</time>
      </trkpt>
      <trkpt lat="51.738378088921309" lon="39.355049561709166">
        <ele>106.36</ele>
        <time>2016-12-11T06:57:20Z</time>
      </trkpt>
      <trkpt lat="51.738415556028485" lon="39.35506347566843">
        <ele>106.36</ele>
        <time>2016-12-11T06:57:21Z</time>
      </trkpt>
      <trkpt lat="51.738453274592757" lon="39.355096500366926">
        <ele>106.36</ele>
        <time>2016-12-11T06:57:22Z</time>
      </trkpt>
      <trkpt lat="51.73847883939743" lon="39.355131955817342">
        <ele>106.36</ele>
        <time>2016-12-11T06:57:23Z</time>
      </trkpt>
      <trkpt lat="51.738502811640501" lon="39.355185348540545">
        <ele>106.36</ele>
        <time>2016-12-11T06:57:24Z</time>
      </trkpt>
      <trkpt lat="51.738523012027144" lon="39.35524377040565">
        <ele>106.36</ele>
        <time>2016-12-11T06:57:25Z</time>
      </trkpt>
      <trkpt lat="51.738739097490907" lon="39.355934774503112">
        <ele>106.84</ele>
        <time>2016-12-11T06:57:40Z</time>
      </trkpt>
      <trkpt lat="51.739047970622778" lon="39.357079491019249">
        <ele>107.81</ele>
        <time>2016-12-11T06:57:57Z</time>
      </trkpt>
      <trkpt lat="51.739478129893541" lon="39.358656965196133">
        <ele>108.29000000000001</ele>
        <time>2016-12-11T06:58:18Z</time>
      </trkpt>
      <trkpt lat="51.739894039928913" lon="39.36012564226985">
        <ele>108.77</ele>
        <time>2016-12-11T06:58:38Z</time>
      </trkpt>
      <trkpt lat="51.740246834233403" lon="39.361362056806684">
        <ele>110.20999999999999</ele>
        <time>2016-12-11T06:58:55Z</time>
      </trkpt>
      <trkpt lat="51.740656876936555" lon="39.362812042236328">
        <ele>112.13</ele>
        <time>2016-12-11T06:59:15Z</time>
      </trkpt>
      <trkpt lat="51.741022914648056" lon="39.364116014912724">
        <ele>112.13</ele>
        <time>2016-12-11T06:59:33Z</time>
      </trkpt>
      <trkpt lat="51.741408985108137" lon="39.365639509633183">
        <ele>113.56999999999999</ele>
        <time>2016-12-11T06:59:54Z</time>
      </trkpt>
      <trkpt lat="51.741624483838677" lon="39.366717925295234">
        <ele>114.05</ele>
        <time>2016-12-11T07:00:12Z</time>
      </trkpt>
      <trkpt lat="51.741660526022315" lon="39.366763019934297">
        <ele>114.53</ele>
        <time>2016-12-11T07:00:14Z</time>
      </trkpt>
      <trkpt lat="51.74191533587873" lon="39.366731839254498">
        <ele>111.65000000000001</ele>
        <time>2016-12-11T07:00:23Z</time>
      </trkpt>
      <trkpt lat="51.74195640720427" lon="39.366734605282545">
        <ele>110.69</ele>
        <time>2016-12-11T07:00:24Z</time>
      </trkpt>
      <trkpt lat="51.742108287289739" lon="39.366709543392062">
        <ele>110.20999999999999</ele>
        <time>2016-12-11T07:00:28Z</time>
      </trkpt>
      <trkpt lat="51.742206355556846" lon="39.366663191467524">
        <ele>110.69</ele>
        <time>2016-12-11T07:00:38Z</time>
      </trkpt>
      <trkpt lat="51.74223929643631" lon="39.366533271968365">
        <ele>111.17</ele>
        <time>2016-12-11T07:00:51Z</time>
      </trkpt>
      <trkpt lat="51.742277685552835" lon="39.366554478183389">
        <ele>112.13</ele>
        <time>2016-12-11T07:01:05Z</time>
      </trkpt>
      <trkpt lat="51.742293946444988" lon="39.366608373820782">
        <ele>112.13</ele>
        <time>2016-12-11T07:01:09Z</time>
      </trkpt>
      <trkpt lat="51.742320852354169" lon="39.366578115150332">
        <ele>112.61</ele>
        <time>2016-12-11T07:01:22Z</time>
      </trkpt>
      <trkpt lat="51.742326971143484" lon="39.366572666913271">
        <ele>112.61</ele>
        <time>2016-12-11T07:01:23Z</time>
      </trkpt>
      <trkpt lat="51.742390422150493" lon="39.366529332473874">
        <ele>112.61</ele>
        <time>2016-12-11T07:01:29Z</time>
      </trkpt>
      <trkpt lat="51.74240592867136" lon="39.366508461534977">
        <ele>113.09</ele>
        <time>2016-12-11T07:01:31Z</time>
      </trkpt>
      <trkpt lat="51.742445239797235" lon="39.366454062983394">
        <ele>113.56999999999999</ele>
        <time>2016-12-11T07:01:45Z</time>
      </trkpt>
      <trkpt lat="51.742472900077701" lon="39.36646169051528">
        <ele>114.05</ele>
        <time>2016-12-11T07:01:48Z</time>
      </trkpt>
      <trkpt lat="51.742621930316091" lon="39.366381475701928">
        <ele>115.5</ele>
        <time>2016-12-11T07:02:03Z</time>
      </trkpt>
      <trkpt lat="51.74273039214313" lon="39.366323640570045">
        <ele>117.90000000000001</ele>
        <time>2016-12-11T07:02:19Z</time>
      </trkpt>
      <trkpt lat="51.742827203124762" lon="39.366256836801767">
        <ele>121.73999999999999</ele>
        <time>2016-12-11T07:02:32Z</time>
      </trkpt>
      <trkpt lat="51.742882523685694" lon="39.36628139577806">
        <ele>120.78</ele>
        <time>2016-12-11T07:02:36Z</time>
      </trkpt>
      <trkpt lat="51.74293315038085" lon="39.36637912876904">
        <ele>120.3</ele>
        <time>2016-12-11T07:02:43Z</time>
      </trkpt>
      <trkpt lat="51.742995930835605" lon="39.366453643888235">
        <ele>120.3</ele>
        <time>2016-12-11T07:02:47Z</time>
      </trkpt>
      <trkpt lat="51.743012107908726" lon="39.366491781547666">
        <ele>120.78</ele>
        <time>2016-12-11T07:02:48Z</time>
      </trkpt>
      <trkpt lat="51.743022166192532" lon="39.366529751569033">
        <ele>120.78</ele>
        <time>2016-12-11T07:02:49Z</time>
      </trkpt>
      <trkpt lat="51.743035074323416" lon="39.366572918370366">
        <ele>120.78</ele>
        <time>2016-12-11T07:02:50Z</time>
      </trkpt>
      <trkpt lat="51.743048569187522" lon="39.366621114313602">
        <ele>120.78</ele>
        <time>2016-12-11T07:02:51Z</time>
      </trkpt>
      <trkpt lat="51.743303462862968" lon="39.367512026801705">
        <ele>120.3</ele>
        <time>2016-12-11T07:03:09Z</time>
      </trkpt>
      <trkpt lat="51.743629099801183" lon="39.368631513789296">
        <ele>119.34</ele>
        <time>2016-12-11T07:03:29Z</time>
      </trkpt>
      <trkpt lat="51.743986252695322" lon="39.369805818423629">
        <ele>118.38</ele>
        <time>2016-12-11T07:03:47Z</time>
      </trkpt>
      <trkpt lat="51.744328569620848" lon="39.37094827182591">
        <ele>118.86</ele>
        <time>2016-12-11T07:04:04Z</time>
      </trkpt>
      <trkpt lat="51.744701145216823" lon="39.372183009982109">
        <ele>118.86</ele>
        <time>2016-12-11T07:04:23Z</time>
      </trkpt>
      <trkpt lat="51.745049078017473" lon="39.373338371515274">
        <ele>120.78</ele>
        <time>2016-12-11T07:04:41Z</time>
      </trkpt>
      <trkpt lat="51.745324255898595" lon="39.374131048098207">
        <ele>120.3</ele>
        <time>2016-12-11T07:04:54Z</time>
      </trkpt>
      <trkpt lat="51.745363483205438" lon="39.374144962057471">
        <ele>120.78</ele>
        <time>2016-12-11T07:04:55Z</time>
      </trkpt>
      <trkpt lat="51.745394663885236" lon="39.374148230999708">
        <ele>120.78</ele>
        <time>2016-12-11T07:04:56Z</time>
      </trkpt>
      <trkpt lat="51.745736142620444" lon="39.374166168272495">
        <ele>121.73999999999999</ele>
        <time>2016-12-11T07:05:04Z</time>
      </trkpt>
      <trkpt lat="51.745775118470192" lon="39.374173544347286">
        <ele>122.22</ele>
        <time>2016-12-11T07:05:05Z</time>
      </trkpt>
      <trkpt lat="51.745818620547652" lon="39.374177483841777">
        <ele>122.22</ele>
        <time>2016-12-11T07:05:06Z</time>
      </trkpt>
      <trkpt lat="51.746281636878848" lon="39.374224590137601">
        <ele>122.70999999999999</ele>
        <time>2016-12-11T07:05:18Z</time>
      </trkpt>
      <trkpt lat="51.746425721794367" lon="39.37423087656498">
        <ele>122.70999999999999</ele>
        <time>2016-12-11T07:05:26Z</time>
      </trkpt>
      <trkpt lat="51.746435109525919" lon="39.374220902100205">
        <ele>122.70999999999999</ele>
        <time>2016-12-11T07:05:27Z</time>
      </trkpt>
      <trkpt lat="51.746449945494533" lon="39.374220566824079">
        <ele>122.70999999999999</ele>
        <time>2016-12-11T07:05:28Z</time>
      </trkpt>
      <trkpt lat="51.746843056753278" lon="39.374231295660138">
        <ele>124.15000000000001</ele>
        <time>2016-12-11T07:05:40Z</time>
      </trkpt>
      <trkpt lat="51.747185038402677" lon="39.374283934012055">
        <ele>124.15000000000001</ele>
        <time>2016-12-11T07:05:53Z</time>
      </trkpt>
      <trkpt lat="51.747210854664445" lon="39.374270187690854">
        <ele>122.70999999999999</ele>
        <time>2016-12-11T07:06:09Z</time>
      </trkpt>
      <trkpt lat="51.747246310114861" lon="39.374247221276164">
        <ele>125.59</ele>
        <time>2016-12-11T07:06:35Z</time>
      </trkpt>
      <trkpt lat="51.74758879467845" lon="39.374273540452123">
        <ele>126.55</ele>
        <time>2016-12-11T07:06:46Z</time>
      </trkpt>
      <trkpt lat="51.748148873448372" lon="39.374304721131921">
        <ele>126.06999999999999</ele>
        <time>2016-12-11T07:06:59Z</time>
      </trkpt>
      <trkpt lat="51.74894331023097" lon="39.37432668171823">
        <ele>127.03</ele>
        <time>2016-12-11T07:07:16Z</time>
      </trkpt>
      <trkpt lat="51.749620987102389" lon="39.374360041692853">
        <ele>126.55</ele>
        <time>2016-12-11T07:07:31Z</time>
      </trkpt>
      <trkpt lat="51.749794827774167" lon="39.374345121905208">
        <ele>127.03</ele>
        <time>2016-12-11T07:07:35Z</time>
      </trkpt>
      <trkpt lat="51.749970093369484" lon="39.374342942610383">
        <ele>127.51000000000001</ele>
        <time>2016-12-11T07:07:39Z</time>
      </trkpt>
      <trkpt lat="51.750014768913388" lon="39.374348726123571">
        <ele>127.51000000000001</ele>
        <time>2016-12-11T07:07:40Z</time>
      </trkpt>
      <trkpt lat="51.7505909409374" lon="39.37437160871923">
        <ele>127.98999999999999</ele>
        <time>2016-12-11T07:07:53Z</time>
      </trkpt>
      <trkpt lat="51.751312371343374" lon="39.374408153817058">
        <ele>128.47</ele>
        <time>2016-12-11T07:08:10Z</time>
      </trkpt>
      <trkpt lat="51.751979570835829" lon="39.374433131888509">
        <ele>129.91999999999999</ele>
        <time>2016-12-11T07:08:27Z</time>
      </trkpt>
      <trkpt lat="51.752512659877539" lon="39.374443693086505">
        <ele>129.91999999999999</ele>
        <time>2016-12-11T07:08:41Z</time>
      </trkpt>
      <trkpt lat="51.753263175487518" lon="39.374476131051779">
        <ele>129.91999999999999</ele>
        <time>2016-12-11T07:08:59Z</time>
      </trkpt>
      <trkpt lat="51.753852758556604" lon="39.374509155750275">
        <ele>129.91999999999999</ele>
        <time>2016-12-11T07:09:13Z</time>
      </trkpt>
      <trkpt lat="51.754462039098144" lon="39.374528434127569">
        <ele>129.91999999999999</ele>
        <time>2016-12-11T07:09:28Z</time>
      </trkpt>
      <trkpt lat="51.754891024902463" lon="39.374534133821726">
        <ele>130.88</ele>
        <time>2016-12-11T07:09:41Z</time>
      </trkpt>
      <trkpt lat="51.75543618388474" lon="39.374565649777651">
        <ele>131.36000000000001</ele>
        <time>2016-12-11T07:09:54Z</time>
      </trkpt>
      <trkpt lat="51.756088463589549" lon="39.374596076086164">
        <ele>133.75999999999999</ele>
        <time>2016-12-11T07:10:09Z</time>
      </trkpt>
      <trkpt lat="51.756737641990185" lon="39.374603033065796">
        <ele>135.68000000000001</ele>
        <time>2016-12-11T07:10:24Z</time>
      </trkpt>
      <trkpt lat="51.757411547005177" lon="39.374636812135577">
        <ele>135.19999999999999</ele>
        <time>2016-12-11T07:10:39Z</time>
      </trkpt>
      <trkpt lat="51.758166924118996" lon="39.374645026400685">
        <ele>133.75999999999999</ele>
        <time>2016-12-11T07:10:56Z</time>
      </trkpt>
      <trkpt lat="51.758775534108281" lon="39.374677632004023">
        <ele>134.24000000000001</ele>
        <time>2016-12-11T07:11:10Z</time>
      </trkpt>
      <trkpt lat="51.759466286748648" lon="39.374702777713537">
        <ele>131.84</ele>
        <time>2016-12-11T07:11:26Z</time>
      </trkpt>
      <trkpt lat="51.760186459869146" lon="39.374743178486824">
        <ele>132.80000000000001</ele>
        <time>2016-12-11T07:11:42Z</time>
      </trkpt>
      <trkpt lat="51.760955499485135" lon="39.374758517369628">
        <ele>134.24000000000001</ele>
        <time>2016-12-11T07:11:59Z</time>
      </trkpt>
      <trkpt lat="51.761485319584608" lon="39.374817106872797">
        <ele>134.24000000000001</ele>
        <time>2016-12-11T07:12:11Z</time>
      </trkpt>
      <trkpt lat="51.762097952887416" lon="39.374844431877136">
        <ele>132.80000000000001</ele>
        <time>2016-12-11T07:12:25Z</time>
      </trkpt>
      <trkpt lat="51.762444209307432" lon="39.374853819608688">
        <ele>133.28</ele>
        <time>2016-12-11T07:12:33Z</time>
      </trkpt>
      <trkpt lat="51.762488046661019" lon="39.374857004731894">
        <ele>132.80000000000001</ele>
        <time>2016-12-11T07:12:34Z</time>
      </trkpt>
      <trkpt lat="51.762756519019604" lon="39.374854071065784">
        <ele>132.80000000000001</ele>
        <time>2016-12-11T07:12:40Z</time>
      </trkpt>
      <trkpt lat="51.762801362201571" lon="39.374849041923881">
        <ele>132.80000000000001</ele>
        <time>2016-12-11T07:12:41Z</time>
      </trkpt>
      <trkpt lat="51.762846373021603" lon="39.374846611171961">
        <ele>132.80000000000001</ele>
        <time>2016-12-11T07:12:42Z</time>
      </trkpt>
      <trkpt lat="51.763510135933757" lon="39.374906374141574">
        <ele>133.28</ele>
        <time>2016-12-11T07:12:57Z</time>
      </trkpt>
      <trkpt lat="51.764088068157434" lon="39.374962281435728">
        <ele>132.31999999999999</ele>
        <time>2016-12-11T07:13:11Z</time>
      </trkpt>
      <trkpt lat="51.764591233804822" lon="39.374970076605678">
        <ele>131.36000000000001</ele>
        <time>2016-12-11T07:13:24Z</time>
      </trkpt>
      <trkpt lat="51.765167489647865" lon="39.374972926452756">
        <ele>132.80000000000001</ele>
        <time>2016-12-11T07:13:39Z</time>
      </trkpt>
      <trkpt lat="51.765645928680897" lon="39.374988516792655">
        <ele>133.28</ele>
        <time>2016-12-11T07:13:52Z</time>
      </trkpt>
      <trkpt lat="51.766224531456828" lon="39.374997820705175">
        <ele>132.31999999999999</ele>
        <time>2016-12-11T07:14:07Z</time>
      </trkpt>
      <trkpt lat="51.766786454245448" lon="39.375038892030716">
        <ele>132.31999999999999</ele>
        <time>2016-12-11T07:14:22Z</time>
      </trkpt>
      <trkpt lat="51.767353489995003" lon="39.375048531219363">
        <ele>130.40000000000001</ele>
        <time>2016-12-11T07:14:37Z</time>
      </trkpt>
      <trkpt lat="51.767763029783964" lon="39.375067558139563">
        <ele>129.91999999999999</ele>
        <time>2016-12-11T07:14:48Z</time>
      </trkpt>
      <trkpt lat="51.76829251460731" lon="39.375094044953585">
        <ele>128.94999999999999</ele>
        <time>2016-12-11T07:15:02Z</time>
      </trkpt>
      <trkpt lat="51.768921408802271" lon="39.375091111287475">
        <ele>127.51000000000001</ele>
        <time>2016-12-11T07:15:19Z</time>
      </trkpt>
      <trkpt lat="51.769437482580543" lon="39.375142324715853">
        <ele>125.59</ele>
        <time>2016-12-11T07:15:33Z</time>
      </trkpt>
      <trkpt lat="51.769914831966162" lon="39.375202590599656">
        <ele>126.06999999999999</ele>
        <time>2016-12-11T07:15:46Z</time>
      </trkpt>
      <trkpt lat="51.770093282684684" lon="39.37516420148313">
        <ele>127.03</ele>
        <time>2016-12-11T07:15:51Z</time>
      </trkpt>
      <trkpt lat="51.770118763670325" lon="39.375165710225701">
        <ele>127.03</ele>
        <time>2016-12-11T07:15:52Z</time>
      </trkpt>
      <trkpt lat="51.77014340646565" lon="39.375164704397321">
        <ele>127.03</ele>
        <time>2016-12-11T07:15:53Z</time>
      </trkpt>
      <trkpt lat="51.770593766123056" lon="39.375171242281795">
        <ele>127.51000000000001</ele>
        <time>2016-12-11T07:16:06Z</time>
      </trkpt>
      <trkpt lat="51.771097769960761" lon="39.375209966674447">
        <ele>127.03</ele>
        <time>2016-12-11T07:16:20Z</time>
      </trkpt>
      <trkpt lat="51.771423658356071" lon="39.375216672196984">
        <ele>125.59</ele>
        <time>2016-12-11T07:16:30Z</time>
      </trkpt>
      <trkpt lat="51.771904276683927" lon="39.375240812078118">
        <ele>126.55</ele>
        <time>2016-12-11T07:16:44Z</time>
      </trkpt>
      <trkpt lat="51.77259880118072" lon="39.375284900888801">
        <ele>125.59</ele>
        <time>2016-12-11T07:17:03Z</time>
      </trkpt>
      <trkpt lat="51.773119904100895" lon="39.375291606411338">
        <ele>125.11</ele>
        <time>2016-12-11T07:17:17Z</time>
      </trkpt>
      <trkpt lat="51.773639163002372" lon="39.375307783484459">
        <ele>123.67</ele>
        <time>2016-12-11T07:17:31Z</time>
      </trkpt>
      <trkpt lat="51.773834126070142" lon="39.375314740464091">
        <ele>123.67</ele>
        <time>2016-12-11T07:17:36Z</time>
      </trkpt>
      <trkpt lat="51.77448682487011" lon="39.375354889780283">
        <ele>121.26000000000001</ele>
        <time>2016-12-11T07:17:53Z</time>
      </trkpt>
      <trkpt lat="51.775030391290784" lon="39.375366624444723">
        <ele>118.86</ele>
        <time>2016-12-11T07:18:08Z</time>
      </trkpt>
      <trkpt lat="51.77554034627974" lon="39.375402498990297">
        <ele>118.86</ele>
        <time>2016-12-11T07:18:22Z</time>
      </trkpt>
      <trkpt lat="51.776106376200914" lon="39.375403169542551">
        <ele>120.3</ele>
        <time>2016-12-11T07:18:38Z</time>
      </trkpt>
      <trkpt lat="51.776616917923093" lon="39.375453628599644">
        <ele>116.45999999999999</ele>
        <time>2016-12-11T07:18:52Z</time>
      </trkpt>
      <trkpt lat="51.777437422424555" lon="39.375530909746885">
        <ele>115.01000000000001</ele>
        <time>2016-12-11T07:19:11Z</time>
      </trkpt>
      <trkpt lat="51.777858613058925" lon="39.375617410987616">
        <ele>114.53</ele>
        <time>2016-12-11T07:19:24Z</time>
      </trkpt>
      <trkpt lat="51.778252143412828" lon="39.375694524496794">
        <ele>114.53</ele>
        <time>2016-12-11T07:19:35Z</time>
      </trkpt>
      <trkpt lat="51.778459344059229" lon="39.37570558860898">
        <ele>114.05</ele>
        <time>2016-12-11T07:19:40Z</time>
      </trkpt>
      <trkpt lat="51.778899980708957" lon="39.375528562813997">
        <ele>113.56999999999999</ele>
        <time>2016-12-11T07:19:50Z</time>
      </trkpt>
      <trkpt lat="51.778983883559704" lon="39.375506183132529">
        <ele>113.56999999999999</ele>
        <time>2016-12-11T07:19:52Z</time>
      </trkpt>
      <trkpt lat="51.779067870229483" lon="39.3755042552948">
        <ele>113.56999999999999</ele>
        <time>2016-12-11T07:19:54Z</time>
      </trkpt>
      <trkpt lat="51.779759293422103" lon="39.375537028536201">
        <ele>115.01000000000001</ele>
        <time>2016-12-11T07:20:10Z</time>
      </trkpt>
      <trkpt lat="51.780360527336597" lon="39.375550271943212">
        <ele>115.01000000000001</ele>
        <time>2016-12-11T07:20:26Z</time>
      </trkpt>
      <trkpt lat="51.780882719904184" lon="39.375579608604312">
        <ele>114.53</ele>
        <time>2016-12-11T07:20:39Z</time>
      </trkpt>
      <trkpt lat="51.781388483941555" lon="39.376120828092098">
        <ele>115.98</ele>
        <time>2016-12-11T07:20:54Z</time>
      </trkpt>
      <trkpt lat="51.782105471938848" lon="39.37693202868104">
        <ele>118.38</ele>
        <time>2016-12-11T07:21:15Z</time>
      </trkpt>
      <trkpt lat="51.78275297395885" lon="39.377784887328744">
        <ele>119.81999999999999</ele>
        <time>2016-12-11T07:21:35Z</time>
      </trkpt>
      <trkpt lat="51.782900663092732" lon="39.378269445151091">
        <ele>119.81999999999999</ele>
        <time>2016-12-11T07:21:48Z</time>
      </trkpt>
      <trkpt lat="51.782900830730796" lon="39.378299452364445">
        <ele>119.81999999999999</ele>
        <time>2016-12-11T07:21:49Z</time>
      </trkpt>
      <trkpt lat="51.782894041389227" lon="39.378334656357765">
        <ele>119.81999999999999</ele>
        <time>2016-12-11T07:21:50Z</time>
      </trkpt>
      <trkpt lat="51.782883731648326" lon="39.37840623781085">
        <ele>119.34</ele>
        <time>2016-12-11T07:22:02Z</time>
      </trkpt>
      <trkpt lat="51.782886832952499" lon="39.378435406833887">
        <ele>118.38</ele>
        <time>2016-12-11T07:22:17Z</time>
      </trkpt>
      <trkpt lat="51.782888593152165" lon="39.378454266116023">
        <ele>118.38</ele>
        <time>2016-12-11T07:22:18Z</time>
      </trkpt>
      <trkpt lat="51.782886497676373" lon="39.378476310521364">
        <ele>118.38</ele>
        <time>2016-12-11T07:22:19Z</time>
      </trkpt>
      <trkpt lat="51.782821035012603" lon="39.379089698195457">
        <ele>117.90000000000001</ele>
        <time>2016-12-11T07:22:31Z</time>
      </trkpt>
      <trkpt lat="51.782699581235647" lon="39.3803118634969">
        <ele>118.86</ele>
        <time>2016-12-11T07:22:47Z</time>
      </trkpt>
      <trkpt lat="51.782565806061029" lon="39.381755394861102">
        <ele>120.78</ele>
        <time>2016-12-11T07:23:03Z</time>
      </trkpt>
      <trkpt lat="51.782426498830318" lon="39.383094487711787">
        <ele>119.81999999999999</ele>
        <time>2016-12-11T07:23:18Z</time>
      </trkpt>
      <trkpt lat="51.782266153022647" lon="39.384695934131742">
        <ele>121.73999999999999</ele>
        <time>2016-12-11T07:23:38Z</time>
      </trkpt>
      <trkpt lat="51.782079823315144" lon="39.386517070233822">
        <ele>122.22</ele>
        <time>2016-12-11T07:24:01Z</time>
      </trkpt>
      <trkpt lat="51.78191889077425" lon="39.388126228004694">
        <ele>122.70999999999999</ele>
        <time>2016-12-11T07:24:22Z</time>
      </trkpt>
      <trkpt lat="51.781772710382938" lon="39.38965299166739">
        <ele>122.70999999999999</ele>
        <time>2016-12-11T07:24:41Z</time>
      </trkpt>
      <trkpt lat="51.781595181673765" lon="39.391402127221227">
        <ele>122.22</ele>
        <time>2016-12-11T07:25:03Z</time>
      </trkpt>
      <trkpt lat="51.781424107030034" lon="39.393128463998437">
        <ele>122.22</ele>
        <time>2016-12-11T07:25:25Z</time>
      </trkpt>
      <trkpt lat="51.781256133690476" lon="39.394853292033076">
        <ele>123.67</ele>
        <time>2016-12-11T07:25:47Z</time>
      </trkpt>
      <trkpt lat="51.78109654225409" lon="39.396481141448021">
        <ele>125.11</ele>
        <time>2016-12-11T07:26:08Z</time>
      </trkpt>
      <trkpt lat="51.780995624139905" lon="39.397426452487707">
        <ele>125.11</ele>
        <time>2016-12-11T07:26:20Z</time>
      </trkpt>
      <trkpt lat="51.780984727665782" lon="39.397503733634949">
        <ele>125.11</ele>
        <time>2016-12-11T07:26:21Z</time>
      </trkpt>
      <trkpt lat="51.780852125957608" lon="39.398946342989802">
        <ele>126.06999999999999</ele>
        <time>2016-12-11T07:26:39Z</time>
      </trkpt>
      <trkpt lat="51.780681470409036" lon="39.400676200166345">
        <ele>127.51000000000001</ele>
        <time>2016-12-11T07:27:01Z</time>
      </trkpt>
      <trkpt lat="51.780589437112212" lon="39.402118641883135">
        <ele>128.94999999999999</ele>
        <time>2016-12-11T07:27:20Z</time>
      </trkpt>
      <trkpt lat="51.780597316101193" lon="39.402265157550573">
        <ele>128.94999999999999</ele>
        <time>2016-12-11T07:27:22Z</time>
      </trkpt>
      <trkpt lat="51.780652888119221" lon="39.403024641796947">
        <ele>131.84</ele>
        <time>2016-12-11T07:27:33Z</time>
      </trkpt>
      <trkpt lat="51.780661856755614" lon="39.403094379231334">
        <ele>131.84</ele>
        <time>2016-12-11T07:27:34Z</time>
      </trkpt>
      <trkpt lat="51.780674178153276" lon="39.403164368122816">
        <ele>131.84</ele>
        <time>2016-12-11T07:27:35Z</time>
      </trkpt>
      <trkpt lat="51.780690019950271" lon="39.403234273195267">
        <ele>131.84</ele>
        <time>2016-12-11T07:27:36Z</time>
      </trkpt>
      <trkpt lat="51.780708041042089" lon="39.403302753344178">
        <ele>131.84</ele>
        <time>2016-12-11T07:27:37Z</time>
      </trkpt>
      <trkpt lat="51.780750788748264" lon="39.403429571539164">
        <ele>131.84</ele>
        <time>2016-12-11T07:27:39Z</time>
      </trkpt>
      <trkpt lat="51.781267113983631" lon="39.4046192150563">
        <ele>133.28</ele>
        <time>2016-12-11T07:27:58Z</time>
      </trkpt>
      <trkpt lat="51.781448246911168" lon="39.404956167563796">
        <ele>133.28</ele>
        <time>2016-12-11T07:28:04Z</time>
      </trkpt>
      <trkpt lat="51.781486552208662" lon="39.404998160898685">
        <ele>133.28</ele>
        <time>2016-12-11T07:28:05Z</time>
      </trkpt>
      <trkpt lat="51.781528880819678" lon="39.405032861977816">
        <ele>133.28</ele>
        <time>2016-12-11T07:28:06Z</time>
      </trkpt>
      <trkpt lat="51.781664080917835" lon="39.405116513371468">
        <ele>132.80000000000001</ele>
        <time>2016-12-11T07:28:09Z</time>
      </trkpt>
      <trkpt lat="51.781714372336864" lon="39.405132355168462">
        <ele>132.80000000000001</ele>
        <time>2016-12-11T07:28:10Z</time>
      </trkpt>
      <trkpt lat="51.782541666179895" lon="39.405343076214194">
        <ele>135.19999999999999</ele>
        <time>2016-12-11T07:28:27Z</time>
      </trkpt>
      <trkpt lat="51.783302659168839" lon="39.40553585998714">
        <ele>134.24000000000001</ele>
        <time>2016-12-11T07:28:42Z</time>
      </trkpt>
      <trkpt lat="51.784143196418881" lon="39.405757645145059">
        <ele>132.80000000000001</ele>
        <time>2016-12-11T07:28:59Z</time>
      </trkpt>
      <trkpt lat="51.784975435584784" lon="39.40598152577877">
        <ele>134.24000000000001</ele>
        <time>2016-12-11T07:29:16Z</time>
      </trkpt>
      <trkpt lat="51.78531926125288" lon="39.406078085303307">
        <ele>135.68000000000001</ele>
        <time>2016-12-11T07:29:23Z</time>
      </trkpt>
      <trkpt lat="51.785363517701626" lon="39.406095771118999">
        <ele>135.68000000000001</ele>
        <time>2016-12-11T07:29:24Z</time>
      </trkpt>
      <trkpt lat="51.78564028814435" lon="39.406173806637526">
        <ele>135.68000000000001</ele>
        <time>2016-12-11T07:29:30Z</time>
      </trkpt>
      <trkpt lat="51.785686640068889" lon="39.406178332865238">
        <ele>136.16</ele>
        <time>2016-12-11T07:29:31Z</time>
      </trkpt>
      <trkpt lat="51.785735758021474" lon="39.406188558787107">
        <ele>136.16</ele>
        <time>2016-12-11T07:29:32Z</time>
      </trkpt>
      <trkpt lat="51.786530446261168" lon="39.406389808282256">
        <ele>137.13</ele>
        <time>2016-12-11T07:29:47Z</time>
      </trkpt>
      <trkpt lat="51.787347430363297" lon="39.406609497964382">
        <ele>134.24000000000001</ele>
        <time>2016-12-11T07:30:02Z</time>
      </trkpt>
      <trkpt lat="51.788277318701148" lon="39.406863050535321">
        <ele>136.63999999999999</ele>
        <time>2016-12-11T07:30:19Z</time>
      </trkpt>
      <trkpt lat="51.78833020851016" lon="39.406877383589745">
        <ele>136.63999999999999</ele>
        <time>2016-12-11T07:30:20Z</time>
      </trkpt>
      <trkpt lat="51.789153479039669" lon="39.407074358314276">
        <ele>136.63999999999999</ele>
        <time>2016-12-11T07:30:35Z</time>
      </trkpt>
      <trkpt lat="51.790074985474348" lon="39.407302513718605">
        <ele>135.68000000000001</ele>
        <time>2016-12-11T07:30:52Z</time>
      </trkpt>
      <trkpt lat="51.790855675935745" lon="39.407490268349648">
        <ele>135.19999999999999</ele>
        <time>2016-12-11T07:31:07Z</time>
      </trkpt>
      <trkpt lat="51.791430758312345" lon="39.407656732946634">
        <ele>135.19999999999999</ele>
        <time>2016-12-11T07:31:18Z</time>
      </trkpt>
      <trkpt lat="51.79228906519711" lon="39.407874746248126">
        <ele>136.16</ele>
        <time>2016-12-11T07:31:34Z</time>
      </trkpt>
      <trkpt lat="51.792926173657179" lon="39.408047245815396">
        <ele>137.13</ele>
        <time>2016-12-11T07:31:46Z</time>
      </trkpt>
      <trkpt lat="51.79367090575397" lon="39.408232569694519">
        <ele>136.16</ele>
        <time>2016-12-11T07:32:00Z</time>
      </trkpt>
      <trkpt lat="51.794363418594003" lon="39.408412780612707">
        <ele>135.68000000000001</ele>
        <time>2016-12-11T07:32:13Z</time>
      </trkpt>
      <trkpt lat="51.794413961470127" lon="39.40842367708683">
        <ele>135.68000000000001</ele>
        <time>2016-12-11T07:32:14Z</time>
      </trkpt>
      <trkpt lat="51.795252906158566" lon="39.408657532185316">
        <ele>134.24000000000001</ele>
        <time>2016-12-11T07:32:30Z</time>
      </trkpt>
      <trkpt lat="51.79608816280961" lon="39.408884514123201">
        <ele>131.84</ele>
        <time>2016-12-11T07:32:45Z</time>
      </trkpt>
      <trkpt lat="51.796737844124436" lon="39.40905156545341">
        <ele>131.36000000000001</ele>
        <time>2016-12-11T07:32:58Z</time>
      </trkpt>
      <trkpt lat="51.797472015023232" lon="39.409246947616339">
        <ele>129.91999999999999</ele>
        <time>2016-12-11T07:33:11Z</time>
      </trkpt>
      <trkpt lat="51.798276593908668" lon="39.409458674490452">
        <ele>129.43000000000001</ele>
        <time>2016-12-11T07:33:26Z</time>
      </trkpt>
      <trkpt lat="51.798998443409801" lon="39.409651290625334">
        <ele>130.40000000000001</ele>
        <time>2016-12-11T07:33:40Z</time>
      </trkpt>
      <trkpt lat="51.799653489142656" lon="39.409818006679416">
        <ele>132.31999999999999</ele>
        <time>2016-12-11T07:33:53Z</time>
      </trkpt>
      <trkpt lat="51.800429569557309" lon="39.410022692754865">
        <ele>131.84</ele>
        <time>2016-12-11T07:34:07Z</time>
      </trkpt>
      <trkpt lat="51.801229538396001" lon="39.410233162343502">
        <ele>133.28</ele>
        <time>2016-12-11T07:34:22Z</time>
      </trkpt>
      <trkpt lat="51.802060604095459" lon="39.410460563376546">
        <ele>128.47</ele>
        <time>2016-12-11T07:34:36Z</time>
      </trkpt>
      <trkpt lat="51.802825033664703" lon="39.410670530050993">
        <ele>125.59</ele>
        <time>2016-12-11T07:34:49Z</time>
      </trkpt>
      <trkpt lat="51.803031647577882" lon="39.41073783673346">
        <ele>125.59</ele>
        <time>2016-12-11T07:34:53Z</time>
      </trkpt>
      <trkpt lat="51.80307942442596" lon="39.41075736656785">
        <ele>126.06999999999999</ele>
        <time>2016-12-11T07:34:54Z</time>
      </trkpt>
      <trkpt lat="51.803377233445644" lon="39.410819141194224">
        <ele>127.51000000000001</ele>
        <time>2016-12-11T07:35:01Z</time>
      </trkpt>
      <trkpt lat="51.804144093766809" lon="39.411005470901728">
        <ele>126.06999999999999</ele>
        <time>2016-12-11T07:35:16Z</time>
      </trkpt>
      <trkpt lat="51.804782124236226" lon="39.411188364028931">
        <ele>122.22</ele>
        <time>2016-12-11T07:35:26Z</time>
      </trkpt>
      <trkpt lat="51.805376317352057" lon="39.411362707614899">
        <ele>121.26000000000001</ele>
        <time>2016-12-11T07:35:37Z</time>
      </trkpt>
      <trkpt lat="51.805427614599466" lon="39.411377795040607">
        <ele>121.26000000000001</ele>
        <time>2016-12-11T07:35:38Z</time>
      </trkpt>
      <trkpt lat="51.806006468832493" lon="39.4116838183254">
        <ele>123.19</ele>
        <time>2016-12-11T07:35:53Z</time>
      </trkpt>
      <trkpt lat="51.806722618639469" lon="39.411873752251267">
        <ele>118.38</ele>
        <time>2016-12-11T07:36:10Z</time>
      </trkpt>
      <trkpt lat="51.807070802897215" lon="39.412037031725049">
        <ele>117.42</ele>
        <time>2016-12-11T07:36:18Z</time>
      </trkpt>
      <trkpt lat="51.807792484760284" lon="39.412479847669601">
        <ele>116.45999999999999</ele>
        <time>2016-12-11T07:36:36Z</time>
      </trkpt>
      <trkpt lat="51.808427246287465" lon="39.412623597308993">
        <ele>113.56999999999999</ele>
        <time>2016-12-11T07:36:52Z</time>
      </trkpt>
      <trkpt lat="51.809019930660725" lon="39.412744380533695">
        <ele>113.56999999999999</ele>
        <time>2016-12-11T07:37:08Z</time>
      </trkpt>
      <trkpt lat="51.809550169855356" lon="39.41311745904386">
        <ele>111.65000000000001</ele>
        <time>2016-12-11T07:37:24Z</time>
      </trkpt>
      <trkpt lat="51.809750413522124" lon="39.413903346285224">
        <ele>113.09</ele>
        <time>2016-12-11T07:37:39Z</time>
      </trkpt>
      <trkpt lat="51.809886703267694" lon="39.415060887113214">
        <ele>115.5</ele>
        <time>2016-12-11T07:37:58Z</time>
      </trkpt>
      <trkpt lat="51.810090215876698" lon="39.415886420756578">
        <ele>117.90000000000001</ele>
        <time>2016-12-11T07:38:13Z</time>
      </trkpt>
      <trkpt lat="51.810557674616575" lon="39.416451444849372">
        <ele>119.81999999999999</ele>
        <time>2016-12-11T07:38:29Z</time>
      </trkpt>
      <trkpt lat="51.810718355700374" lon="39.416663758456707">
        <ele>120.3</ele>
        <time>2016-12-11T07:38:42Z</time>
      </trkpt>
      <trkpt lat="51.810698322951794" lon="39.416606007143855">
        <ele>120.3</ele>
        <time>2016-12-11T07:38:53Z</time>
      </trkpt>
      <trkpt lat="51.810668064281344" lon="39.416565354913473">
        <ele>119.34</ele>
        <time>2016-12-11T07:39:00Z</time>
      </trkpt>
      <trkpt lat="51.810656832531095" lon="39.416551943868399">
        <ele>119.81999999999999</ele>
        <time>2016-12-11T07:39:01Z</time>
      </trkpt>
      <trkpt lat="51.810338236391544" lon="39.416230330243707">
        <ele>121.26000000000001</ele>
        <time>2016-12-11T07:39:14Z</time>
      </trkpt>
      <trkpt lat="51.809988291934133" lon="39.415646027773619">
        <ele>120.3</ele>
        <time>2016-12-11T07:39:29Z</time>
      </trkpt>
      <trkpt lat="51.809848481789231" lon="39.414774477481842">
        <ele>118.38</ele>
        <time>2016-12-11T07:39:42Z</time>
      </trkpt>
      <trkpt lat="51.809839429333806" lon="39.414689736440778">
        <ele>117.90000000000001</ele>
        <time>2016-12-11T07:39:43Z</time>
      </trkpt>
      <trkpt lat="51.809764914214611" lon="39.414003426209092">
        <ele>114.53</ele>
        <time>2016-12-11T07:39:53Z</time>
      </trkpt>
      <trkpt lat="51.809777235612273" lon="39.413970652967691">
        <ele>114.53</ele>
        <time>2016-12-11T07:39:54Z</time>
      </trkpt>
      <trkpt lat="51.809796178713441" lon="39.413939639925957">
        <ele>114.05</ele>
        <time>2016-12-11T07:39:55Z</time>
      </trkpt>
      <trkpt lat="51.810146626085043" lon="39.41372430883348">
        <ele>114.05</ele>
        <time>2016-12-11T07:40:05Z</time>
      </trkpt>
      <trkpt lat="51.810933602973819" lon="39.413341674953699">
        <ele>115.01000000000001</ele>
        <time>2016-12-11T07:40:24Z</time>
      </trkpt>
      <trkpt lat="51.811058577150106" lon="39.413241343572736">
        <ele>114.53</ele>
        <time>2016-12-11T07:40:27Z</time>
      </trkpt>
      <trkpt lat="51.811098391190171" lon="39.41320245154202">
        <ele>114.53</ele>
        <time>2016-12-11T07:40:28Z</time>
      </trkpt>
      <trkpt lat="51.811911268159747" lon="39.412729293107986">
        <ele>112.13</ele>
        <time>2016-12-11T07:40:46Z</time>
      </trkpt>
      <trkpt lat="51.812894213944674" lon="39.412343893200159">
        <ele>111.17</ele>
        <time>2016-12-11T07:41:02Z</time>
      </trkpt>
      <trkpt lat="51.813537357375026" lon="39.412025213241577">
        <ele>110.69</ele>
        <time>2016-12-11T07:41:14Z</time>
      </trkpt>
      <trkpt lat="51.814328106120229" lon="39.41157728433609">
        <ele>110.69</ele>
        <time>2016-12-11T07:41:30Z</time>
      </trkpt>
      <trkpt lat="51.815214911475778" lon="39.41102952696383">
        <ele>111.17</ele>
        <time>2016-12-11T07:41:47Z</time>
      </trkpt>
      <trkpt lat="51.815991327166557" lon="39.410738339647651">
        <ele>114.05</ele>
        <time>2016-12-11T07:42:03Z</time>
      </trkpt>
      <trkpt lat="51.81659784168005" lon="39.410674134269357">
        <ele>120.78</ele>
        <time>2016-12-11T07:42:17Z</time>
      </trkpt>
      <trkpt lat="51.817039316520095" lon="39.410722916945815">
        <ele>124.15000000000001</ele>
        <time>2016-12-11T07:42:27Z</time>
      </trkpt>
      <trkpt lat="51.817180551588535" lon="39.410786451771855">
        <ele>124.15000000000001</ele>
        <time>2016-12-11T07:42:30Z</time>
      </trkpt>
      <trkpt lat="51.817844063043594" lon="39.411187022924423">
        <ele>125.59</ele>
        <time>2016-12-11T07:42:45Z</time>
      </trkpt>
      <trkpt lat="51.817888487130404" lon="39.411211162805557">
        <ele>126.55</ele>
        <time>2016-12-11T07:42:46Z</time>
      </trkpt>
      <trkpt lat="51.818173220381141" lon="39.411353236064315">
        <ele>129.43000000000001</ele>
        <time>2016-12-11T07:42:53Z</time>
      </trkpt>
      <trkpt lat="51.818218901753426" lon="39.411357175558805">
        <ele>129.43000000000001</ele>
        <time>2016-12-11T07:42:54Z</time>
      </trkpt>
      <trkpt lat="51.818267935886979" lon="39.411354828625917">
        <ele>129.43000000000001</ele>
        <time>2016-12-11T07:42:55Z</time>
      </trkpt>
      <trkpt lat="51.818427611142397" lon="39.411312416195869">
        <ele>128.47</ele>
        <time>2016-12-11T07:42:58Z</time>
      </trkpt>
      <trkpt lat="51.818923149257898" lon="39.410990048199892">
        <ele>127.03</ele>
        <time>2016-12-11T07:43:09Z</time>
      </trkpt>
      <trkpt lat="51.81896380148828" lon="39.410969177260995">
        <ele>126.55</ele>
        <time>2016-12-11T07:43:10Z</time>
      </trkpt>
      <trkpt lat="51.819004872813821" lon="39.410948809236288">
        <ele>126.55</ele>
        <time>2016-12-11T07:43:11Z</time>
      </trkpt>
      <trkpt lat="51.819046782329679" lon="39.410930536687374">
        <ele>126.55</ele>
        <time>2016-12-11T07:43:12Z</time>
      </trkpt>
      <trkpt lat="51.819088105112314" lon="39.410910839214921">
        <ele>126.55</ele>
        <time>2016-12-11T07:43:13Z</time>
      </trkpt>
      <trkpt lat="51.819386752322316" lon="39.410756528377533">
        <ele>126.55</ele>
        <time>2016-12-11T07:43:20Z</time>
      </trkpt>
      <trkpt lat="51.8195481877774" lon="39.410621076822281">
        <ele>125.59</ele>
        <time>2016-12-11T07:43:24Z</time>
      </trkpt>
      <trkpt lat="51.819728566333652" lon="39.410443296656013">
        <ele>124.63</ele>
        <time>2016-12-11T07:43:29Z</time>
      </trkpt>
      <trkpt lat="51.820182697847486" lon="39.410227378830314">
        <ele>120.3</ele>
        <time>2016-12-11T07:43:42Z</time>
      </trkpt>
      <trkpt lat="51.820278251543641" lon="39.410291416570544">
        <ele>120.3</ele>
        <time>2016-12-11T07:43:46Z</time>
      </trkpt>
      <trkpt lat="51.820323513820767" lon="39.410390155389905">
        <ele>118.38</ele>
        <time>2016-12-11T07:43:54Z</time>
      </trkpt>
      <trkpt lat="51.82046877220273" lon="39.410610850900412">
        <ele>118.38</ele>
        <time>2016-12-11T07:44:05Z</time>
      </trkpt>
      <trkpt lat="51.820761887356639" lon="39.410822745412588">
        <ele>116.45999999999999</ele>
        <time>2016-12-11T07:44:19Z</time>
      </trkpt>
      <trkpt lat="51.821140246465802" lon="39.411068586632609">
        <ele>116.45999999999999</ele>
        <time>2016-12-11T07:44:31Z</time>
      </trkpt>
      <trkpt lat="51.821171175688505" lon="39.411115860566497">
        <ele>115.98</ele>
        <time>2016-12-11T07:44:41Z</time>
      </trkpt>
      <trkpt lat="51.821159943938255" lon="39.41115265712142">
        <ele>113.09</ele>
        <time>2016-12-11T07:45:11Z</time>
      </trkpt>
      <trkpt lat="51.821139072999358" lon="39.411124913021922">
        <ele>112.13</ele>
        <time>2016-12-11T07:45:37Z</time>
      </trkpt>
      <trkpt lat="51.821193303912878" lon="39.411112675443292">
        <ele>115.5</ele>
        <time>2016-12-11T07:45:54Z</time>
      </trkpt>
      <trkpt lat="51.821208307519555" lon="39.411120135337114">
        <ele>115.5</ele>
        <time>2016-12-11T07:45:55Z</time>
      </trkpt>
      <trkpt lat="51.821227669715881" lon="39.411128517240286">
        <ele>115.5</ele>
        <time>2016-12-11T07:45:56Z</time>
      </trkpt>
      <trkpt lat="51.821249462664127" lon="39.411139497533441">
        <ele>115.5</ele>
        <time>2016-12-11T07:45:57Z</time>
      </trkpt>
      <trkpt lat="51.821274776011705" lon="39.411153579130769">
        <ele>115.98</ele>
        <time>2016-12-11T07:45:58Z</time>
      </trkpt>
      <trkpt lat="51.821660762652755" lon="39.41125818528235">
        <ele>116.94</ele>
        <time>2016-12-11T07:46:12Z</time>
      </trkpt>
      <trkpt lat="51.822121851146221" lon="39.411369329318404">
        <ele>116.94</ele>
        <time>2016-12-11T07:46:26Z</time>
      </trkpt>
      <trkpt lat="51.822157809510827" lon="39.411383494734764">
        <ele>116.94</ele>
        <time>2016-12-11T07:46:28Z</time>
      </trkpt>
      <trkpt lat="51.822170969098806" lon="39.411392882466316">
        <ele>116.94</ele>
        <time>2016-12-11T07:46:29Z</time>
      </trkpt>
      <trkpt lat="51.822185469791293" lon="39.411394307389855">
        <ele>116.94</ele>
        <time>2016-12-11T07:46:30Z</time>
      </trkpt>
      <trkpt lat="51.822204748168588" lon="39.41139698959887">
        <ele>116.94</ele>
        <time>2016-12-11T07:46:31Z</time>
      </trkpt>
      <trkpt lat="51.822223942726851" lon="39.411408808082342">
        <ele>116.94</ele>
        <time>2016-12-11T07:46:32Z</time>
      </trkpt>
      <trkpt lat="51.822243807837367" lon="39.411431271582842">
        <ele>116.94</ele>
        <time>2016-12-11T07:46:33Z</time>
      </trkpt>
      <trkpt lat="51.822263672947884" lon="39.411455579102039">
        <ele>116.94</ele>
        <time>2016-12-11T07:46:34Z</time>
      </trkpt>
      <trkpt lat="51.822468023747206" lon="39.411659929901361">
        <ele>116.45999999999999</ele>
        <time>2016-12-11T07:46:42Z</time>
      </trkpt>
      <trkpt lat="51.822488056495786" lon="39.411648949608207">
        <ele>116.45999999999999</ele>
        <time>2016-12-11T07:46:43Z</time>
      </trkpt>
      <trkpt lat="51.822506496682763" lon="39.411630928516388">
        <ele>116.94</ele>
        <time>2016-12-11T07:46:44Z</time>
      </trkpt>
      <trkpt lat="51.822551172226667" lon="39.4115059543401">
        <ele>116.94</ele>
        <time>2016-12-11T07:46:51Z</time>
      </trkpt>
      <trkpt lat="51.822513286024332" lon="39.411464463919401">
        <ele>115.98</ele>
        <time>2016-12-11T07:46:56Z</time>
      </trkpt>
      <trkpt lat="51.822461988776922" lon="39.411425571888685">
        <ele>115.5</ele>
        <time>2016-12-11T07:47:00Z</time>
      </trkpt>
      <trkpt lat="51.822438016533852" lon="39.411399839445949">
        <ele>115.98</ele>
        <time>2016-12-11T07:47:01Z</time>
      </trkpt>
      <trkpt lat="51.822414211928844" lon="39.411380309611559">
        <ele>115.98</ele>
        <time>2016-12-11T07:47:02Z</time>
      </trkpt>
      <trkpt lat="51.822386970743537" lon="39.411358097568154">
        <ele>115.98</ele>
        <time>2016-12-11T07:47:03Z</time>
      </trkpt>
      <trkpt lat="51.822294853627682" lon="39.411293053999543">
        <ele>115.5</ele>
        <time>2016-12-11T07:47:07Z</time>
      </trkpt>
      <trkpt lat="51.822274150326848" lon="39.4112987536937">
        <ele>115.5</ele>
        <time>2016-12-11T07:47:08Z</time>
      </trkpt>
      <trkpt lat="51.822253614664078" lon="39.411315601319075">
        <ele>115.5</ele>
        <time>2016-12-11T07:47:09Z</time>
      </trkpt>
      <trkpt lat="51.821954129263759" lon="39.411341333761811">
        <ele>114.05</ele>
        <time>2016-12-11T07:47:21Z</time>
      </trkpt>
      <trkpt lat="51.821547104045749" lon="39.411234967410564">
        <ele>116.45999999999999</ele>
        <time>2016-12-11T07:47:35Z</time>
      </trkpt>
      <trkpt lat="51.821527574211359" lon="39.411249384284019">
        <ele>115.98</ele>
        <time>2016-12-11T07:47:44Z</time>
      </trkpt>
      <trkpt lat="51.821496980264783" lon="39.41130755469203">
        <ele>114.53</ele>
        <time>2016-12-11T07:48:22Z</time>
      </trkpt>
      <trkpt lat="51.82140938937664" lon="39.411216778680682">
        <ele>118.38</ele>
        <time>2016-12-11T07:48:45Z</time>
      </trkpt>
      <trkpt lat="51.821084506809711" lon="39.411026174202561">
        <ele>117.42</ele>
        <time>2016-12-11T07:48:57Z</time>
      </trkpt>
      <trkpt lat="51.820768509060144" lon="39.410826349630952">
        <ele>115.98</ele>
        <time>2016-12-11T07:49:09Z</time>
      </trkpt>
      <trkpt lat="51.820511184632778" lon="39.410618897527456">
        <ele>115.01000000000001</ele>
        <time>2016-12-11T07:49:20Z</time>
      </trkpt>
      <trkpt lat="51.820410853251815" lon="39.410117324441671">
        <ele>112.61</ele>
        <time>2016-12-11T07:49:31Z</time>
      </trkpt>
      <trkpt lat="51.820423007011414" lon="39.410085640847683">
        <ele>112.13</ele>
        <time>2016-12-11T07:49:32Z</time>
      </trkpt>
      <trkpt lat="51.820438848808408" lon="39.410067619755864">
        <ele>112.13</ele>
        <time>2016-12-11T07:49:33Z</time>
      </trkpt>
      <trkpt lat="51.820458881556988" lon="39.4100640155375">
        <ele>112.13</ele>
        <time>2016-12-11T07:49:34Z</time>
      </trkpt>
      <trkpt lat="51.820487380027771" lon="39.410061836242676">
        <ele>112.13</ele>
        <time>2016-12-11T07:49:35Z</time>
      </trkpt>
      <trkpt lat="51.820519650354981" lon="39.410051442682743">
        <ele>112.13</ele>
        <time>2016-12-11T07:49:36Z</time>
      </trkpt>
      <trkpt lat="51.821086350828409" lon="39.409947674721479">
        <ele>111.17</ele>
        <time>2016-12-11T07:49:49Z</time>
      </trkpt>
      <trkpt lat="51.821274189278483" lon="39.409894198179245">
        <ele>111.65000000000001</ele>
        <time>2016-12-11T07:49:53Z</time>
      </trkpt>
      <trkpt lat="51.821360103785992" lon="39.409839380532503">
        <ele>111.65000000000001</ele>
        <time>2016-12-11T07:49:55Z</time>
      </trkpt>
      <trkpt lat="51.821401007473469" lon="39.40980308689177">
        <ele>112.13</ele>
        <time>2016-12-11T07:49:56Z</time>
      </trkpt>
      <trkpt lat="51.821440234780312" lon="39.409759333357215">
        <ele>112.61</ele>
        <time>2016-12-11T07:49:57Z</time>
      </trkpt>
      <trkpt lat="51.821478456258774" lon="39.409707617014647">
        <ele>112.61</ele>
        <time>2016-12-11T07:49:58Z</time>
      </trkpt>
      <trkpt lat="51.821514330804348" lon="39.409652715548873">
        <ele>112.13</ele>
        <time>2016-12-11T07:49:59Z</time>
      </trkpt>
      <trkpt lat="51.821707198396325" lon="39.409275278449059">
        <ele>111.17</ele>
        <time>2016-12-11T07:50:05Z</time>
      </trkpt>
      <trkpt lat="51.821793029084802" lon="39.408998759463429">
        <ele>110.20999999999999</ele>
        <time>2016-12-11T07:50:09Z</time>
      </trkpt>
      <trkpt lat="51.821808535605669" lon="39.408925669267774">
        <ele>110.20999999999999</ele>
        <time>2016-12-11T07:50:10Z</time>
      </trkpt>
      <trkpt lat="51.82182127609849" lon="39.408843861892819">
        <ele>110.20999999999999</ele>
        <time>2016-12-11T07:50:11Z</time>
      </trkpt>
      <trkpt lat="51.821828652173281" lon="39.408771358430386">
        <ele>110.20999999999999</ele>
        <time>2016-12-11T07:50:12Z</time>
      </trkpt>
      <trkpt lat="51.821833848953247" lon="39.408684521913528">
        <ele>110.20999999999999</ele>
        <time>2016-12-11T07:50:13Z</time>
      </trkpt>
      <trkpt lat="51.821834435686469" lon="39.408608330413699">
        <ele>110.20999999999999</ele>
        <time>2016-12-11T07:50:14Z</time>
      </trkpt>
      <trkpt lat="51.821831502020359" lon="39.408534821122885">
        <ele>110.20999999999999</ele>
        <time>2016-12-11T07:50:15Z</time>
      </trkpt>
      <trkpt lat="51.821819515898824" lon="39.40837824717164">
        <ele>110.69</ele>
        <time>2016-12-11T07:50:17Z</time>
      </trkpt>
      <trkpt lat="51.821748018264771" lon="39.407144263386726">
        <ele>111.65000000000001</ele>
        <time>2016-12-11T07:50:32Z</time>
      </trkpt>
      <trkpt lat="51.821977682411671" lon="39.405994601547718">
        <ele>110.69</ele>
        <time>2016-12-11T07:50:45Z</time>
      </trkpt>
      <trkpt lat="51.822078097611666" lon="39.405755046755075">
        <ele>110.69</ele>
        <time>2016-12-11T07:50:48Z</time>
      </trkpt>
      <trkpt lat="51.822120007127523" lon="39.405685560777783">
        <ele>110.69</ele>
        <time>2016-12-11T07:50:49Z</time>
      </trkpt>
      <trkpt lat="51.822155881673098" lon="39.405638454481959">
        <ele>110.69</ele>
        <time>2016-12-11T07:50:50Z</time>
      </trkpt>
      <trkpt lat="51.822203155606985" lon="39.405599310994148">
        <ele>110.69</ele>
        <time>2016-12-11T07:50:51Z</time>
      </trkpt>
      <trkpt lat="51.822247495874763" lon="39.40557156689465">
        <ele>111.17</ele>
        <time>2016-12-11T07:50:52Z</time>
      </trkpt>
      <trkpt lat="51.822295440360904" lon="39.405547678470612">
        <ele>111.17</ele>
        <time>2016-12-11T07:50:53Z</time>
      </trkpt>
      <trkpt lat="51.823016703128815" lon="39.405346177518368">
        <ele>112.13</ele>
        <time>2016-12-11T07:51:07Z</time>
      </trkpt>
      <trkpt lat="51.823811391368508" lon="39.405523287132382">
        <ele>112.13</ele>
        <time>2016-12-11T07:51:24Z</time>
      </trkpt>
      <trkpt lat="51.824385216459632" lon="39.405674329027534">
        <ele>111.17</ele>
        <time>2016-12-11T07:51:36Z</time>
      </trkpt>
      <trkpt lat="51.824726276099682" lon="39.4057278893888">
        <ele>111.17</ele>
        <time>2016-12-11T07:51:43Z</time>
      </trkpt>
      <trkpt lat="51.824906654655933" lon="39.405701486393809">
        <ele>112.13</ele>
        <time>2016-12-11T07:51:47Z</time>
      </trkpt>
      <trkpt lat="51.824949570000172" lon="39.405681872740388">
        <ele>112.13</ele>
        <time>2016-12-11T07:51:48Z</time>
      </trkpt>
      <trkpt lat="51.824991228058934" lon="39.405664019286633">
        <ele>112.61</ele>
        <time>2016-12-11T07:51:49Z</time>
      </trkpt>
      <trkpt lat="51.825708635151386" lon="39.405471989884973">
        <ele>115.01000000000001</ele>
        <time>2016-12-11T07:52:05Z</time>
      </trkpt>
      <trkpt lat="51.826420594006777" lon="39.405232351273298">
        <ele>117.42</ele>
        <time>2016-12-11T07:52:22Z</time>
      </trkpt>
      <trkpt lat="51.826653694733977" lon="39.4050682336092">
        <ele>115.98</ele>
        <time>2016-12-11T07:52:28Z</time>
      </trkpt>
      <trkpt lat="51.826798869296908" lon="39.404906462877989">
        <ele>114.53</ele>
        <time>2016-12-11T07:52:32Z</time>
      </trkpt>
      <trkpt lat="51.826869109645486" lon="39.404821470379829">
        <ele>113.56999999999999</ele>
        <time>2016-12-11T07:52:34Z</time>
      </trkpt>
      <trkpt lat="51.82731200940907" lon="39.404272623360157">
        <ele>113.56999999999999</ele>
        <time>2016-12-11T07:52:46Z</time>
      </trkpt>
      <trkpt lat="51.827352494001389" lon="39.404242364689708">
        <ele>113.56999999999999</ele>
        <time>2016-12-11T07:52:47Z</time>
      </trkpt>
      <trkpt lat="51.828005025163293" lon="39.404119485989213">
        <ele>115.5</ele>
        <time>2016-12-11T07:53:00Z</time>
      </trkpt>
      <trkpt lat="51.828321693465114" lon="39.404075648635626">
        <ele>115.01000000000001</ele>
        <time>2016-12-11T07:53:06Z</time>
      </trkpt>
      <trkpt lat="51.828369554132223" lon="39.404049580916762">
        <ele>114.53</ele>
        <time>2016-12-11T07:53:07Z</time>
      </trkpt>
      <trkpt lat="51.828422024846077" lon="39.404012868180871">
        <ele>114.53</ele>
        <time>2016-12-11T07:53:08Z</time>
      </trkpt>
      <trkpt lat="51.82888244278729" lon="39.403304513543844">
        <ele>111.65000000000001</ele>
        <time>2016-12-11T07:53:20Z</time>
      </trkpt>
      <trkpt lat="51.829264322295785" lon="39.402299523353577">
        <ele>109.73</ele>
        <time>2016-12-11T07:53:34Z</time>
      </trkpt>
      <trkpt lat="51.82942190207541" lon="39.402081593871117">
        <ele>109.25</ele>
        <time>2016-12-11T07:53:38Z</time>
      </trkpt>
      <trkpt lat="51.829474540427327" lon="39.402035996317863">
        <ele>108.77</ele>
        <time>2016-12-11T07:53:39Z</time>
      </trkpt>
      <trkpt lat="51.829526256769896" lon="39.402001798152924">
        <ele>108.77</ele>
        <time>2016-12-11T07:53:40Z</time>
      </trkpt>
      <trkpt lat="51.830108966678381" lon="39.40176366828382">
        <ele>111.65000000000001</ele>
        <time>2016-12-11T07:53:53Z</time>
      </trkpt>
      <trkpt lat="51.830693436786532" lon="39.401594521477818">
        <ele>110.69</ele>
        <time>2016-12-11T07:54:05Z</time>
      </trkpt>
      <trkpt lat="51.831363150849938" lon="39.401204762980342">
        <ele>109.73</ele>
        <time>2016-12-11T07:54:19Z</time>
      </trkpt>
      <trkpt lat="51.831966983154416" lon="39.400926399976015">
        <ele>108.77</ele>
        <time>2016-12-11T07:54:32Z</time>
      </trkpt>
      <trkpt lat="51.832586405798793" lon="39.400543766096234">
        <ele>108.77</ele>
        <time>2016-12-11T07:54:45Z</time>
      </trkpt>
      <trkpt lat="51.832715151831508" lon="39.400377217680216">
        <ele>107.81</ele>
        <time>2016-12-11T07:54:48Z</time>
      </trkpt>
      <trkpt lat="51.833320995792747" lon="39.399305088445544">
        <ele>104.44</ele>
        <time>2016-12-11T07:55:03Z</time>
      </trkpt>
      <trkpt lat="51.833364414051175" lon="39.399255886673927">
        <ele>104.44</ele>
        <time>2016-12-11T07:55:04Z</time>
      </trkpt>
      <trkpt lat="51.833409843966365" lon="39.399212384596467">
        <ele>104.44</ele>
        <time>2016-12-11T07:55:05Z</time>
      </trkpt>
      <trkpt lat="51.833456112071872" lon="39.399177599698305">
        <ele>104.44</ele>
        <time>2016-12-11T07:55:06Z</time>
      </trkpt>
      <trkpt lat="51.833503553643823" lon="39.399153124541044">
        <ele>104.92</ele>
        <time>2016-12-11T07:55:07Z</time>
      </trkpt>
      <trkpt lat="51.83355082757771" lon="39.399133427068591">
        <ele>104.92</ele>
        <time>2016-12-11T07:55:08Z</time>
      </trkpt>
      <trkpt lat="51.833792561665177" lon="39.399073328822851">
        <ele>104.92</ele>
        <time>2016-12-11T07:55:13Z</time>
      </trkpt>
      <trkpt lat="51.833838913589716" lon="39.399078274145722">
        <ele>104.92</ele>
        <time>2016-12-11T07:55:14Z</time>
      </trkpt>
      <trkpt lat="51.833884511142969" lon="39.39909478649497">
        <ele>105.40000000000001</ele>
        <time>2016-12-11T07:55:15Z</time>
      </trkpt>
      <trkpt lat="51.833930946886539" lon="39.399122530594468">
        <ele>105.40000000000001</ele>
        <time>2016-12-11T07:55:16Z</time>
      </trkpt>
      <trkpt lat="51.833974448964" lon="39.399155387654901">
        <ele>105.40000000000001</ele>
        <time>2016-12-11T07:55:17Z</time>
      </trkpt>
      <trkpt lat="51.834015604108572" lon="39.399190424010158">
        <ele>105.88</ele>
        <time>2016-12-11T07:55:18Z</time>
      </trkpt>
      <trkpt lat="51.834057932719588" lon="39.399224035441875">
        <ele>105.88</ele>
        <time>2016-12-11T07:55:19Z</time>
      </trkpt>
      <trkpt lat="51.834100680425763" lon="39.399250941351056">
        <ele>105.88</ele>
        <time>2016-12-11T07:55:20Z</time>
      </trkpt>
      <trkpt lat="51.834147116169333" lon="39.399266196414828">
        <ele>105.88</ele>
        <time>2016-12-11T07:55:21Z</time>
      </trkpt>
      <trkpt lat="51.834194473922253" lon="39.399270387366414">
        <ele>105.88</ele>
        <time>2016-12-11T07:55:22Z</time>
      </trkpt>
      <trkpt lat="51.83424225077033" lon="39.399259742349386">
        <ele>106.36</ele>
        <time>2016-12-11T07:55:23Z</time>
      </trkpt>
      <trkpt lat="51.834289776161313" lon="39.399234680458903">
        <ele>106.36</ele>
        <time>2016-12-11T07:55:24Z</time>
      </trkpt>
      <trkpt lat="51.83433311060071" lon="39.399197045713663">
        <ele>106.36</ele>
        <time>2016-12-11T07:55:25Z</time>
      </trkpt>
      <trkpt lat="51.83437560684979" lon="39.39915488474071">
        <ele>106.36</ele>
        <time>2016-12-11T07:55:26Z</time>
      </trkpt>
      <trkpt lat="51.834620526060462" lon="39.398926561698318">
        <ele>108.29000000000001</ele>
        <time>2016-12-11T07:55:32Z</time>
      </trkpt>
      <trkpt lat="51.83472597040236" lon="39.398800833150744">
        <ele>108.77</ele>
        <time>2016-12-11T07:55:35Z</time>
      </trkpt>
      <trkpt lat="51.834754552692175" lon="39.398749535903335">
        <ele>108.77</ele>
        <time>2016-12-11T07:55:36Z</time>
      </trkpt>
      <trkpt lat="51.834777435287833" lon="39.398689437657595">
        <ele>108.77</ele>
        <time>2016-12-11T07:55:37Z</time>
      </trkpt>
      <trkpt lat="51.83479780331254" lon="39.398626992478967">
        <ele>108.77</ele>
        <time>2016-12-11T07:55:38Z</time>
      </trkpt>
      <trkpt lat="51.834815321490169" lon="39.398559685796499">
        <ele>108.77</ele>
        <time>2016-12-11T07:55:39Z</time>
      </trkpt>
      <trkpt lat="51.83483007363975" lon="39.398489780724049">
        <ele>108.29000000000001</ele>
        <time>2016-12-11T07:55:40Z</time>
      </trkpt>
      <trkpt lat="51.834841640666127" lon="39.398419791832566">
        <ele>108.29000000000001</ele>
        <time>2016-12-11T07:55:41Z</time>
      </trkpt>
      <trkpt lat="51.834849016740918" lon="39.398343851789832">
        <ele>108.29000000000001</ele>
        <time>2016-12-11T07:55:42Z</time>
      </trkpt>
      <trkpt lat="51.83485253714025" lon="39.398269336670637">
        <ele>108.29000000000001</ele>
        <time>2016-12-11T07:55:43Z</time>
      </trkpt>
      <trkpt lat="51.834852872416377" lon="39.398188954219222">
        <ele>107.81</ele>
        <time>2016-12-11T07:55:44Z</time>
      </trkpt>
      <trkpt lat="51.834848262369633" lon="39.398111421614885">
        <ele>107.81</ele>
        <time>2016-12-11T07:55:45Z</time>
      </trkpt>
      <trkpt lat="51.834838623180985" lon="39.398031122982502">
        <ele>107.81</ele>
        <time>2016-12-11T07:55:46Z</time>
      </trkpt>
      <trkpt lat="51.834584400057793" lon="39.397001070901752">
        <ele>108.77</ele>
        <time>2016-12-11T07:56:00Z</time>
      </trkpt>
      <trkpt lat="51.834560763090849" lon="39.39692915417254">
        <ele>108.77</ele>
        <time>2016-12-11T07:56:01Z</time>
      </trkpt>
      <trkpt lat="51.834502257406712" lon="39.396794708445668">
        <ele>108.77</ele>
        <time>2016-12-11T07:56:03Z</time>
      </trkpt>
      <trkpt lat="51.834435034543276" lon="39.396680546924472">
        <ele>108.29000000000001</ele>
        <time>2016-12-11T07:56:05Z</time>
      </trkpt>
      <trkpt lat="51.834300421178341" lon="39.396480051800609">
        <ele>109.25</ele>
        <time>2016-12-11T07:56:09Z</time>
      </trkpt>
      <trkpt lat="51.83426957577467" lon="39.396423138678074">
        <ele>110.20999999999999</ele>
        <time>2016-12-11T07:56:10Z</time>
      </trkpt>
      <trkpt lat="51.834207465872169" lon="39.396289279684424">
        <ele>110.69</ele>
        <time>2016-12-11T07:56:12Z</time>
      </trkpt>
      <trkpt lat="51.834087688475847" lon="39.395933635532856">
        <ele>109.73</ele>
        <time>2016-12-11T07:56:17Z</time>
      </trkpt>
      <trkpt lat="51.834072852507234" lon="39.39585953950882">
        <ele>109.73</ele>
        <time>2016-12-11T07:56:18Z</time>
      </trkpt>
      <trkpt lat="51.834061956033111" lon="39.395780246704817">
        <ele>109.25</ele>
        <time>2016-12-11T07:56:19Z</time>
      </trkpt>
      <trkpt lat="51.834056675434113" lon="39.395698942244053">
        <ele>109.25</ele>
        <time>2016-12-11T07:56:20Z</time>
      </trkpt>
      <trkpt lat="51.834055418148637" lon="39.395611938089132">
        <ele>109.25</ele>
        <time>2016-12-11T07:56:21Z</time>
      </trkpt>
      <trkpt lat="51.834060028195381" lon="39.395525688305497">
        <ele>108.77</ele>
        <time>2016-12-11T07:56:22Z</time>
      </trkpt>
      <trkpt lat="51.834071343764663" lon="39.395439187064767">
        <ele>108.29000000000001</ele>
        <time>2016-12-11T07:56:23Z</time>
      </trkpt>
      <trkpt lat="51.834089867770672" lon="39.395352937281132">
        <ele>108.29000000000001</ele>
        <time>2016-12-11T07:56:24Z</time>
      </trkpt>
      <trkpt lat="51.83410931378603" lon="39.395264256745577">
        <ele>107.81</ele>
        <time>2016-12-11T07:56:25Z</time>
      </trkpt>
      <trkpt lat="51.834145272150636" lon="39.395093768835068">
        <ele>107.81</ele>
        <time>2016-12-11T07:56:27Z</time>
      </trkpt>
      <trkpt lat="51.834414834156632" lon="39.394401255995035">
        <ele>110.20999999999999</ele>
        <time>2016-12-11T07:56:38Z</time>
      </trkpt>
      <trkpt lat="51.834444757550955" lon="39.39435507170856">
        <ele>110.69</ele>
        <time>2016-12-11T07:56:39Z</time>
      </trkpt>
      <trkpt lat="51.834473507478833" lon="39.394310396164656">
        <ele>110.20999999999999</ele>
        <time>2016-12-11T07:56:40Z</time>
      </trkpt>
      <trkpt lat="51.834735106676817" lon="39.394018789753318">
        <ele>110.20999999999999</ele>
        <time>2016-12-11T07:56:47Z</time>
      </trkpt>
      <trkpt lat="51.834858572110534" lon="39.393902951851487">
        <ele>110.69</ele>
        <time>2016-12-11T07:56:50Z</time>
      </trkpt>
      <trkpt lat="51.834894698113203" lon="39.393860204145312">
        <ele>111.65000000000001</ele>
        <time>2016-12-11T07:56:51Z</time>
      </trkpt>
      <trkpt lat="51.834932500496507" lon="39.393820473924279">
        <ele>112.13</ele>
        <time>2016-12-11T07:56:52Z</time>
      </trkpt>
      <trkpt lat="51.835124026983976" lon="39.393620984628797">
        <ele>113.56999999999999</ele>
        <time>2016-12-11T07:56:57Z</time>
      </trkpt>
      <trkpt lat="51.835465589538217" lon="39.39289653673768">
        <ele>114.05</ele>
        <time>2016-12-11T07:57:09Z</time>
      </trkpt>
      <trkpt lat="51.835618307814002" lon="39.392473753541708">
        <ele>114.05</ele>
        <time>2016-12-11T07:57:15Z</time>
      </trkpt>
      <trkpt lat="51.8356494884938" lon="39.39241130836308">
        <ele>114.05</ele>
        <time>2016-12-11T07:57:16Z</time>
      </trkpt>
      <trkpt lat="51.835684273391962" lon="39.392353557050228">
        <ele>114.05</ele>
        <time>2016-12-11T07:57:17Z</time>
      </trkpt>
      <trkpt lat="51.835723416879773" lon="39.392300751060247">
        <ele>114.05</ele>
        <time>2016-12-11T07:57:18Z</time>
      </trkpt>
      <trkpt lat="51.835766164585948" lon="39.392253812402487">
        <ele>114.05</ele>
        <time>2016-12-11T07:57:19Z</time>
      </trkpt>
      <trkpt lat="51.835809666663408" lon="39.392210058867931">
        <ele>114.05</ele>
        <time>2016-12-11T07:57:20Z</time>
      </trkpt>
      <trkpt lat="51.836074031889439" lon="39.392003864049911">
        <ele>113.56999999999999</ele>
        <time>2016-12-11T07:57:26Z</time>
      </trkpt>
      <trkpt lat="51.836121305823326" lon="39.391992213204503">
        <ele>113.56999999999999</ele>
        <time>2016-12-11T07:57:27Z</time>
      </trkpt>
      <trkpt lat="51.83685053139925" lon="39.392032027244568">
        <ele>112.61</ele>
        <time>2016-12-11T07:57:42Z</time>
      </trkpt>
      <trkpt lat="51.837331568822265" lon="39.392316089943051">
        <ele>111.17</ele>
        <time>2016-12-11T07:57:53Z</time>
      </trkpt>
      <trkpt lat="51.838007485494018" lon="39.392547514289618">
        <ele>112.13</ele>
        <time>2016-12-11T07:58:07Z</time>
      </trkpt>
      <trkpt lat="51.838565468788147" lon="39.392493283376098">
        <ele>113.09</ele>
        <time>2016-12-11T07:58:17Z</time>
      </trkpt>
      <trkpt lat="51.839062096551061" lon="39.391993805766106">
        <ele>111.65000000000001</ele>
        <time>2016-12-11T07:58:28Z</time>
      </trkpt>
      <trkpt lat="51.839205930009484" lon="39.391892468556762">
        <ele>112.13</ele>
        <time>2016-12-11T07:58:31Z</time>
      </trkpt>
      <trkpt lat="51.839255215600133" lon="39.391866233199835">
        <ele>112.61</ele>
        <time>2016-12-11T07:58:32Z</time>
      </trkpt>
      <trkpt lat="51.839844463393092" lon="39.391700774431229">
        <ele>112.61</ele>
        <time>2016-12-11T07:58:44Z</time>
      </trkpt>
      <trkpt lat="51.840049149468541" lon="39.391678478568792">
        <ele>111.65000000000001</ele>
        <time>2016-12-11T07:58:48Z</time>
      </trkpt>
      <trkpt lat="51.840151408687234" lon="39.391645872965455">
        <ele>111.65000000000001</ele>
        <time>2016-12-11T07:58:50Z</time>
      </trkpt>
      <trkpt lat="51.840783571824431" lon="39.391304310411215">
        <ele>110.69</ele>
        <time>2016-12-11T07:59:03Z</time>
      </trkpt>
      <trkpt lat="51.840891111642122" lon="39.391255276277661">
        <ele>109.73</ele>
        <time>2016-12-11T07:59:05Z</time>
      </trkpt>
      <trkpt lat="51.840949701145291" lon="39.391240691766143">
        <ele>109.25</ele>
        <time>2016-12-11T07:59:06Z</time>
      </trkpt>
      <trkpt lat="51.841002926230431" lon="39.39123323187232">
        <ele>108.77</ele>
        <time>2016-12-11T07:59:07Z</time>
      </trkpt>
      <trkpt lat="51.841053301468492" lon="39.39123222604394">
        <ele>108.77</ele>
        <time>2016-12-11T07:59:08Z</time>
      </trkpt>
      <trkpt lat="51.841105353087187" lon="39.391236752271652">
        <ele>108.77</ele>
        <time>2016-12-11T07:59:09Z</time>
      </trkpt>
      <trkpt lat="51.841153632849455" lon="39.391249576583505">
        <ele>108.77</ele>
        <time>2016-12-11T07:59:10Z</time>
      </trkpt>
      <trkpt lat="51.841201493516564" lon="39.391270447522402">
        <ele>108.29000000000001</ele>
        <time>2016-12-11T07:59:11Z</time>
      </trkpt>
      <trkpt lat="51.841248264536262" lon="39.39130213111639">
        <ele>108.77</ele>
        <time>2016-12-11T07:59:12Z</time>
      </trkpt>
      <trkpt lat="51.84129654429853" lon="39.391345800831914">
        <ele>108.77</ele>
        <time>2016-12-11T07:59:13Z</time>
      </trkpt>
      <trkpt lat="51.84133811853826" lon="39.391393912956119">
        <ele>108.29000000000001</ele>
        <time>2016-12-11T07:59:14Z</time>
      </trkpt>
      <trkpt lat="51.841379357501864" lon="39.391446802765131">
        <ele>108.29000000000001</ele>
        <time>2016-12-11T07:59:15Z</time>
      </trkpt>
      <trkpt lat="51.841926611959934" lon="39.392259512096643">
        <ele>104.92</ele>
        <time>2016-12-11T07:59:30Z</time>
      </trkpt>
      <trkpt lat="51.841993667185307" lon="39.392352551221848">
        <ele>104.92</ele>
        <time>2016-12-11T07:59:32Z</time>
      </trkpt>
      <trkpt lat="51.842450397089124" lon="39.392670728266239">
        <ele>108.77</ele>
        <time>2016-12-11T07:59:44Z</time>
      </trkpt>
      <trkpt lat="51.842891788110137" lon="39.392913468182087">
        <ele>114.53</ele>
        <time>2016-12-11T07:59:56Z</time>
      </trkpt>
      <trkpt lat="51.843392020091414" lon="39.393090158700943">
        <ele>114.05</ele>
        <time>2016-12-11T08:00:10Z</time>
      </trkpt>
      <trkpt lat="51.844005575403571" lon="39.393046824261546">
        <ele>116.94</ele>
        <time>2016-12-11T08:00:25Z</time>
      </trkpt>
      <trkpt lat="51.844629356637597" lon="39.392822273075581">
        <ele>114.53</ele>
        <time>2016-12-11T08:00:39Z</time>
      </trkpt>
      <trkpt lat="51.845267890021205" lon="39.392627561464906">
        <ele>116.94</ele>
        <time>2016-12-11T08:00:54Z</time>
      </trkpt>
      <trkpt lat="51.845357660204172" lon="39.392624208703637">
        <ele>116.94</ele>
        <time>2016-12-11T08:00:56Z</time>
      </trkpt>
      <trkpt lat="51.845402335748076" lon="39.392630411311984">
        <ele>116.94</ele>
        <time>2016-12-11T08:00:57Z</time>
      </trkpt>
      <trkpt lat="51.845801984891295" lon="39.392646253108978">
        <ele>117.42</ele>
        <time>2016-12-11T08:01:08Z</time>
      </trkpt>
      <trkpt lat="51.846057968214154" lon="39.392514824867249">
        <ele>116.45999999999999</ele>
        <time>2016-12-11T08:01:14Z</time>
      </trkpt>
      <trkpt lat="51.846107672899961" lon="39.39250510185957">
        <ele>116.45999999999999</ele>
        <time>2016-12-11T08:01:15Z</time>
      </trkpt>
      <trkpt lat="51.846157796680927" lon="39.392498983070254">
        <ele>116.45999999999999</ele>
        <time>2016-12-11T08:01:16Z</time>
      </trkpt>
      <trkpt lat="51.846207585185766" lon="39.392495378851891">
        <ele>115.98</ele>
        <time>2016-12-11T08:01:17Z</time>
      </trkpt>
      <trkpt lat="51.846252596005797" lon="39.392497725784779">
        <ele>115.98</ele>
        <time>2016-12-11T08:01:18Z</time>
      </trkpt>
      <trkpt lat="51.846767077222466" lon="39.392661927267909">
        <ele>116.94</ele>
        <time>2016-12-11T08:01:31Z</time>
      </trkpt>
      <trkpt lat="51.846897080540657" lon="39.392679193988442">
        <ele>115.98</ele>
        <time>2016-12-11T08:01:34Z</time>
      </trkpt>
      <trkpt lat="51.847030771896243" lon="39.392665112391114">
        <ele>115.5</ele>
        <time>2016-12-11T08:01:37Z</time>
      </trkpt>
      <trkpt lat="51.847157087177038" lon="39.392603002488613">
        <ele>115.01000000000001</ele>
        <time>2016-12-11T08:01:40Z</time>
      </trkpt>
      <trkpt lat="51.847198409959674" lon="39.392573498189449">
        <ele>115.01000000000001</ele>
        <time>2016-12-11T08:01:41Z</time>
      </trkpt>
      <trkpt lat="51.847469732165337" lon="39.392368560656905">
        <ele>115.01000000000001</ele>
        <time>2016-12-11T08:01:48Z</time>
      </trkpt>
      <trkpt lat="51.848023189231753" lon="39.391970001161098">
        <ele>112.13</ele>
        <time>2016-12-11T08:02:03Z</time>
      </trkpt>
      <trkpt lat="51.848546974360943" lon="39.391915937885642">
        <ele>114.05</ele>
        <time>2016-12-11T08:02:15Z</time>
      </trkpt>
      <trkpt lat="51.849123146384954" lon="39.392064884305">
        <ele>113.56999999999999</ele>
        <time>2016-12-11T08:02:27Z</time>
      </trkpt>
      <trkpt lat="51.849732929840684" lon="39.392131017521024">
        <ele>114.05</ele>
        <time>2016-12-11T08:02:40Z</time>
      </trkpt>
      <trkpt lat="51.850074827671051" lon="39.392128586769104">
        <ele>112.61</ele>
        <time>2016-12-11T08:02:47Z</time>
      </trkpt>
      <trkpt lat="51.850532731041312" lon="39.392295721918344">
        <ele>113.09</ele>
        <time>2016-12-11T08:02:57Z</time>
      </trkpt>
      <trkpt lat="51.850612107664347" lon="39.392368476837873">
        <ele>112.61</ele>
        <time>2016-12-11T08:02:59Z</time>
      </trkpt>
      <trkpt lat="51.850991975516081" lon="39.392953785136342">
        <ele>113.09</ele>
        <time>2016-12-11T08:03:11Z</time>
      </trkpt>
      <trkpt lat="51.851478880271316" lon="39.393178168684244">
        <ele>112.61</ele>
        <time>2016-12-11T08:03:23Z</time>
      </trkpt>
      <trkpt lat="51.851837877184153" lon="39.393186382949352">
        <ele>114.53</ele>
        <time>2016-12-11T08:03:31Z</time>
      </trkpt>
      <trkpt lat="51.852367194369435" lon="39.393030731007457">
        <ele>114.05</ele>
        <time>2016-12-11T08:03:43Z</time>
      </trkpt>
      <trkpt lat="51.85290833003819" lon="39.392883125692606">
        <ele>115.5</ele>
        <time>2016-12-11T08:03:55Z</time>
      </trkpt>
      <trkpt lat="51.853260537609458" lon="39.392869463190436">
        <ele>115.01000000000001</ele>
        <time>2016-12-11T08:04:03Z</time>
      </trkpt>
      <trkpt lat="51.853471761569381" lon="39.392908606678247">
        <ele>115.5</ele>
        <time>2016-12-11T08:04:08Z</time>
      </trkpt>
      <trkpt lat="51.853553904220462" lon="39.392950851470232">
        <ele>115.5</ele>
        <time>2016-12-11T08:04:10Z</time>
      </trkpt>
      <trkpt lat="51.854154132306576" lon="39.39339391887188">
        <ele>114.05</ele>
        <time>2016-12-11T08:04:24Z</time>
      </trkpt>
      <trkpt lat="51.854298133403063" lon="39.393471200019121">
        <ele>113.56999999999999</ele>
        <time>2016-12-11T08:04:27Z</time>
      </trkpt>
      <trkpt lat="51.854343898594379" lon="39.393484611064196">
        <ele>113.09</ele>
        <time>2016-12-11T08:04:28Z</time>
      </trkpt>
      <trkpt lat="51.85438740067184" lon="39.393492238596082">
        <ele>113.09</ele>
        <time>2016-12-11T08:04:29Z</time>
      </trkpt>
      <trkpt lat="51.854428723454475" lon="39.393493412062526">
        <ele>113.09</ele>
        <time>2016-12-11T08:04:30Z</time>
      </trkpt>
      <trkpt lat="51.854472728446126" lon="39.393489472568035">
        <ele>113.09</ele>
        <time>2016-12-11T08:04:31Z</time>
      </trkpt>
      <trkpt lat="51.854514637961984" lon="39.393482180312276">
        <ele>113.09</ele>
        <time>2016-12-11T08:04:32Z</time>
      </trkpt>
      <trkpt lat="51.854557134211063" lon="39.393470361828804">
        <ele>113.09</ele>
        <time>2016-12-11T08:04:33Z</time>
      </trkpt>
      <trkpt lat="51.854604575783014" lon="39.393448401242495">
        <ele>113.09</ele>
        <time>2016-12-11T08:04:34Z</time>
      </trkpt>
      <trkpt lat="51.85515602119267" lon="39.393069874495268">
        <ele>111.17</ele>
        <time>2016-12-11T08:04:47Z</time>
      </trkpt>
      <trkpt lat="51.855463217943907" lon="39.392862925305963">
        <ele>111.65000000000001</ele>
        <time>2016-12-11T08:04:55Z</time>
      </trkpt>
      <trkpt lat="51.85591391287744" lon="39.392218189314008">
        <ele>112.13</ele>
        <time>2016-12-11T08:05:09Z</time>
      </trkpt>
      <trkpt lat="51.856500646099448" lon="39.391490891575813">
        <ele>109.25</ele>
        <time>2016-12-11T08:05:26Z</time>
      </trkpt>
      <trkpt lat="51.857053432613611" lon="39.391342280432582">
        <ele>110.69</ele>
        <time>2016-12-11T08:05:40Z</time>
      </trkpt>
      <trkpt lat="51.857607308775187" lon="39.391047740355134">
        <ele>109.25</ele>
        <time>2016-12-11T08:05:54Z</time>
      </trkpt>
      <trkpt lat="51.858249446377158" lon="39.390587490051985">
        <ele>106.84</ele>
        <time>2016-12-11T08:06:10Z</time>
      </trkpt>
      <trkpt lat="51.858845315873623" lon="39.390091951936483">
        <ele>103.95999999999999</ele>
        <time>2016-12-11T08:06:24Z</time>
      </trkpt>
      <trkpt lat="51.859172461554408" lon="39.38974292948842">
        <ele>103.48</ele>
        <time>2016-12-11T08:06:33Z</time>
      </trkpt>
      <trkpt lat="51.859730193391442" lon="39.389609908685088">
        <ele>103</ele>
        <time>2016-12-11T08:06:48Z</time>
      </trkpt>
      <trkpt lat="51.860180217772722" lon="39.389329869300127">
        <ele>103</ele>
        <time>2016-12-11T08:07:03Z</time>
      </trkpt>
      <trkpt lat="51.86025339178741" lon="39.389302376657724">
        <ele>102.52</ele>
        <time>2016-12-11T08:07:06Z</time>
      </trkpt>
      <trkpt lat="51.86028029769659" lon="39.389322074130177">
        <ele>102.52</ele>
        <time>2016-12-11T08:07:07Z</time>
      </trkpt>
      <trkpt lat="51.860297480598092" lon="39.389349650591612">
        <ele>103</ele>
        <time>2016-12-11T08:07:08Z</time>
      </trkpt>
      <trkpt lat="51.860311478376389" lon="39.38939206302166">
        <ele>103</ele>
        <time>2016-12-11T08:07:09Z</time>
      </trkpt>
      <trkpt lat="51.86032036319375" lon="39.389443947002292">
        <ele>103</ele>
        <time>2016-12-11T08:07:10Z</time>
      </trkpt>
      <trkpt lat="51.860326481983066" lon="39.389502620324492">
        <ele>103.48</ele>
        <time>2016-12-11T08:07:11Z</time>
      </trkpt>
      <trkpt lat="51.860329834744334" lon="39.389563305303454">
        <ele>103.48</ele>
        <time>2016-12-11T08:07:12Z</time>
      </trkpt>
      <trkpt lat="51.860330421477556" lon="39.389625079929829">
        <ele>103.48</ele>
        <time>2016-12-11T08:07:13Z</time>
      </trkpt>
      <trkpt lat="51.860328493639827" lon="39.389687441289425">
        <ele>103.48</ele>
        <time>2016-12-11T08:07:14Z</time>
      </trkpt>
      <trkpt lat="51.86036042869091" lon="39.390603415668011">
        <ele>107.81</ele>
        <time>2016-12-11T08:07:30Z</time>
      </trkpt>
      <trkpt lat="51.860419940203428" lon="39.391574878245592">
        <ele>106.36</ele>
        <time>2016-12-11T08:07:45Z</time>
      </trkpt>
      <trkpt lat="51.860447265207767" lon="39.392235539853573">
        <ele>104.92</ele>
        <time>2016-12-11T08:07:54Z</time>
      </trkpt>
      <trkpt lat="51.860495544970036" lon="39.393163667991757">
        <ele>104.44</ele>
        <time>2016-12-11T08:08:07Z</time>
      </trkpt>
      <trkpt lat="51.860499987378716" lon="39.393229717388749">
        <ele>104.92</ele>
        <time>2016-12-11T08:08:08Z</time>
      </trkpt>
      <trkpt lat="51.860517337918282" lon="39.394207047298551">
        <ele>103.95999999999999</ele>
        <time>2016-12-11T08:08:23Z</time>
      </trkpt>
      <trkpt lat="51.860530916601419" lon="39.395061330869794">
        <ele>104.44</ele>
        <time>2016-12-11T08:08:37Z</time>
      </trkpt>
      <trkpt lat="51.860532173886895" lon="39.395230980589986">
        <ele>105.40000000000001</ele>
        <time>2016-12-11T08:08:46Z</time>
      </trkpt>
      <trkpt lat="51.860583974048495" lon="39.395988369360566">
        <ele>108.29000000000001</ele>
        <time>2016-12-11T08:09:00Z</time>
      </trkpt>
      <trkpt lat="51.860630745068192" lon="39.396814489737153">
        <ele>111.65000000000001</ele>
        <time>2016-12-11T08:09:16Z</time>
      </trkpt>
      <trkpt lat="51.86063158325851" lon="39.397238027304411">
        <ele>110.69</ele>
        <time>2016-12-11T08:09:23Z</time>
      </trkpt>
      <trkpt lat="51.860634097829461" lon="39.397303489968181">
        <ele>110.20999999999999</ele>
        <time>2016-12-11T08:09:24Z</time>
      </trkpt>
      <trkpt lat="51.860680198296905" lon="39.398008659482002">
        <ele>110.20999999999999</ele>
        <time>2016-12-11T08:09:37Z</time>
      </trkpt>
      <trkpt lat="51.860696626827121" lon="39.398444183170795">
        <ele>111.17</ele>
        <time>2016-12-11T08:09:49Z</time>
      </trkpt>
      <trkpt lat="51.860699057579041" lon="39.399089505895972">
        <ele>112.13</ele>
        <time>2016-12-11T08:10:01Z</time>
      </trkpt>
      <trkpt lat="51.86076452024281" lon="39.399814875796437">
        <ele>112.13</ele>
        <time>2016-12-11T08:10:15Z</time>
      </trkpt>
      <trkpt lat="51.860774578526616" lon="39.40055969171226">
        <ele>112.61</ele>
        <time>2016-12-11T08:10:29Z</time>
      </trkpt>
      <trkpt lat="51.860783966258168" lon="39.401374747976661">
        <ele>115.5</ele>
        <time>2016-12-11T08:10:45Z</time>
      </trkpt>
      <trkpt lat="51.86079578474164" lon="39.40152327530086">
        <ele>115.01000000000001</ele>
        <time>2016-12-11T08:10:50Z</time>
      </trkpt>
      <trkpt lat="51.86082067899406" lon="39.401904651895165">
        <ele>113.09</ele>
        <time>2016-12-11T08:11:01Z</time>
      </trkpt>
      <trkpt lat="51.860830402001739" lon="39.402600852772593">
        <ele>114.53</ele>
        <time>2016-12-11T08:11:14Z</time>
      </trkpt>
      <trkpt lat="51.86088815331459" lon="39.40353199839592">
        <ele>116.94</ele>
        <time>2016-12-11T08:11:31Z</time>
      </trkpt>
      <trkpt lat="51.860869210213423" lon="39.404181512072682">
        <ele>118.86</ele>
        <time>2016-12-11T08:11:44Z</time>
      </trkpt>
      <trkpt lat="51.860903827473521" lon="39.404664728790522">
        <ele>121.26000000000001</ele>
        <time>2016-12-11T08:11:57Z</time>
      </trkpt>
      <trkpt lat="51.86090718023479" lon="39.40468761138618">
        <ele>121.26000000000001</ele>
        <time>2016-12-11T08:11:58Z</time>
      </trkpt>
      <trkpt lat="51.860935846343637" lon="39.40516160801053">
        <ele>118.38</ele>
        <time>2016-12-11T08:12:09Z</time>
      </trkpt>
      <trkpt lat="51.86097658239305" lon="39.405638789758086">
        <ele>118.38</ele>
        <time>2016-12-11T08:12:20Z</time>
      </trkpt>
      <trkpt lat="51.860980018973351" lon="39.405809780582786">
        <ele>117.90000000000001</ele>
        <time>2016-12-11T08:12:27Z</time>
      </trkpt>
      <trkpt lat="51.860981611534953" lon="39.405832746997476">
        <ele>117.42</ele>
        <time>2016-12-11T08:12:28Z</time>
      </trkpt>
      <trkpt lat="51.860980940982699" lon="39.405860742554069">
        <ele>117.42</ele>
        <time>2016-12-11T08:12:29Z</time>
      </trkpt>
      <trkpt lat="51.860987395048141" lon="39.405965097248554">
        <ele>117.42</ele>
        <time>2016-12-11T08:12:32Z</time>
      </trkpt>
      <trkpt lat="51.860987395048141" lon="39.405996361747384">
        <ele>117.90000000000001</ele>
        <time>2016-12-11T08:12:33Z</time>
      </trkpt>
      <trkpt lat="51.860991921275854" lon="39.406022513285279">
        <ele>117.90000000000001</ele>
        <time>2016-12-11T08:12:34Z</time>
      </trkpt>
      <trkpt lat="51.860995357856154" lon="39.406042713671923">
        <ele>117.90000000000001</ele>
        <time>2016-12-11T08:12:35Z</time>
      </trkpt>
      <trkpt lat="51.860995274037123" lon="39.406068529933691">
        <ele>117.90000000000001</ele>
        <time>2016-12-11T08:12:36Z</time>
      </trkpt>
      <trkpt lat="51.860996698960662" lon="39.406095603480935">
        <ele>117.90000000000001</ele>
        <time>2016-12-11T08:12:37Z</time>
      </trkpt>
      <trkpt lat="51.860999632626772" lon="39.406128460541368">
        <ele>117.90000000000001</ele>
        <time>2016-12-11T08:12:38Z</time>
      </trkpt>
      <trkpt lat="51.861003236845136" lon="39.406171794980764">
        <ele>118.38</ele>
        <time>2016-12-11T08:12:39Z</time>
      </trkpt>
      <trkpt lat="51.861020335927606" lon="39.406598769128323">
        <ele>120.3</ele>
        <time>2016-12-11T08:12:51Z</time>
      </trkpt>
      <trkpt lat="51.860999464988708" lon="39.406925244256854">
        <ele>120.3</ele>
        <time>2016-12-11T08:13:03Z</time>
      </trkpt>
      <trkpt lat="51.86100834980607" lon="39.407633347436786">
        <ele>120.78</ele>
        <time>2016-12-11T08:13:16Z</time>
      </trkpt>
      <trkpt lat="51.861036596819758" lon="39.408297697082162">
        <ele>122.22</ele>
        <time>2016-12-11T08:13:30Z</time>
      </trkpt>
      <trkpt lat="51.861057132482529" lon="39.408889962360263">
        <ele>121.73999999999999</ele>
        <time>2016-12-11T08:13:43Z</time>
      </trkpt>
      <trkpt lat="51.861076578497887" lon="39.409305956214666">
        <ele>118.86</ele>
        <time>2016-12-11T08:13:50Z</time>
      </trkpt>
      <trkpt lat="51.861119326204062" lon="39.410185636952519">
        <ele>117.90000000000001</ele>
        <time>2016-12-11T08:14:04Z</time>
      </trkpt>
      <trkpt lat="51.861143885180354" lon="39.410985521972179">
        <ele>118.86</ele>
        <time>2016-12-11T08:14:18Z</time>
      </trkpt>
      <trkpt lat="51.861198954284191" lon="39.411558760330081">
        <ele>120.78</ele>
        <time>2016-12-11T08:14:32Z</time>
      </trkpt>
      <trkpt lat="51.861323760822415" lon="39.412402734160423">
        <ele>120.3</ele>
        <time>2016-12-11T08:14:48Z</time>
      </trkpt>
      <trkpt lat="51.861436748877168" lon="39.413150483742356">
        <ele>120.78</ele>
        <time>2016-12-11T08:15:02Z</time>
      </trkpt>
      <trkpt lat="51.861416799947619" lon="39.413759177550673">
        <ele>122.22</ele>
        <time>2016-12-11T08:15:15Z</time>
      </trkpt>
      <trkpt lat="51.861235583201051" lon="39.414388993754983">
        <ele>120.3</ele>
        <time>2016-12-11T08:15:28Z</time>
      </trkpt>
      <trkpt lat="51.861077500507236" lon="39.415139425545931">
        <ele>120.3</ele>
        <time>2016-12-11T08:15:44Z</time>
      </trkpt>
      <trkpt lat="51.861058473587036" lon="39.415877787396312">
        <ele>116.45999999999999</ele>
        <time>2016-12-11T08:15:58Z</time>
      </trkpt>
      <trkpt lat="51.861046571284533" lon="39.416708014905453">
        <ele>116.94</ele>
        <time>2016-12-11T08:16:14Z</time>
      </trkpt>
      <trkpt lat="51.861189566552639" lon="39.417312517762184">
        <ele>116.94</ele>
        <time>2016-12-11T08:16:27Z</time>
      </trkpt>
      <trkpt lat="51.861378746107221" lon="39.417859185487032">
        <ele>116.94</ele>
        <time>2016-12-11T08:16:40Z</time>
      </trkpt>
      <trkpt lat="51.861567758023739" lon="39.418862499296665">
        <ele>118.38</ele>
        <time>2016-12-11T08:16:59Z</time>
      </trkpt>
      <trkpt lat="51.861685775220394" lon="39.419682417064905">
        <ele>120.3</ele>
        <time>2016-12-11T08:17:16Z</time>
      </trkpt>
      <trkpt lat="51.861863806843758" lon="39.420309634879231">
        <ele>119.34</ele>
        <time>2016-12-11T08:17:31Z</time>
      </trkpt>
      <trkpt lat="51.861992217600346" lon="39.4209951069206">
        <ele>118.86</ele>
        <time>2016-12-11T08:17:45Z</time>
      </trkpt>
      <trkpt lat="51.862113922834396" lon="39.421700108796358">
        <ele>118.86</ele>
        <time>2016-12-11T08:17:59Z</time>
      </trkpt>
      <trkpt lat="51.862193718552589" lon="39.422398908063769">
        <ele>118.38</ele>
        <time>2016-12-11T08:18:13Z</time>
      </trkpt>
      <trkpt lat="51.862182151526213" lon="39.423165349289775">
        <ele>119.34</ele>
        <time>2016-12-11T08:18:28Z</time>
      </trkpt>
      <trkpt lat="51.862118532881141" lon="39.423922402784228">
        <ele>117.42</ele>
        <time>2016-12-11T08:18:43Z</time>
      </trkpt>
      <trkpt lat="51.862114928662777" lon="39.424045952036977">
        <ele>116.94</ele>
        <time>2016-12-11T08:18:45Z</time>
      </trkpt>
      <trkpt lat="51.862088106572628" lon="39.424913227558136">
        <ele>114.53</ele>
        <time>2016-12-11T08:19:00Z</time>
      </trkpt>
      <trkpt lat="51.86207352206111" lon="39.4255246873945">
        <ele>111.65000000000001</ele>
        <time>2016-12-11T08:19:12Z</time>
      </trkpt>
      <trkpt lat="51.862044772133231" lon="39.42614771425724">
        <ele>114.05</ele>
        <time>2016-12-11T08:19:25Z</time>
      </trkpt>
      <trkpt lat="51.862076288089156" lon="39.426404451951385">
        <ele>114.53</ele>
        <time>2016-12-11T08:19:30Z</time>
      </trkpt>
      <trkpt lat="51.862300084903836" lon="39.427014486864209">
        <ele>114.53</ele>
        <time>2016-12-11T08:19:43Z</time>
      </trkpt>
      <trkpt lat="51.862449115142226" lon="39.427309948951006">
        <ele>114.53</ele>
        <time>2016-12-11T08:19:51Z</time>
      </trkpt>
      <trkpt lat="51.8625817168504" lon="39.427935238927603">
        <ele>114.05</ele>
        <time>2016-12-11T08:20:03Z</time>
      </trkpt>
      <trkpt lat="51.862582555040717" lon="39.428590955212712">
        <ele>111.17</ele>
        <time>2016-12-11T08:20:17Z</time>
      </trkpt>
      <trkpt lat="51.86264818534255" lon="39.429241977632046">
        <ele>107.31999999999999</ele>
        <time>2016-12-11T08:20:29Z</time>
      </trkpt>
      <trkpt lat="51.862671067938209" lon="39.429930970072746">
        <ele>108.29000000000001</ele>
        <time>2016-12-11T08:20:43Z</time>
      </trkpt>
      <trkpt lat="51.862465040758252" lon="39.430631278082728">
        <ele>108.77</ele>
        <time>2016-12-11T08:20:58Z</time>
      </trkpt>
      <trkpt lat="51.86228659003973" lon="39.431258160620928">
        <ele>107.81</ele>
        <time>2016-12-11T08:21:12Z</time>
      </trkpt>
      <trkpt lat="51.862107384949923" lon="39.431837685406208">
        <ele>107.81</ele>
        <time>2016-12-11T08:21:25Z</time>
      </trkpt>
      <trkpt lat="51.861892640590668" lon="39.432653160765767">
        <ele>108.29000000000001</ele>
        <time>2016-12-11T08:21:42Z</time>
      </trkpt>
      <trkpt lat="51.861708154901862" lon="39.433324802666903">
        <ele>107.81</ele>
        <time>2016-12-11T08:21:56Z</time>
      </trkpt>
      <trkpt lat="51.861531799659133" lon="39.433998120948672">
        <ele>109.73</ele>
        <time>2016-12-11T08:22:10Z</time>
      </trkpt>
      <trkpt lat="51.861318815499544" lon="39.434754503890872">
        <ele>112.61</ele>
        <time>2016-12-11T08:22:26Z</time>
      </trkpt>
      <trkpt lat="51.861119577661157" lon="39.435449950397015">
        <ele>114.53</ele>
        <time>2016-12-11T08:22:41Z</time>
      </trkpt>
      <trkpt lat="51.860893601551652" lon="39.436254277825356">
        <ele>115.98</ele>
        <time>2016-12-11T08:22:58Z</time>
      </trkpt>
      <trkpt lat="51.860716743394732" lon="39.436980402097106">
        <ele>116.45999999999999</ele>
        <time>2016-12-11T08:23:13Z</time>
      </trkpt>
      <trkpt lat="51.860512057319283" lon="39.437743742018938">
        <ele>118.38</ele>
        <time>2016-12-11T08:23:28Z</time>
      </trkpt>
      <trkpt lat="51.860301839187741" lon="39.438523091375828">
        <ele>119.34</ele>
        <time>2016-12-11T08:23:43Z</time>
      </trkpt>
      <trkpt lat="51.86016982421279" lon="39.438968170434237">
        <ele>121.26000000000001</ele>
        <time>2016-12-11T08:23:55Z</time>
      </trkpt>
      <trkpt lat="51.860147109255195" lon="39.439058024436235">
        <ele>121.26000000000001</ele>
        <time>2016-12-11T08:23:58Z</time>
      </trkpt>
      <trkpt lat="51.860134620219469" lon="39.439091552048922">
        <ele>121.26000000000001</ele>
        <time>2016-12-11T08:23:59Z</time>
      </trkpt>
      <trkpt lat="51.860120957717299" lon="39.439126923680305">
        <ele>121.26000000000001</ele>
        <time>2016-12-11T08:24:00Z</time>
      </trkpt>
      <trkpt lat="51.860105283558369" lon="39.439164893701673">
        <ele>121.26000000000001</ele>
        <time>2016-12-11T08:24:01Z</time>
      </trkpt>
      <trkpt lat="51.860091788694263" lon="39.439204456284642">
        <ele>121.26000000000001</ele>
        <time>2016-12-11T08:24:02Z</time>
      </trkpt>
      <trkpt lat="51.860077455639839" lon="39.439248377457261">
        <ele>121.26000000000001</ele>
        <time>2016-12-11T08:24:03Z</time>
      </trkpt>
      <trkpt lat="51.860062871128321" lon="39.439294813200831">
        <ele>121.26000000000001</ele>
        <time>2016-12-11T08:24:04Z</time>
      </trkpt>
      <trkpt lat="51.860048538073897" lon="39.439346445724368">
        <ele>121.26000000000001</ele>
        <time>2016-12-11T08:24:05Z</time>
      </trkpt>
      <trkpt lat="51.859904704615474" lon="39.440230987966061">
        <ele>121.26000000000001</ele>
        <time>2016-12-11T08:24:21Z</time>
      </trkpt>
      <trkpt lat="51.859869668260217" lon="39.441128689795732">
        <ele>120.3</ele>
        <time>2016-12-11T08:24:37Z</time>
      </trkpt>
      <trkpt lat="51.859722314402461" lon="39.442055728286505">
        <ele>121.26000000000001</ele>
        <time>2016-12-11T08:24:54Z</time>
      </trkpt>
      <trkpt lat="51.859701108187437" lon="39.442835999652743">
        <ele>118.86</ele>
        <time>2016-12-11T08:25:07Z</time>
      </trkpt>
      <trkpt lat="51.859599687159061" lon="39.443548209965229">
        <ele>114.53</ele>
        <time>2016-12-11T08:25:20Z</time>
      </trkpt>
      <trkpt lat="51.859426768496633" lon="39.444476254284382">
        <ele>117.90000000000001</ele>
        <time>2016-12-11T08:25:37Z</time>
      </trkpt>
      <trkpt lat="51.859056456014514" lon="39.445264404639602">
        <ele>120.3</ele>
        <time>2016-12-11T08:25:54Z</time>
      </trkpt>
      <trkpt lat="51.8586858920753" lon="39.445867063477635">
        <ele>125.11</ele>
        <time>2016-12-11T08:26:10Z</time>
      </trkpt>
      <trkpt lat="51.85854566283524" lon="39.446449438109994">
        <ele>126.55</ele>
        <time>2016-12-11T08:26:24Z</time>
      </trkpt>
      <trkpt lat="51.858529234305024" lon="39.446519427001476">
        <ele>126.06999999999999</ele>
        <time>2016-12-11T08:26:25Z</time>
      </trkpt>
      <trkpt lat="51.858509201556444" lon="39.446587488055229">
        <ele>125.59</ele>
        <time>2016-12-11T08:26:26Z</time>
      </trkpt>
      <trkpt lat="51.858297223225236" lon="39.447383852675557">
        <ele>123.67</ele>
        <time>2016-12-11T08:26:40Z</time>
      </trkpt>
      <trkpt lat="51.858166046440601" lon="39.448115676641464">
        <ele>123.19</ele>
        <time>2016-12-11T08:26:55Z</time>
      </trkpt>
      <trkpt lat="51.857923222705722" lon="39.448764268308878">
        <ele>123.67</ele>
        <time>2016-12-11T08:27:10Z</time>
      </trkpt>
      <trkpt lat="51.857779892161489" lon="39.449380422011018">
        <ele>123.67</ele>
        <time>2016-12-11T08:27:23Z</time>
      </trkpt>
      <trkpt lat="51.857517873868346" lon="39.449866572394967">
        <ele>123.67</ele>
        <time>2016-12-11T08:27:36Z</time>
      </trkpt>
      <trkpt lat="51.857103304937482" lon="39.450312657281756">
        <ele>123.67</ele>
        <time>2016-12-11T08:27:52Z</time>
      </trkpt>
      <trkpt lat="51.856663590297103" lon="39.45066855289042">
        <ele>125.59</ele>
        <time>2016-12-11T08:28:08Z</time>
      </trkpt>
      <trkpt lat="51.856319177895784" lon="39.451120924204588">
        <ele>125.59</ele>
        <time>2016-12-11T08:28:22Z</time>
      </trkpt>
      <trkpt lat="51.855980465188622" lon="39.45161109790206">
        <ele>126.06999999999999</ele>
        <time>2016-12-11T08:28:36Z</time>
      </trkpt>
      <trkpt lat="51.855669496580958" lon="39.451955845579505">
        <ele>126.06999999999999</ele>
        <time>2016-12-11T08:28:48Z</time>
      </trkpt>
      <trkpt lat="51.855220980942249" lon="39.452415257692337">
        <ele>126.55</ele>
        <time>2016-12-11T08:29:04Z</time>
      </trkpt>
      <trkpt lat="51.855161469429731" lon="39.452502094209194">
        <ele>127.03</ele>
        <time>2016-12-11T08:29:06Z</time>
      </trkpt>
      <trkpt lat="51.855131713673472" lon="39.452542662620544">
        <ele>127.03</ele>
        <time>2016-12-11T08:29:07Z</time>
      </trkpt>
      <trkpt lat="51.855103466659784" lon="39.45258884690702">
        <ele>127.03</ele>
        <time>2016-12-11T08:29:08Z</time>
      </trkpt>
      <trkpt lat="51.854797275736928" lon="39.453036189079285">
        <ele>127.03</ele>
        <time>2016-12-11T08:29:18Z</time>
      </trkpt>
      <trkpt lat="51.854737093672156" lon="39.453138113021851">
        <ele>127.03</ele>
        <time>2016-12-11T08:29:20Z</time>
      </trkpt>
      <trkpt lat="51.854493599385023" lon="39.453874295577407">
        <ele>127.51000000000001</ele>
        <time>2016-12-11T08:29:32Z</time>
      </trkpt>
      <trkpt lat="51.854337779805064" lon="39.454780630767345">
        <ele>125.11</ele>
        <time>2016-12-11T08:29:47Z</time>
      </trkpt>
      <trkpt lat="51.854306012392044" lon="39.454863946884871">
        <ele>125.59</ele>
        <time>2016-12-11T08:30:14Z</time>
      </trkpt>
      <trkpt lat="51.85431707650423" lon="39.454842656850815">
        <ele>123.19</ele>
        <time>2016-12-11T08:30:37Z</time>
      </trkpt>
      <trkpt lat="51.854324284940958" lon="39.454855732619762">
        <ele>123.19</ele>
        <time>2016-12-11T08:31:03Z</time>
      </trkpt>
      <trkpt lat="51.854322776198387" lon="39.454887332394719">
        <ele>127.51000000000001</ele>
        <time>2016-12-11T08:31:34Z</time>
      </trkpt>
      <trkpt lat="51.854322105646133" lon="39.454868640750647">
        <ele>123.67</ele>
        <time>2016-12-11T08:32:08Z</time>
      </trkpt>
      <trkpt lat="51.854295954108238" lon="39.454863108694553">
        <ele>125.59</ele>
        <time>2016-12-11T08:32:40Z</time>
      </trkpt>
      <trkpt lat="51.854285141453147" lon="39.454862270504236">
        <ele>122.22</ele>
        <time>2016-12-11T08:33:12Z</time>
      </trkpt>
      <trkpt lat="51.854321518912911" lon="39.454856738448143">
        <ele>122.22</ele>
        <time>2016-12-11T08:33:37Z</time>
      </trkpt>
      <trkpt lat="51.854305090382695" lon="39.454852547496557">
        <ele>123.67</ele>
        <time>2016-12-11T08:34:15Z</time>
      </trkpt>
      <trkpt lat="51.854280866682529" lon="39.454864198341966">
        <ele>127.98999999999999</ele>
        <time>2016-12-11T08:34:36Z</time>
      </trkpt>
      <trkpt lat="51.854274077340961" lon="39.45491130463779">
        <ele>127.98999999999999</ele>
        <time>2016-12-11T08:34:41Z</time>
      </trkpt>
      <trkpt lat="51.854267287999392" lon="39.454932929947972">
        <ele>127.98999999999999</ele>
        <time>2016-12-11T08:34:42Z</time>
      </trkpt>
      <trkpt lat="51.854262929409742" lon="39.454954890534282">
        <ele>127.51000000000001</ele>
        <time>2016-12-11T08:34:43Z</time>
      </trkpt>
      <trkpt lat="51.85425840318203" lon="39.454981796443462">
        <ele>127.98999999999999</ele>
        <time>2016-12-11T08:34:44Z</time>
      </trkpt>
      <trkpt lat="51.854251865297556" lon="39.455015156418085">
        <ele>127.98999999999999</ele>
        <time>2016-12-11T08:34:45Z</time>
      </trkpt>
      <trkpt lat="51.854169890284538" lon="39.455616222694516">
        <ele>126.55</ele>
        <time>2016-12-11T08:34:57Z</time>
      </trkpt>
      <trkpt lat="51.854036701843143" lon="39.456313597038388">
        <ele>125.59</ele>
        <time>2016-12-11T08:35:08Z</time>
      </trkpt>
      <trkpt lat="51.853834446519613" lon="39.457025304436684">
        <ele>122.70999999999999</ele>
        <time>2016-12-11T08:35:21Z</time>
      </trkpt>
      <trkpt lat="51.853838972747326" lon="39.457705244421959">
        <ele>121.26000000000001</ele>
        <time>2016-12-11T08:35:32Z</time>
      </trkpt>
      <trkpt lat="51.854027565568686" lon="39.458375461399555">
        <ele>121.26000000000001</ele>
        <time>2016-12-11T08:35:47Z</time>
      </trkpt>
      <trkpt lat="51.85404097661376" lon="39.458385268226266">
        <ele>121.26000000000001</ele>
        <time>2016-12-11T08:35:48Z</time>
      </trkpt>
      <trkpt lat="51.85405321419239" lon="39.458387782797217">
        <ele>121.73999999999999</ele>
        <time>2016-12-11T08:35:49Z</time>
      </trkpt>
      <trkpt lat="51.854059081524611" lon="39.458376299589872">
        <ele>120.78</ele>
        <time>2016-12-11T08:35:58Z</time>
      </trkpt>
      <trkpt lat="51.854060925543308" lon="39.458372946828604">
        <ele>119.81999999999999</ele>
        <time>2016-12-11T08:36:16Z</time>
      </trkpt>
      <trkpt lat="51.854057153686881" lon="39.458361212164164">
        <ele>118.38</ele>
        <time>2016-12-11T08:37:00Z</time>
      </trkpt>
      <trkpt lat="51.854085149243474" lon="39.458348639309406">
        <ele>117.42</ele>
        <time>2016-12-11T08:37:47Z</time>
      </trkpt>
      <trkpt lat="51.854087915271521" lon="39.458376802504063">
        <ele>115.5</ele>
        <time>2016-12-11T08:38:37Z</time>
      </trkpt>
      <trkpt lat="51.854097470641136" lon="39.458384346216917">
        <ele>120.3</ele>
        <time>2016-12-11T08:39:27Z</time>
      </trkpt>
      <trkpt lat="51.854116162285209" lon="39.458369258791208">
        <ele>119.34</ele>
        <time>2016-12-11T08:40:25Z</time>
      </trkpt>
      <trkpt lat="51.854106271639466" lon="39.458360876888037">
        <ele>122.22</ele>
        <time>2016-12-11T08:41:04Z</time>
      </trkpt>
      <trkpt lat="51.854094201698899" lon="39.458353500813246">
        <ele>114.05</ele>
        <time>2016-12-11T08:41:41Z</time>
      </trkpt>
      <trkpt lat="51.854064529761672" lon="39.458375461399555">
        <ele>115.5</ele>
        <time>2016-12-11T08:42:15Z</time>
      </trkpt>
      <trkpt lat="51.85408934019506" lon="39.458384597674012">
        <ele>118.38</ele>
        <time>2016-12-11T08:42:54Z</time>
      </trkpt>
      <trkpt lat="51.854083640500903" lon="39.458389794453979">
        <ele>119.34</ele>
        <time>2016-12-11T08:43:25Z</time>
      </trkpt>
      <trkpt lat="51.854110630229115" lon="39.458417035639286">
        <ele>120.78</ele>
        <time>2016-12-11T08:44:03Z</time>
      </trkpt>
      <trkpt lat="51.854117838665843" lon="39.458339503034949">
        <ele>118.38</ele>
        <time>2016-12-11T08:44:32Z</time>
      </trkpt>
      <trkpt lat="51.854098811745644" lon="39.458367582410574">
        <ele>117.90000000000001</ele>
        <time>2016-12-11T08:45:09Z</time>
      </trkpt>
      <trkpt lat="51.854107193648815" lon="39.458365403115749">
        <ele>119.34</ele>
        <time>2016-12-11T08:45:45Z</time>
      </trkpt>
      <trkpt lat="51.854124963283539" lon="39.458379233255982">
        <ele>119.34</ele>
        <time>2016-12-11T08:46:25Z</time>
      </trkpt>
      <trkpt lat="51.854055896401405" lon="39.458365319296718">
        <ele>121.73999999999999</ele>
        <time>2016-12-11T08:47:06Z</time>
      </trkpt>
      <trkpt lat="51.854085903614759" lon="39.458375377580523">
        <ele>121.26000000000001</ele>
        <time>2016-12-11T08:47:50Z</time>
      </trkpt>
      <trkpt lat="51.854070061817765" lon="39.458365067839622">
        <ele>123.67</ele>
        <time>2016-12-11T08:48:30Z</time>
      </trkpt>
      <trkpt lat="51.854083724319935" lon="39.458333216607571">
        <ele>121.73999999999999</ele>
        <time>2016-12-11T08:49:19Z</time>
      </trkpt>
      <trkpt lat="51.854054555296898" lon="39.4583835080266">
        <ele>122.70999999999999</ele>
        <time>2016-12-11T08:49:58Z</time>
      </trkpt>
      <trkpt lat="51.854060925543308" lon="39.458378814160824">
        <ele>125.59</ele>
        <time>2016-12-11T08:50:38Z</time>
      </trkpt>
      <trkpt lat="51.854072157293558" lon="39.458347298204899">
        <ele>123.19</ele>
        <time>2016-12-11T08:51:14Z</time>
      </trkpt>
      <trkpt lat="51.854093195870519" lon="39.458342101424932">
        <ele>126.06999999999999</ele>
        <time>2016-12-11T08:51:57Z</time>
      </trkpt>
      <trkpt lat="51.854097386822104" lon="39.458346962928772">
        <ele>122.22</ele>
        <time>2016-12-11T08:52:41Z</time>
      </trkpt>
      <trkpt lat="51.8540976382792" lon="39.458334557712078">
        <ele>118.38</ele>
        <time>2016-12-11T08:53:14Z</time>
      </trkpt>
      <trkpt lat="51.854087915271521" lon="39.458361463621259">
        <ele>119.81999999999999</ele>
        <time>2016-12-11T08:53:51Z</time>
      </trkpt>
      <trkpt lat="51.854087579995394" lon="39.4583092443645">
        <ele>123.19</ele>
        <time>2016-12-11T08:54:30Z</time>
      </trkpt>
      <trkpt lat="51.85405857861042" lon="39.458373868837953">
        <ele>124.63</ele>
        <time>2016-12-11T08:55:09Z</time>
      </trkpt>
      <trkpt lat="51.854057656601071" lon="39.458326511085033">
        <ele>124.63</ele>
        <time>2016-12-11T08:55:52Z</time>
      </trkpt>
      <trkpt lat="51.854044832289219" lon="39.458373701199889">
        <ele>124.15000000000001</ele>
        <time>2016-12-11T08:56:39Z</time>
      </trkpt>
      <trkpt lat="51.854044329375029" lon="39.45835224352777">
        <ele>122.22</ele>
        <time>2016-12-11T08:57:08Z</time>
      </trkpt>
      <trkpt lat="51.854053633287549" lon="39.458357524126768">
        <ele>122.22</ele>
        <time>2016-12-11T08:57:47Z</time>
      </trkpt>
      <trkpt lat="51.854069977998734" lon="39.458344532176852">
        <ele>124.15000000000001</ele>
        <time>2016-12-11T08:58:32Z</time>
      </trkpt>
      <trkpt lat="51.854065954685211" lon="39.458349142223597">
        <ele>123.67</ele>
        <time>2016-12-11T08:59:14Z</time>
      </trkpt>
      <trkpt lat="51.854109121486545" lon="39.458356769755483">
        <ele>125.59</ele>
        <time>2016-12-11T08:59:57Z</time>
      </trkpt>
      <trkpt lat="51.854080036282539" lon="39.458349728956819">
        <ele>126.55</ele>
        <time>2016-12-11T09:00:43Z</time>
      </trkpt>
      <trkpt lat="51.854066792875528" lon="39.458345538005233">
        <ele>123.67</ele>
        <time>2016-12-11T09:01:19Z</time>
      </trkpt>
      <trkpt lat="51.85406981036067" lon="39.458383843302727">
        <ele>124.63</ele>
        <time>2016-12-11T09:01:58Z</time>
      </trkpt>
      <trkpt lat="51.854060254991055" lon="39.458379149436951">
        <ele>123.19</ele>
        <time>2016-12-11T09:02:41Z</time>
      </trkpt>
      <trkpt lat="51.854040892794728" lon="39.458368085324764">
        <ele>124.63</ele>
        <time>2016-12-11T09:03:29Z</time>
      </trkpt>
      <trkpt lat="51.854039467871189" lon="39.458368672057986">
        <ele>123.67</ele>
        <time>2016-12-11T09:04:19Z</time>
      </trkpt>
      <trkpt lat="51.854028236120939" lon="39.458452071994543">
        <ele>123.19</ele>
        <time>2016-12-11T09:04:33Z</time>
      </trkpt>
      <trkpt lat="51.854038378223777" lon="39.458477301523089">
        <ele>123.19</ele>
        <time>2016-12-11T09:04:46Z</time>
      </trkpt>
      <trkpt lat="51.854042150080204" lon="39.458516193553805">
        <ele>122.70999999999999</ele>
        <time>2016-12-11T09:04:49Z</time>
      </trkpt>
      <trkpt lat="51.854079365730286" lon="39.458986585959792">
        <ele>121.73999999999999</ele>
        <time>2016-12-11T09:05:01Z</time>
      </trkpt>
      <trkpt lat="51.854073582217097" lon="39.459046181291342">
        <ele>121.73999999999999</ele>
        <time>2016-12-11T09:05:02Z</time>
      </trkpt>
      <trkpt lat="51.854062099009752" lon="39.459115918725729">
        <ele>121.73999999999999</ele>
        <time>2016-12-11T09:05:03Z</time>
      </trkpt>
      <trkpt lat="51.854047095403075" lon="39.45918439887464">
        <ele>121.73999999999999</ele>
        <time>2016-12-11T09:05:04Z</time>
      </trkpt>
      <trkpt lat="51.853934107348323" lon="39.459613468497992">
        <ele>122.22</ele>
        <time>2016-12-11T09:05:10Z</time>
      </trkpt>
      <trkpt lat="51.853922540321946" lon="39.459690498188138">
        <ele>122.22</ele>
        <time>2016-12-11T09:05:11Z</time>
      </trkpt>
      <trkpt lat="51.853822125121951" lon="39.46025351062417">
        <ele>121.73999999999999</ele>
        <time>2016-12-11T09:05:18Z</time>
      </trkpt>
      <trkpt lat="51.853815000504255" lon="39.460334647446871">
        <ele>121.73999999999999</ele>
        <time>2016-12-11T09:05:19Z</time>
      </trkpt>
      <trkpt lat="51.853812821209431" lon="39.460410168394446">
        <ele>121.73999999999999</ele>
        <time>2016-12-11T09:05:20Z</time>
      </trkpt>
      <trkpt lat="51.853815000504255" lon="39.460489125922322">
        <ele>121.73999999999999</ele>
        <time>2016-12-11T09:05:21Z</time>
      </trkpt>
      <trkpt lat="51.85382011346519" lon="39.460570178925991">
        <ele>121.73999999999999</ele>
        <time>2016-12-11T09:05:22Z</time>
      </trkpt>
      <trkpt lat="51.853828327730298" lon="39.460650309920311">
        <ele>121.73999999999999</ele>
        <time>2016-12-11T09:05:23Z</time>
      </trkpt>
      <trkpt lat="51.854047514498234" lon="39.462018990889192">
        <ele>122.70999999999999</ele>
        <time>2016-12-11T09:05:41Z</time>
      </trkpt>
      <trkpt lat="51.85406100936234" lon="39.462096020579338">
        <ele>122.70999999999999</ele>
        <time>2016-12-11T09:05:42Z</time>
      </trkpt>
      <trkpt lat="51.8542237021029" lon="39.463149877265096">
        <ele>122.22</ele>
        <time>2016-12-11T09:05:56Z</time>
      </trkpt>
      <trkpt lat="51.854197550565004" lon="39.463544161990285">
        <ele>122.70999999999999</ele>
        <time>2016-12-11T09:06:01Z</time>
      </trkpt>
      <trkpt lat="51.853920863941312" lon="39.464931534603238">
        <ele>124.15000000000001</ele>
        <time>2016-12-11T09:06:19Z</time>
      </trkpt>
      <trkpt lat="51.853840481489897" lon="39.46522674523294">
        <ele>125.11</ele>
        <time>2016-12-11T09:06:23Z</time>
      </trkpt>
      <trkpt lat="51.853824304416776" lon="39.465302182361484">
        <ele>125.59</ele>
        <time>2016-12-11T09:06:24Z</time>
      </trkpt>
      <trkpt lat="51.853718860074878" lon="39.466310022398829">
        <ele>126.55</ele>
        <time>2016-12-11T09:06:37Z</time>
      </trkpt>
      <trkpt lat="51.853833273053169" lon="39.467578204348683">
        <ele>124.15000000000001</ele>
        <time>2016-12-11T09:06:53Z</time>
      </trkpt>
      <trkpt lat="51.853737970814109" lon="39.468878740444779">
        <ele>126.06999999999999</ele>
        <time>2016-12-11T09:07:10Z</time>
      </trkpt>
      <trkpt lat="51.853627245873213" lon="39.470170391723514">
        <ele>129.43000000000001</ele>
        <time>2016-12-11T09:07:26Z</time>
      </trkpt>
      <trkpt lat="51.853618612512946" lon="39.47047172114253">
        <ele>129.43000000000001</ele>
        <time>2016-12-11T09:07:30Z</time>
      </trkpt>
      <trkpt lat="51.853626742959023" lon="39.470706582069397">
        <ele>129.43000000000001</ele>
        <time>2016-12-11T09:07:33Z</time>
      </trkpt>
      <trkpt lat="51.853679297491908" lon="39.471174040809274">
        <ele>128.47</ele>
        <time>2016-12-11T09:07:39Z</time>
      </trkpt>
      <trkpt lat="51.853745598345995" lon="39.471540581434965">
        <ele>127.51000000000001</ele>
        <time>2016-12-11T09:07:44Z</time>
      </trkpt>
      <trkpt lat="51.853831261396408" lon="39.471969986334443">
        <ele>126.06999999999999</ele>
        <time>2016-12-11T09:07:50Z</time>
      </trkpt>
      <trkpt lat="51.853853054344654" lon="39.472125889733434">
        <ele>126.55</ele>
        <time>2016-12-11T09:07:52Z</time>
      </trkpt>
      <trkpt lat="51.853856993839145" lon="39.47220048867166">
        <ele>126.55</ele>
        <time>2016-12-11T09:07:53Z</time>
      </trkpt>
      <trkpt lat="51.853857412934303" lon="39.472280535846949">
        <ele>127.03</ele>
        <time>2016-12-11T09:07:54Z</time>
      </trkpt>
      <trkpt lat="51.85383427888155" lon="39.472721004858613">
        <ele>127.51000000000001</ele>
        <time>2016-12-11T09:08:00Z</time>
      </trkpt>
      <trkpt lat="51.853832602500916" lon="39.472862994298339">
        <ele>127.51000000000001</ele>
        <time>2016-12-11T09:08:02Z</time>
      </trkpt>
      <trkpt lat="51.853870823979378" lon="39.473497672006488">
        <ele>127.03</ele>
        <time>2016-12-11T09:08:11Z</time>
      </trkpt>
      <trkpt lat="51.853868812322617" lon="39.473570678383112">
        <ele>127.03</ele>
        <time>2016-12-11T09:08:12Z</time>
      </trkpt>
      <trkpt lat="51.85385481454432" lon="39.473786512389779">
        <ele>127.51000000000001</ele>
        <time>2016-12-11T09:08:15Z</time>
      </trkpt>
      <trkpt lat="51.853847773745656" lon="39.4738544896245">
        <ele>127.98999999999999</ele>
        <time>2016-12-11T09:08:16Z</time>
      </trkpt>
      <trkpt lat="51.853840313851833" lon="39.473925903439522">
        <ele>127.98999999999999</ele>
        <time>2016-12-11T09:08:17Z</time>
      </trkpt>
      <trkpt lat="51.853835117071867" lon="39.474000418558717">
        <ele>127.98999999999999</ele>
        <time>2016-12-11T09:08:18Z</time>
      </trkpt>
      <trkpt lat="51.853830758482218" lon="39.47407484985888">
        <ele>128.47</ele>
        <time>2016-12-11T09:08:19Z</time>
      </trkpt>
      <trkpt lat="51.853824220597744" lon="39.47414861060679">
        <ele>128.47</ele>
        <time>2016-12-11T09:08:20Z</time>
      </trkpt>
      <trkpt lat="51.85355138964951" lon="39.475079756230116">
        <ele>130.40000000000001</ele>
        <time>2016-12-11T09:08:34Z</time>
      </trkpt>
      <trkpt lat="51.853079320862889" lon="39.476039651781321">
        <ele>131.84</ele>
        <time>2016-12-11T09:08:52Z</time>
      </trkpt>
      <trkpt lat="51.852668356150389" lon="39.477012623101473">
        <ele>131.36000000000001</ele>
        <time>2016-12-11T09:09:11Z</time>
      </trkpt>
      <trkpt lat="51.852460065856576" lon="39.477776968851686">
        <ele>130.88</ele>
        <time>2016-12-11T09:09:24Z</time>
      </trkpt>
      <trkpt lat="51.852346993982792" lon="39.478972898796201">
        <ele>129.91999999999999</ele>
        <time>2016-12-11T09:09:41Z</time>
      </trkpt>
      <trkpt lat="51.852322518825531" lon="39.479390317574143">
        <ele>129.91999999999999</ele>
        <time>2016-12-11T09:09:47Z</time>
      </trkpt>
      <trkpt lat="51.852316064760089" lon="39.47945561259985">
        <ele>129.91999999999999</ele>
        <time>2016-12-11T09:09:48Z</time>
      </trkpt>
      <trkpt lat="51.852272730320692" lon="39.479911671951413">
        <ele>130.88</ele>
        <time>2016-12-11T09:09:55Z</time>
      </trkpt>
      <trkpt lat="51.852247500792146" lon="39.480047794058919">
        <ele>131.84</ele>
        <time>2016-12-11T09:09:57Z</time>
      </trkpt>
      <trkpt lat="51.852014232426882" lon="39.480954129248857">
        <ele>132.80000000000001</ele>
        <time>2016-12-11T09:10:11Z</time>
      </trkpt>
      <trkpt lat="51.851943489164114" lon="39.481376158073545">
        <ele>133.75999999999999</ele>
        <time>2016-12-11T09:10:17Z</time>
      </trkpt>
      <trkpt lat="51.85199704952538" lon="39.482100773602724">
        <ele>134.72</ele>
        <time>2016-12-11T09:10:28Z</time>
      </trkpt>
      <trkpt lat="51.852003838866949" lon="39.482166990637779">
        <ele>134.24000000000001</ele>
        <time>2016-12-11T09:10:29Z</time>
      </trkpt>
      <trkpt lat="51.852009119465947" lon="39.482229854911566">
        <ele>134.24000000000001</ele>
        <time>2016-12-11T09:10:30Z</time>
      </trkpt>
      <trkpt lat="51.852013729512691" lon="39.482288947328925">
        <ele>133.75999999999999</ele>
        <time>2016-12-11T09:10:31Z</time>
      </trkpt>
      <trkpt lat="51.852020686492324" lon="39.482342759147286">
        <ele>133.75999999999999</ele>
        <time>2016-12-11T09:10:32Z</time>
      </trkpt>
      <trkpt lat="51.852001575753093" lon="39.482726817950606">
        <ele>136.16</ele>
        <time>2016-12-11T09:10:43Z</time>
      </trkpt>
      <trkpt lat="51.851951116696" lon="39.482870232313871">
        <ele>136.63999999999999</ele>
        <time>2016-12-11T09:10:57Z</time>
      </trkpt>
      <trkpt lat="51.851927731186152" lon="39.482882553711534">
        <ele>136.63999999999999</ele>
        <time>2016-12-11T09:11:21Z</time>
      </trkpt>
      <trkpt lat="51.851903423666954" lon="39.482891270890832">
        <ele>137.13</ele>
        <time>2016-12-11T09:11:26Z</time>
      </trkpt>
      <trkpt lat="51.85189152136445" lon="39.48289412073791">
        <ele>137.13</ele>
        <time>2016-12-11T09:11:27Z</time>
      </trkpt>
      <trkpt lat="51.851876936852932" lon="39.482895294204354">
        <ele>137.13</ele>
        <time>2016-12-11T09:11:28Z</time>
      </trkpt>
      <trkpt lat="51.851857155561447" lon="39.482892444357276">
        <ele>137.13</ele>
        <time>2016-12-11T09:11:29Z</time>
      </trkpt>
      <trkpt lat="51.85183578170836" lon="39.482883391901851">
        <ele>137.61000000000001</ele>
        <time>2016-12-11T09:11:30Z</time>
      </trkpt>
      <trkpt lat="51.851813402026892" lon="39.482869226485491">
        <ele>137.61000000000001</ele>
        <time>2016-12-11T09:11:31Z</time>
      </trkpt>
      <trkpt lat="51.851342590525746" lon="39.482645513489842">
        <ele>135.19999999999999</ele>
        <time>2016-12-11T09:11:45Z</time>
      </trkpt>
      <trkpt lat="51.851023826748133" lon="39.482502350583673">
        <ele>134.24000000000001</ele>
        <time>2016-12-11T09:11:58Z</time>
      </trkpt>
      <trkpt lat="51.850576400756836" lon="39.48227503336966">
        <ele>131.84</ele>
        <time>2016-12-11T09:12:13Z</time>
      </trkpt>
      <trkpt lat="51.850168621167541" lon="39.48205660097301">
        <ele>131.84</ele>
        <time>2016-12-11T09:12:26Z</time>
      </trkpt>
      <trkpt lat="51.849933592602611" lon="39.481924921274185">
        <ele>131.36000000000001</ele>
        <time>2016-12-11T09:12:32Z</time>
      </trkpt>
      <trkpt lat="51.84989302419126" lon="39.481908492743969">
        <ele>131.36000000000001</ele>
        <time>2016-12-11T09:12:33Z</time>
      </trkpt>
      <trkpt lat="51.849391702562571" lon="39.481672877445817">
        <ele>130.40000000000001</ele>
        <time>2016-12-11T09:12:45Z</time>
      </trkpt>
      <trkpt lat="51.849345937371254" lon="39.48165594600141">
        <ele>130.40000000000001</ele>
        <time>2016-12-11T09:12:46Z</time>
      </trkpt>
      <trkpt lat="51.848785607144237" lon="39.481351934373379">
        <ele>130.40000000000001</ele>
        <time>2016-12-11T09:13:00Z</time>
      </trkpt>
      <trkpt lat="51.848521493375301" lon="39.481510771438479">
        <ele>132.31999999999999</ele>
        <time>2016-12-11T09:13:10Z</time>
      </trkpt>
      <trkpt lat="51.848350670188665" lon="39.482378549873829">
        <ele>132.80000000000001</ele>
        <time>2016-12-11T09:13:24Z</time>
      </trkpt>
      <trkpt lat="51.848290236666799" lon="39.482788173481822">
        <ele>132.80000000000001</ele>
        <time>2016-12-11T09:13:30Z</time>
      </trkpt>
      <trkpt lat="51.8481261190027" lon="39.483626699075103">
        <ele>132.80000000000001</ele>
        <time>2016-12-11T09:13:43Z</time>
      </trkpt>
      <trkpt lat="51.847979016602039" lon="39.48436388745904">
        <ele>134.24000000000001</ele>
        <time>2016-12-11T09:13:55Z</time>
      </trkpt>
      <trkpt lat="51.847757734358311" lon="39.48551170527935">
        <ele>134.24000000000001</ele>
        <time>2016-12-11T09:14:14Z</time>
      </trkpt>
      <trkpt lat="51.847596131265163" lon="39.486376047134399">
        <ele>134.72</ele>
        <time>2016-12-11T09:14:28Z</time>
      </trkpt>
      <trkpt lat="51.8474405631423" lon="39.487270228564739">
        <ele>136.63999999999999</ele>
        <time>2016-12-11T09:14:43Z</time>
      </trkpt>
      <trkpt lat="51.847300250083208" lon="39.487981013953686">
        <ele>136.16</ele>
        <time>2016-12-11T09:14:54Z</time>
      </trkpt>
      <trkpt lat="51.847289269790053" lon="39.488048991188407">
        <ele>135.68000000000001</ele>
        <time>2016-12-11T09:14:55Z</time>
      </trkpt>
      <trkpt lat="51.847205869853497" lon="39.488451154902577">
        <ele>136.16</ele>
        <time>2016-12-11T09:15:01Z</time>
      </trkpt>
      <trkpt lat="51.84702767059207" lon="39.489377439022064">
        <ele>136.16</ele>
        <time>2016-12-11T09:15:15Z</time>
      </trkpt>
      <trkpt lat="51.846849722787738" lon="39.490355858579278">
        <ele>135.19999999999999</ele>
        <time>2016-12-11T09:15:30Z</time>
      </trkpt>
      <trkpt lat="51.846655514091253" lon="39.491364536806941">
        <ele>136.16</ele>
        <time>2016-12-11T09:15:46Z</time>
      </trkpt>
      <trkpt lat="51.846453426405787" lon="39.492423925548792">
        <ele>135.19999999999999</ele>
        <time>2016-12-11T09:16:03Z</time>
      </trkpt>
      <trkpt lat="51.846292829141021" lon="39.493261780589819">
        <ele>135.19999999999999</ele>
        <time>2016-12-11T09:16:16Z</time>
      </trkpt>
      <trkpt lat="51.846119994297624" lon="39.494208181276917">
        <ele>135.68000000000001</ele>
        <time>2016-12-11T09:16:30Z</time>
      </trkpt>
      <trkpt lat="51.845922013744712" lon="39.495175620540977">
        <ele>138.09</ele>
        <time>2016-12-11T09:16:46Z</time>
      </trkpt>
      <trkpt lat="51.845742892473936" lon="39.49608170427382">
        <ele>136.63999999999999</ele>
        <time>2016-12-11T09:17:01Z</time>
      </trkpt>
      <trkpt lat="51.845679609104991" lon="39.496486550197005">
        <ele>136.63999999999999</ele>
        <time>2016-12-11T09:17:07Z</time>
      </trkpt>
      <trkpt lat="51.845666700974107" lon="39.496552934870124">
        <ele>136.63999999999999</ele>
        <time>2016-12-11T09:17:08Z</time>
      </trkpt>
      <trkpt lat="51.845598639920354" lon="39.496872955933213">
        <ele>137.13</ele>
        <time>2016-12-11T09:17:13Z</time>
      </trkpt>
      <trkpt lat="51.845584893599153" lon="39.4969392567873">
        <ele>137.13</ele>
        <time>2016-12-11T09:17:14Z</time>
      </trkpt>
      <trkpt lat="51.845571147277951" lon="39.497003881260753">
        <ele>137.61000000000001</ele>
        <time>2016-12-11T09:17:15Z</time>
      </trkpt>
      <trkpt lat="51.845557987689972" lon="39.497068421915174">
        <ele>137.61000000000001</ele>
        <time>2016-12-11T09:17:16Z</time>
      </trkpt>
      <trkpt lat="51.845545163378119" lon="39.497130531817675">
        <ele>137.61000000000001</ele>
        <time>2016-12-11T09:17:17Z</time>
      </trkpt>
      <trkpt lat="51.845531668514013" lon="39.49719381518662">
        <ele>137.61000000000001</ele>
        <time>2016-12-11T09:17:18Z</time>
      </trkpt>
      <trkpt lat="51.845517503097653" lon="39.497253410518169">
        <ele>138.09</ele>
        <time>2016-12-11T09:17:19Z</time>
      </trkpt>
      <trkpt lat="51.845504343509674" lon="39.49731987901032">
        <ele>138.09</ele>
        <time>2016-12-11T09:17:20Z</time>
      </trkpt>
      <trkpt lat="51.845323881134391" lon="39.498391253873706">
        <ele>140.00999999999999</ele>
        <time>2016-12-11T09:17:36Z</time>
      </trkpt>
      <trkpt lat="51.845200583338737" lon="39.498956277966499">
        <ele>140.49000000000001</ele>
        <time>2016-12-11T09:17:45Z</time>
      </trkpt>
      <trkpt lat="51.844977205619216" lon="39.500137874856591">
        <ele>140.97</ele>
        <time>2016-12-11T09:18:03Z</time>
      </trkpt>
      <trkpt lat="51.844766736030579" lon="39.501310251653194">
        <ele>141.44999999999999</ele>
        <time>2016-12-11T09:18:21Z</time>
      </trkpt>
      <trkpt lat="51.844592057168484" lon="39.502163948491216">
        <ele>141.93000000000001</ele>
        <time>2016-12-11T09:18:34Z</time>
      </trkpt>
      <trkpt lat="51.844431040808558" lon="39.503058549016714">
        <ele>142.41</ele>
        <time>2016-12-11T09:18:48Z</time>
      </trkpt>
      <trkpt lat="51.844294583424926" lon="39.503766316920519">
        <ele>143.84999999999999</ele>
        <time>2016-12-11T09:18:59Z</time>
      </trkpt>
      <trkpt lat="51.844237502664328" lon="39.504079548642039">
        <ele>143.84999999999999</ele>
        <time>2016-12-11T09:19:04Z</time>
      </trkpt>
      <trkpt lat="51.844069864600897" lon="39.505022512748837">
        <ele>145.30000000000001</ele>
        <time>2016-12-11T09:19:18Z</time>
      </trkpt>
      <trkpt lat="51.843891832977533" lon="39.505885513499379">
        <ele>147.69999999999999</ele>
        <time>2016-12-11T09:19:31Z</time>
      </trkpt>
      <trkpt lat="51.843786220997572" lon="39.506381135433912">
        <ele>148.66</ele>
        <time>2016-12-11T09:19:38Z</time>
      </trkpt>
      <trkpt lat="51.843754118308425" lon="39.506510719656944">
        <ele>149.13999999999999</ele>
        <time>2016-12-11T09:19:40Z</time>
      </trkpt>
      <trkpt lat="51.843741210177541" lon="39.506577858701348">
        <ele>149.62</ele>
        <time>2016-12-11T09:19:41Z</time>
      </trkpt>
      <trkpt lat="51.843581115826964" lon="39.507426610216498">
        <ele>151.06</ele>
        <time>2016-12-11T09:19:54Z</time>
      </trkpt>
      <trkpt lat="51.843382883816957" lon="39.508498990908265">
        <ele>148.66</ele>
        <time>2016-12-11T09:20:11Z</time>
      </trkpt>
      <trkpt lat="51.843252461403608" lon="39.509267779067159">
        <ele>147.69999999999999</ele>
        <time>2016-12-11T09:20:23Z</time>
      </trkpt>
      <trkpt lat="51.843032436445355" lon="39.510050900280476">
        <ele>147.22</ele>
        <time>2016-12-11T09:20:37Z</time>
      </trkpt>
      <trkpt lat="51.842877790331841" lon="39.510603183880448">
        <ele>146.74000000000001</ele>
        <time>2016-12-11T09:20:52Z</time>
      </trkpt>
      <trkpt lat="51.842862283810973" lon="39.510633694007993">
        <ele>146.25999999999999</ele>
        <time>2016-12-11T09:21:06Z</time>
      </trkpt>
      <trkpt lat="51.842866139486432" lon="39.510613577440381">
        <ele>143.37</ele>
        <time>2016-12-11T09:21:36Z</time>
      </trkpt>
      <trkpt lat="51.842875778675079" lon="39.510638806968927">
        <ele>144.34</ele>
        <time>2016-12-11T09:21:46Z</time>
      </trkpt>
      <trkpt lat="51.842888686805964" lon="39.510662527754903">
        <ele>144.34</ele>
        <time>2016-12-11T09:21:48Z</time>
      </trkpt>
      <trkpt lat="51.842919364571571" lon="39.510688260197639">
        <ele>144.81999999999999</ele>
        <time>2016-12-11T09:21:52Z</time>
      </trkpt>
      <trkpt lat="51.842928500846028" lon="39.510716088116169">
        <ele>146.25999999999999</ele>
        <time>2016-12-11T09:22:00Z</time>
      </trkpt>
      <trkpt lat="51.8429334461689" lon="39.510763445869088">
        <ele>147.22</ele>
        <time>2016-12-11T09:22:11Z</time>
      </trkpt>
      <trkpt lat="51.842930344864726" lon="39.510790519416332">
        <ele>147.22</ele>
        <time>2016-12-11T09:22:12Z</time>
      </trkpt>
      <trkpt lat="51.842926573008299" lon="39.510813318192959">
        <ele>147.22</ele>
        <time>2016-12-11T09:22:13Z</time>
      </trkpt>
      <trkpt lat="51.842910060659051" lon="39.510943992063403">
        <ele>146.74000000000001</ele>
        <time>2016-12-11T09:22:23Z</time>
      </trkpt>
      <trkpt lat="51.842781566083431" lon="39.511534497141838">
        <ele>145.78</ele>
        <time>2016-12-11T09:22:34Z</time>
      </trkpt>
      <trkpt lat="51.842655250802636" lon="39.512270847335458">
        <ele>145.30000000000001</ele>
        <time>2016-12-11T09:22:46Z</time>
      </trkpt>
      <trkpt lat="51.842625075951219" lon="39.512458937242627">
        <ele>144.81999999999999</ele>
        <time>2016-12-11T09:22:49Z</time>
      </trkpt>
      <trkpt lat="51.84250395745039" lon="39.513136278837919">
        <ele>144.81999999999999</ele>
        <time>2016-12-11T09:23:01Z</time>
      </trkpt>
      <trkpt lat="51.842365404590964" lon="39.513760395348072">
        <ele>141.93000000000001</ele>
        <time>2016-12-11T09:23:12Z</time>
      </trkpt>
      <trkpt lat="51.842299019917846" lon="39.514211341738701">
        <ele>140.00999999999999</ele>
        <time>2016-12-11T09:23:19Z</time>
      </trkpt>
      <trkpt lat="51.842216290533543" lon="39.514631861820817">
        <ele>140.49000000000001</ele>
        <time>2016-12-11T09:23:25Z</time>
      </trkpt>
      <trkpt lat="51.842021159827709" lon="39.515672139823437">
        <ele>144.81999999999999</ele>
        <time>2016-12-11T09:23:39Z</time>
      </trkpt>
      <trkpt lat="51.841827454045415" lon="39.516635639593005">
        <ele>145.78</ele>
        <time>2016-12-11T09:23:52Z</time>
      </trkpt>
      <trkpt lat="51.841675154864788" lon="39.517464861273766">
        <ele>144.81999999999999</ele>
        <time>2016-12-11T09:24:03Z</time>
      </trkpt>
      <trkpt lat="51.841659564524889" lon="39.517536442726851">
        <ele>145.30000000000001</ele>
        <time>2016-12-11T09:24:04Z</time>
      </trkpt>
      <trkpt lat="51.841464350000024" lon="39.518524166196585">
        <ele>149.13999999999999</ele>
        <time>2016-12-11T09:24:17Z</time>
      </trkpt>
      <trkpt lat="51.84129361063242" lon="39.519365793094039">
        <ele>147.69999999999999</ele>
        <time>2016-12-11T09:24:30Z</time>
      </trkpt>
      <trkpt lat="51.841138042509556" lon="39.520142460241914">
        <ele>148.18000000000001</ele>
        <time>2016-12-11T09:24:42Z</time>
      </trkpt>
      <trkpt lat="51.840995466336608" lon="39.520935136824846">
        <ele>151.53999999999999</ele>
        <time>2016-12-11T09:24:55Z</time>
      </trkpt>
      <trkpt lat="51.840956741943955" lon="39.521136973053217">
        <ele>152.50999999999999</ele>
        <time>2016-12-11T09:24:58Z</time>
      </trkpt>
      <trkpt lat="51.840944085270166" lon="39.521204782649875">
        <ele>152.50999999999999</ele>
        <time>2016-12-11T09:24:59Z</time>
      </trkpt>
      <trkpt lat="51.840888932347298" lon="39.521479038521647">
        <ele>152.50999999999999</ele>
        <time>2016-12-11T09:25:03Z</time>
      </trkpt>
      <trkpt lat="51.840791534632444" lon="39.522207845002413">
        <ele>152.03</ele>
        <time>2016-12-11T09:25:13Z</time>
      </trkpt>
      <trkpt lat="51.840753145515919" lon="39.522361485287547">
        <ele>152.03</ele>
        <time>2016-12-11T09:25:15Z</time>
      </trkpt>
      <trkpt lat="51.84073319658637" lon="39.522429462522268">
        <ele>152.03</ele>
        <time>2016-12-11T09:25:16Z</time>
      </trkpt>
      <trkpt lat="51.840694723650813" lon="39.522565165534616">
        <ele>151.53999999999999</ele>
        <time>2016-12-11T09:25:18Z</time>
      </trkpt>
      <trkpt lat="51.84067452326417" lon="39.522631717845798">
        <ele>151.53999999999999</ele>
        <time>2016-12-11T09:25:19Z</time>
      </trkpt>
      <trkpt lat="51.840655831620097" lon="39.522700449451804">
        <ele>151.53999999999999</ele>
        <time>2016-12-11T09:25:20Z</time>
      </trkpt>
      <trkpt lat="51.84063739143312" lon="39.522767001762986">
        <ele>151.06</ele>
        <time>2016-12-11T09:25:21Z</time>
      </trkpt>
      <trkpt lat="51.84061978943646" lon="39.522837661206722">
        <ele>151.06</ele>
        <time>2016-12-11T09:25:22Z</time>
      </trkpt>
      <trkpt lat="51.840587938204408" lon="39.522973028942943">
        <ele>150.58000000000001</ele>
        <time>2016-12-11T09:25:24Z</time>
      </trkpt>
      <trkpt lat="51.840500514954329" lon="39.523515589535236">
        <ele>149.62</ele>
        <time>2016-12-11T09:25:32Z</time>
      </trkpt>
      <trkpt lat="51.840487187728286" lon="39.523586248978972">
        <ele>149.13999999999999</ele>
        <time>2016-12-11T09:25:33Z</time>
      </trkpt>
      <trkpt lat="51.840477464720607" lon="39.523662943392992">
        <ele>149.13999999999999</ele>
        <time>2016-12-11T09:25:34Z</time>
      </trkpt>
      <trkpt lat="51.840302282944322" lon="39.524540947750211">
        <ele>151.53999999999999</ele>
        <time>2016-12-11T09:25:47Z</time>
      </trkpt>
      <trkpt lat="51.840128609910607" lon="39.525370756164193">
        <ele>149.62</ele>
        <time>2016-12-11T09:25:58Z</time>
      </trkpt>
      <trkpt lat="51.839911267161369" lon="39.525713995099068">
        <ele>149.13999999999999</ele>
        <time>2016-12-11T09:26:07Z</time>
      </trkpt>
      <trkpt lat="51.839865669608116" lon="39.525706199929118">
        <ele>149.13999999999999</ele>
        <time>2016-12-11T09:26:08Z</time>
      </trkpt>
      <trkpt lat="51.839820072054863" lon="39.525694381445646">
        <ele>149.13999999999999</ele>
        <time>2016-12-11T09:26:09Z</time>
      </trkpt>
      <trkpt lat="51.839067712426186" lon="39.525335971266031">
        <ele>152.99000000000001</ele>
        <time>2016-12-11T09:26:24Z</time>
      </trkpt>
      <trkpt lat="51.838269671425223" lon="39.524952750653028">
        <ele>152.50999999999999</ele>
        <time>2016-12-11T09:26:39Z</time>
      </trkpt>
      <trkpt lat="51.837630970403552" lon="39.524599118158221">
        <ele>153.47</ele>
        <time>2016-12-11T09:26:53Z</time>
      </trkpt>
      <trkpt lat="51.8369619268924" lon="39.524288065731525">
        <ele>154.91</ele>
        <time>2016-12-11T09:27:09Z</time>
      </trkpt>
      <trkpt lat="51.836278215050697" lon="39.523943904787302">
        <ele>152.50999999999999</ele>
        <time>2016-12-11T09:27:24Z</time>
      </trkpt>
      <trkpt lat="51.835693242028356" lon="39.523609383031726">
        <ele>151.53999999999999</ele>
        <time>2016-12-11T09:27:39Z</time>
      </trkpt>
      <trkpt lat="51.835651835426688" lon="39.523604353889823">
        <ele>151.53999999999999</ele>
        <time>2016-12-11T09:27:40Z</time>
      </trkpt>
      <trkpt lat="51.83561185374856" lon="39.523609466850758">
        <ele>151.06</ele>
        <time>2016-12-11T09:27:41Z</time>
      </trkpt>
      <trkpt lat="51.835572877898812" lon="39.523626482114196">
        <ele>150.58000000000001</ele>
        <time>2016-12-11T09:27:42Z</time>
      </trkpt>
      <trkpt lat="51.835532560944557" lon="39.523660177364945">
        <ele>150.09999999999999</ele>
        <time>2016-12-11T09:27:43Z</time>
      </trkpt>
      <trkpt lat="51.835496854037046" lon="39.523708960041404">
        <ele>149.62</ele>
        <time>2016-12-11T09:27:44Z</time>
      </trkpt>
      <trkpt lat="51.835467433556914" lon="39.523770650848746">
        <ele>149.13999999999999</ele>
        <time>2016-12-11T09:27:45Z</time>
      </trkpt>
      <trkpt lat="51.835449747741222" lon="39.523818260058761">
        <ele>149.13999999999999</ele>
        <time>2016-12-11T09:27:46Z</time>
      </trkpt>
      <trkpt lat="51.835431726649404" lon="39.523880956694484">
        <ele>148.66</ele>
        <time>2016-12-11T09:27:47Z</time>
      </trkpt>
      <trkpt lat="51.83541739359498" lon="39.523946084082127">
        <ele>148.66</ele>
        <time>2016-12-11T09:27:48Z</time>
      </trkpt>
      <trkpt lat="51.835404150187969" lon="39.524009115993977">
        <ele>148.18000000000001</ele>
        <time>2016-12-11T09:27:49Z</time>
      </trkpt>
      <trkpt lat="51.835387470200658" lon="39.524078434333205">
        <ele>147.22</ele>
        <time>2016-12-11T09:27:50Z</time>
      </trkpt>
      <trkpt lat="51.835137773305178" lon="39.525204207748175">
        <ele>144.34</ele>
        <time>2016-12-11T09:28:03Z</time>
      </trkpt>
      <trkpt lat="51.835020510479808" lon="39.525952879339457">
        <ele>143.84999999999999</ele>
        <time>2016-12-11T09:28:12Z</time>
      </trkpt>
      <trkpt lat="51.83476896956563" lon="39.527172278612852">
        <ele>144.34</ele>
        <time>2016-12-11T09:28:28Z</time>
      </trkpt>
      <trkpt lat="51.834545927122235" lon="39.528431743383408">
        <ele>145.78</ele>
        <time>2016-12-11T09:28:45Z</time>
      </trkpt>
      <trkpt lat="51.834509717300534" lon="39.528579683974385">
        <ele>145.78</ele>
        <time>2016-12-11T09:28:47Z</time>
      </trkpt>
      <trkpt lat="51.834374768659472" lon="39.529324835166335">
        <ele>146.25999999999999</ele>
        <time>2016-12-11T09:28:57Z</time>
      </trkpt>
      <trkpt lat="51.834356831386685" lon="39.529400859028101">
        <ele>146.25999999999999</ele>
        <time>2016-12-11T09:28:58Z</time>
      </trkpt>
      <trkpt lat="51.834113085642457" lon="39.530645571649075">
        <ele>149.13999999999999</ele>
        <time>2016-12-11T09:29:14Z</time>
      </trkpt>
      <trkpt lat="51.833888115361333" lon="39.531890451908112">
        <ele>150.09999999999999</ele>
        <time>2016-12-11T09:29:31Z</time>
      </trkpt>
      <trkpt lat="51.83370815590024" lon="39.532837104052305">
        <ele>151.53999999999999</ele>
        <time>2016-12-11T09:29:44Z</time>
      </trkpt>
      <trkpt lat="51.833464996889234" lon="39.53403739258647">
        <ele>151.06</ele>
        <time>2016-12-11T09:30:01Z</time>
      </trkpt>
      <trkpt lat="51.833271374925971" lon="39.535169703885913">
        <ele>151.53999999999999</ele>
        <time>2016-12-11T09:30:16Z</time>
      </trkpt>
      <trkpt lat="51.833041040226817" lon="39.536373009905219">
        <ele>150.58000000000001</ele>
        <time>2016-12-11T09:30:31Z</time>
      </trkpt>
      <trkpt lat="51.832819674164057" lon="39.537449413910508">
        <ele>148.18000000000001</ele>
        <time>2016-12-11T09:30:45Z</time>
      </trkpt>
      <trkpt lat="51.832656897604465" lon="39.538305373862386">
        <ele>150.09999999999999</ele>
        <time>2016-12-11T09:31:00Z</time>
      </trkpt>
      <trkpt lat="51.832540137693286" lon="39.538901830092072">
        <ele>152.99000000000001</ele>
        <time>2016-12-11T09:31:15Z</time>
      </trkpt>
      <trkpt lat="51.832452798262239" lon="39.539259150624275">
        <ele>151.53999999999999</ele>
        <time>2016-12-11T09:31:21Z</time>
      </trkpt>
      <trkpt lat="51.832429999485612" lon="39.539312543347478">
        <ele>151.06</ele>
        <time>2016-12-11T09:31:22Z</time>
      </trkpt>
      <trkpt lat="51.832401752471924" lon="39.539363924413919">
        <ele>150.58000000000001</ele>
        <time>2016-12-11T09:31:23Z</time>
      </trkpt>
      <trkpt lat="51.832370655611157" lon="39.53941379673779">
        <ele>150.09999999999999</ele>
        <time>2016-12-11T09:31:24Z</time>
      </trkpt>
      <trkpt lat="51.832341151311994" lon="39.5394616574049">
        <ele>150.09999999999999</ele>
        <time>2016-12-11T09:31:25Z</time>
      </trkpt>
      <trkpt lat="51.832022722810507" lon="39.539739182218909">
        <ele>147.69999999999999</ele>
        <time>2016-12-11T09:31:33Z</time>
      </trkpt>
      <trkpt lat="51.831547133624554" lon="39.540017293766141">
        <ele>146.74000000000001</ele>
        <time>2016-12-11T09:31:43Z</time>
      </trkpt>
      <trkpt lat="51.831364240497351" lon="39.540064567700028">
        <ele>145.78</ele>
        <time>2016-12-11T09:31:47Z</time>
      </trkpt>
      <trkpt lat="51.83131973259151" lon="39.540094491094351">
        <ele>145.78</ele>
        <time>2016-12-11T09:31:48Z</time>
      </trkpt>
      <trkpt lat="51.831275559961796" lon="39.540128940716386">
        <ele>146.25999999999999</ele>
        <time>2016-12-11T09:31:49Z</time>
      </trkpt>
      <trkpt lat="51.831117728725076" lon="39.54027914442122">
        <ele>145.30000000000001</ele>
        <time>2016-12-11T09:31:53Z</time>
      </trkpt>
      <trkpt lat="51.831079171970487" lon="39.540328849107027">
        <ele>144.81999999999999</ele>
        <time>2016-12-11T09:31:54Z</time>
      </trkpt>
      <trkpt lat="51.831040699034929" lon="39.540383499115705">
        <ele>144.81999999999999</ele>
        <time>2016-12-11T09:31:55Z</time>
      </trkpt>
      <trkpt lat="51.830884627997875" lon="39.540707878768444">
        <ele>143.37</ele>
        <time>2016-12-11T09:32:00Z</time>
      </trkpt>
      <trkpt lat="51.830863673239946" lon="39.540785159915686">
        <ele>143.37</ele>
        <time>2016-12-11T09:32:01Z</time>
      </trkpt>
      <trkpt lat="51.830699639394879" lon="39.541630642488599">
        <ele>144.34</ele>
        <time>2016-12-11T09:32:11Z</time>
      </trkpt>
      <trkpt lat="51.830630991607904" lon="39.542392808943987">
        <ele>143.84999999999999</ele>
        <time>2016-12-11T09:32:20Z</time>
      </trkpt>
      <trkpt lat="51.830632081255317" lon="39.542476795613766">
        <ele>143.84999999999999</ele>
        <time>2016-12-11T09:32:21Z</time>
      </trkpt>
      <trkpt lat="51.830639122053981" lon="39.542553490027785">
        <ele>143.84999999999999</ele>
        <time>2016-12-11T09:32:22Z</time>
      </trkpt>
      <trkpt lat="51.830651611089706" lon="39.542624736204743">
        <ele>144.34</ele>
        <time>2016-12-11T09:32:23Z</time>
      </trkpt>
      <trkpt lat="51.830666279420257" lon="39.542695395648479">
        <ele>144.34</ele>
        <time>2016-12-11T09:32:24Z</time>
      </trkpt>
      <trkpt lat="51.830681031569839" lon="39.542768402025104">
        <ele>144.81999999999999</ele>
        <time>2016-12-11T09:32:25Z</time>
      </trkpt>
      <trkpt lat="51.830693688243628" lon="39.542848197743297">
        <ele>144.81999999999999</ele>
        <time>2016-12-11T09:32:26Z</time>
      </trkpt>
      <trkpt lat="51.830704417079687" lon="39.542935788631439">
        <ele>144.81999999999999</ele>
        <time>2016-12-11T09:32:27Z</time>
      </trkpt>
      <trkpt lat="51.830744398757815" lon="39.544046642258763">
        <ele>145.78</ele>
        <time>2016-12-11T09:32:41Z</time>
      </trkpt>
      <trkpt lat="51.830719923600554" lon="39.544347049668431">
        <ele>144.81999999999999</ele>
        <time>2016-12-11T09:32:45Z</time>
      </trkpt>
      <trkpt lat="51.830691508948803" lon="39.544487865641713">
        <ele>144.81999999999999</ele>
        <time>2016-12-11T09:32:47Z</time>
      </trkpt>
      <trkpt lat="51.830488415434957" lon="39.545212229713798">
        <ele>144.81999999999999</ele>
        <time>2016-12-11T09:32:57Z</time>
      </trkpt>
      <trkpt lat="51.83047978207469" lon="39.545287918299437">
        <ele>144.81999999999999</ele>
        <time>2016-12-11T09:32:58Z</time>
      </trkpt>
      <trkpt lat="51.830475172027946" lon="39.545369809493423">
        <ele>144.81999999999999</ele>
        <time>2016-12-11T09:32:59Z</time>
      </trkpt>
      <trkpt lat="51.83047785423696" lon="39.545605927705765">
        <ele>144.34</ele>
        <time>2016-12-11T09:33:02Z</time>
      </trkpt>
      <trkpt lat="51.830490678548813" lon="39.54568094573915">
        <ele>144.34</ele>
        <time>2016-12-11T09:33:03Z</time>
      </trkpt>
      <trkpt lat="51.830505765974522" lon="39.545746576040983">
        <ele>144.34</ele>
        <time>2016-12-11T09:33:04Z</time>
      </trkpt>
      <trkpt lat="51.830523032695055" lon="39.545813966542482">
        <ele>144.34</ele>
        <time>2016-12-11T09:33:05Z</time>
      </trkpt>
      <trkpt lat="51.830544071272016" lon="39.545876244083047">
        <ele>144.81999999999999</ele>
        <time>2016-12-11T09:33:06Z</time>
      </trkpt>
      <trkpt lat="51.830569133162498" lon="39.54593064263463">
        <ele>144.81999999999999</ele>
        <time>2016-12-11T09:33:07Z</time>
      </trkpt>
      <trkpt lat="51.830598972737789" lon="39.545975401997566">
        <ele>145.30000000000001</ele>
        <time>2016-12-11T09:33:08Z</time>
      </trkpt>
      <trkpt lat="51.830631326884031" lon="39.54601320438087">
        <ele>145.78</ele>
        <time>2016-12-11T09:33:09Z</time>
      </trkpt>
      <trkpt lat="51.830666530877352" lon="39.546037511900067">
        <ele>146.25999999999999</ele>
        <time>2016-12-11T09:33:10Z</time>
      </trkpt>
      <trkpt lat="51.830705674365163" lon="39.546054527163506">
        <ele>146.74000000000001</ele>
        <time>2016-12-11T09:33:11Z</time>
      </trkpt>
      <trkpt lat="51.830909689888358" lon="39.546161815524101">
        <ele>148.18000000000001</ele>
        <time>2016-12-11T09:33:16Z</time>
      </trkpt>
      <trkpt lat="51.830945145338774" lon="39.54619743861258">
        <ele>148.66</ele>
        <time>2016-12-11T09:33:17Z</time>
      </trkpt>
      <trkpt lat="51.830979092046618" lon="39.546238929033279">
        <ele>148.66</ele>
        <time>2016-12-11T09:33:18Z</time>
      </trkpt>
      <trkpt lat="51.831012032926083" lon="39.546288549900055">
        <ele>148.66</ele>
        <time>2016-12-11T09:33:19Z</time>
      </trkpt>
      <trkpt lat="51.831039860844612" lon="39.546341355890036">
        <ele>148.66</ele>
        <time>2016-12-11T09:33:20Z</time>
      </trkpt>
      <trkpt lat="51.831066682934761" lon="39.546397849917412">
        <ele>148.66</ele>
        <time>2016-12-11T09:33:21Z</time>
      </trkpt>
      <trkpt lat="51.831089062616229" lon="39.546459959819913">
        <ele>148.66</ele>
        <time>2016-12-11T09:33:22Z</time>
      </trkpt>
      <trkpt lat="51.831105491146445" lon="39.546530619263649">
        <ele>148.18000000000001</ele>
        <time>2016-12-11T09:33:23Z</time>
      </trkpt>
      <trkpt lat="51.831113956868649" lon="39.546603290364146">
        <ele>148.18000000000001</ele>
        <time>2016-12-11T09:33:24Z</time>
      </trkpt>
      <trkpt lat="51.83111353777349" lon="39.546678056940436">
        <ele>148.18000000000001</ele>
        <time>2016-12-11T09:33:25Z</time>
      </trkpt>
      <trkpt lat="51.831102473661304" lon="39.54674712382257">
        <ele>148.18000000000001</ele>
        <time>2016-12-11T09:33:26Z</time>
      </trkpt>
      <trkpt lat="51.831082524731755" lon="39.5468042884022">
        <ele>148.18000000000001</ele>
        <time>2016-12-11T09:33:27Z</time>
      </trkpt>
      <trkpt lat="51.831055702641606" lon="39.546851394698024">
        <ele>148.66</ele>
        <time>2016-12-11T09:33:28Z</time>
      </trkpt>
      <trkpt lat="51.831030556932092" lon="39.546902105212212">
        <ele>148.66</ele>
        <time>2016-12-11T09:33:29Z</time>
      </trkpt>
      <trkpt lat="51.831010775640607" lon="39.546959772706032">
        <ele>148.66</ele>
        <time>2016-12-11T09:33:30Z</time>
      </trkpt>
      <trkpt lat="51.830994598567486" lon="39.547024900093675">
        <ele>148.66</ele>
        <time>2016-12-11T09:33:31Z</time>
      </trkpt>
      <trkpt lat="51.830980433151126" lon="39.547095224261284">
        <ele>148.66</ele>
        <time>2016-12-11T09:33:32Z</time>
      </trkpt>
      <trkpt lat="51.830761833116412" lon="39.548085797578096">
        <ele>148.66</ele>
        <time>2016-12-11T09:33:47Z</time>
      </trkpt>
      <trkpt lat="51.830747919157147" lon="39.548154193907976">
        <ele>148.18000000000001</ele>
        <time>2016-12-11T09:33:48Z</time>
      </trkpt>
      <trkpt lat="51.830624705180526" lon="39.548806054517627">
        <ele>144.81999999999999</ele>
        <time>2016-12-11T09:33:58Z</time>
      </trkpt>
      <trkpt lat="51.830466538667679" lon="39.549720268696547">
        <ele>152.50999999999999</ele>
        <time>2016-12-11T09:34:12Z</time>
      </trkpt>
      <trkpt lat="51.830290351063013" lon="39.550583101809025">
        <ele>154.91</ele>
        <time>2016-12-11T09:34:27Z</time>
      </trkpt>
      <trkpt lat="51.830118605867028" lon="39.551527490839362">
        <ele>155.38999999999999</ele>
        <time>2016-12-11T09:34:43Z</time>
      </trkpt>
      <trkpt lat="51.829919787123799" lon="39.552598781883717">
        <ele>155.87</ele>
        <time>2016-12-11T09:34:59Z</time>
      </trkpt>
      <trkpt lat="51.829906040802598" lon="39.552668686956167">
        <ele>155.38999999999999</ele>
        <time>2016-12-11T09:35:00Z</time>
      </trkpt>
      <trkpt lat="51.829892797395587" lon="39.552741106599569">
        <ele>155.38999999999999</ele>
        <time>2016-12-11T09:35:01Z</time>
      </trkpt>
      <trkpt lat="51.829627342522144" lon="39.55397735349834">
        <ele>152.50999999999999</ele>
        <time>2016-12-11T09:35:17Z</time>
      </trkpt>
      <trkpt lat="51.829390889033675" lon="39.555225167423487">
        <ele>152.50999999999999</ele>
        <time>2016-12-11T09:35:34Z</time>
      </trkpt>
      <trkpt lat="51.829157955944538" lon="39.556493684649467">
        <ele>155.38999999999999</ele>
        <time>2016-12-11T09:35:52Z</time>
      </trkpt>
      <trkpt lat="51.828967100009322" lon="39.557434301823378">
        <ele>151.53999999999999</ele>
        <time>2016-12-11T09:36:05Z</time>
      </trkpt>
      <trkpt lat="51.828843886032701" lon="39.558265618979931">
        <ele>147.69999999999999</ele>
        <time>2016-12-11T09:36:16Z</time>
      </trkpt>
      <trkpt lat="51.828733496367931" lon="39.558863416314125">
        <ele>144.34</ele>
        <time>2016-12-11T09:36:27Z</time>
      </trkpt>
      <trkpt lat="51.828557392582297" lon="39.559538913890719">
        <ele>145.30000000000001</ele>
        <time>2016-12-11T09:36:39Z</time>
      </trkpt>
      <trkpt lat="51.82847005315125" lon="39.559928169474006">
        <ele>145.30000000000001</ele>
        <time>2016-12-11T09:36:47Z</time>
      </trkpt>
      <trkpt lat="51.828457564115524" lon="39.559991704300046">
        <ele>145.30000000000001</ele>
        <time>2016-12-11T09:36:48Z</time>
      </trkpt>
      <trkpt lat="51.828443231061101" lon="39.560042498633265">
        <ele>145.78</ele>
        <time>2016-12-11T09:36:49Z</time>
      </trkpt>
      <trkpt lat="51.828427473083138" lon="39.560079546645284">
        <ele>145.78</ele>
        <time>2016-12-11T09:36:50Z</time>
      </trkpt>
      <trkpt lat="51.828406685963273" lon="39.560119193047285">
        <ele>145.78</ele>
        <time>2016-12-11T09:36:51Z</time>
      </trkpt>
      <trkpt lat="51.828383887186646" lon="39.560160851106048">
        <ele>145.30000000000001</ele>
        <time>2016-12-11T09:36:52Z</time>
      </trkpt>
      <trkpt lat="51.828290848061442" lon="39.560649013146758">
        <ele>145.30000000000001</ele>
        <time>2016-12-11T09:37:02Z</time>
      </trkpt>
      <trkpt lat="51.828221278265119" lon="39.561340184882283">
        <ele>145.30000000000001</ele>
        <time>2016-12-11T09:37:14Z</time>
      </trkpt>
      <trkpt lat="51.828087586909533" lon="39.562094388529658">
        <ele>147.69999999999999</ele>
        <time>2016-12-11T09:37:27Z</time>
      </trkpt>
      <trkpt lat="51.827910728752613" lon="39.563101725652814">
        <ele>148.66</ele>
        <time>2016-12-11T09:37:43Z</time>
      </trkpt>
      <trkpt lat="51.827742336317897" lon="39.564013592898846">
        <ele>153.94999999999999</ele>
        <time>2016-12-11T09:37:57Z</time>
      </trkpt>
      <trkpt lat="51.82751577347517" lon="39.565180689096451">
        <ele>151.06</ele>
        <time>2016-12-11T09:38:10Z</time>
      </trkpt>
      <trkpt lat="51.827464643865824" lon="39.565463997423649">
        <ele>151.06</ele>
        <time>2016-12-11T09:38:14Z</time>
      </trkpt>
      <trkpt lat="51.827370431274176" lon="39.565944280475378">
        <ele>149.62</ele>
        <time>2016-12-11T09:38:21Z</time>
      </trkpt>
      <trkpt lat="51.827193656936288" lon="39.56692311912775">
        <ele>149.62</ele>
        <time>2016-12-11T09:38:35Z</time>
      </trkpt>
      <trkpt lat="51.826930716633797" lon="39.567700708284974">
        <ele>151.06</ele>
        <time>2016-12-11T09:38:49Z</time>
      </trkpt>
      <trkpt lat="51.82677648961544" lon="39.568037576973438">
        <ele>153.47</ele>
        <time>2016-12-11T09:38:59Z</time>
      </trkpt>
      <trkpt lat="51.82679601944983" lon="39.568072445690632">
        <ele>156.34999999999999</ele>
        <time>2016-12-11T09:39:06Z</time>
      </trkpt>
      <trkpt lat="51.826954185962677" lon="39.568046210333705">
        <ele>158.75</ele>
        <time>2016-12-11T09:39:17Z</time>
      </trkpt>
      <trkpt lat="51.827077735215425" lon="39.568055933341384">
        <ele>161.16</ele>
        <time>2016-12-11T09:39:29Z</time>
      </trkpt>
      <trkpt lat="51.82704865001142" lon="39.568045791238546">
        <ele>161.16</ele>
        <time>2016-12-11T09:39:33Z</time>
      </trkpt>
      <trkpt lat="51.827033059671521" lon="39.568043360486627">
        <ele>161.16</ele>
        <time>2016-12-11T09:39:34Z</time>
      </trkpt>
      <trkpt lat="51.827005818486214" lon="39.568043276667595">
        <ele>160.68000000000001</ele>
        <time>2016-12-11T09:39:35Z</time>
      </trkpt>
      <trkpt lat="51.82698804885149" lon="39.56804545596242">
        <ele>160.68000000000001</ele>
        <time>2016-12-11T09:39:36Z</time>
      </trkpt>
      <trkpt lat="51.826956029981375" lon="39.568052496761084">
        <ele>160.68000000000001</ele>
        <time>2016-12-11T09:39:37Z</time>
      </trkpt>
      <trkpt lat="51.826637936756015" lon="39.568288782611489">
        <ele>162.59999999999999</ele>
        <time>2016-12-11T09:39:49Z</time>
      </trkpt>
      <trkpt lat="51.826322861015797" lon="39.568833354860544">
        <ele>161.16</ele>
        <time>2016-12-11T09:40:02Z</time>
      </trkpt>
      <trkpt lat="51.82602689601481" lon="39.569256389513612">
        <ele>160.68000000000001</ele>
        <time>2016-12-11T09:40:12Z</time>
      </trkpt>
      <trkpt lat="51.82582757435739" lon="39.569712029770017">
        <ele>159.24000000000001</ele>
        <time>2016-12-11T09:40:20Z</time>
      </trkpt>
      <trkpt lat="51.825795723125339" lon="39.569762488827109">
        <ele>159.24000000000001</ele>
        <time>2016-12-11T09:40:21Z</time>
      </trkpt>
      <trkpt lat="51.825763368979096" lon="39.569803476333618">
        <ele>159.24000000000001</ele>
        <time>2016-12-11T09:40:22Z</time>
      </trkpt>
      <trkpt lat="51.825730931013823" lon="39.569842368364334">
        <ele>159.24000000000001</ele>
        <time>2016-12-11T09:40:23Z</time>
      </trkpt>
      <trkpt lat="51.825697403401136" lon="39.569879164919257">
        <ele>159.72</ele>
        <time>2016-12-11T09:40:24Z</time>
      </trkpt>
      <trkpt lat="51.825175294652581" lon="39.570344192907214">
        <ele>160.68000000000001</ele>
        <time>2016-12-11T09:40:38Z</time>
      </trkpt>
      <trkpt lat="51.824708171188831" lon="39.570918353274465">
        <ele>162.59999999999999</ele>
        <time>2016-12-11T09:40:51Z</time>
      </trkpt>
      <trkpt lat="51.824283208698034" lon="39.571397127583623">
        <ele>162.12</ele>
        <time>2016-12-11T09:41:04Z</time>
      </trkpt>
      <trkpt lat="51.82385933585465" lon="39.571854947134852">
        <ele>161.63999999999999</ele>
        <time>2016-12-11T09:41:18Z</time>
      </trkpt>
      <trkpt lat="51.823488436639309" lon="39.57217144779861">
        <ele>161.63999999999999</ele>
        <time>2016-12-11T09:41:28Z</time>
      </trkpt>
      <trkpt lat="51.822994239628315" lon="39.572548633441329">
        <ele>163.56</ele>
        <time>2016-12-11T09:41:42Z</time>
      </trkpt>
      <trkpt lat="51.822677571326494" lon="39.572838144376874">
        <ele>165.96000000000001</ele>
        <time>2016-12-11T09:41:54Z</time>
      </trkpt>
      <trkpt lat="51.822639601305127" lon="39.572828924283385">
        <ele>166.44999999999999</ele>
        <time>2016-12-11T09:42:01Z</time>
      </trkpt>
      <trkpt lat="51.82262166403234" lon="39.57282573916018">
        <ele>166.44999999999999</ele>
        <time>2016-12-11T09:42:02Z</time>
      </trkpt>
      <trkpt lat="51.822270378470421" lon="39.572722474113107">
        <ele>165.96000000000001</ele>
        <time>2016-12-11T09:42:17Z</time>
      </trkpt>
      <trkpt lat="51.822224110364914" lon="39.572720630094409">
        <ele>165.47999999999999</ele>
        <time>2016-12-11T09:42:30Z</time>
      </trkpt>
      <trkpt lat="51.822086228057742" lon="39.572706967592239">
        <ele>164.52000000000001</ele>
        <time>2016-12-11T09:42:37Z</time>
      </trkpt>
      <trkpt lat="51.822070386260748" lon="39.572724737226963">
        <ele>164.52000000000001</ele>
        <time>2016-12-11T09:42:38Z</time>
      </trkpt>
      <trkpt lat="51.822032500058413" lon="39.572834288701415">
        <ele>164.03999999999999</ele>
        <time>2016-12-11T09:42:42Z</time>
      </trkpt>
      <trkpt lat="51.822058986872435" lon="39.573162021115422">
        <ele>162.59999999999999</ele>
        <time>2016-12-11T09:42:52Z</time>
      </trkpt>
      <trkpt lat="51.822024956345558" lon="39.573467541486025">
        <ele>161.16</ele>
        <time>2016-12-11T09:43:04Z</time>
      </trkpt>
      <trkpt lat="51.821957230567932" lon="39.573783623054624">
        <ele>162.59999999999999</ele>
        <time>2016-12-11T09:43:17Z</time>
      </trkpt>
      <trkpt lat="51.821945328265429" lon="39.573810696601868">
        <ele>163.08000000000001</ele>
        <time>2016-12-11T09:43:19Z</time>
      </trkpt>
      <trkpt lat="51.821788670495152" lon="39.57392418757081">
        <ele>163.08000000000001</ele>
        <time>2016-12-11T09:43:31Z</time>
      </trkpt>
      <trkpt lat="51.821521706879139" lon="39.573934329673648">
        <ele>163.56</ele>
        <time>2016-12-11T09:43:44Z</time>
      </trkpt>
      <trkpt lat="51.821283996105194" lon="39.574006916955113">
        <ele>162.59999999999999</ele>
        <time>2016-12-11T09:43:57Z</time>
      </trkpt>
      <trkpt lat="51.820899015292525" lon="39.57399308681488">
        <ele>162.12</ele>
        <time>2016-12-11T09:44:13Z</time>
      </trkpt>
      <trkpt lat="51.820886610075831" lon="39.573994092643261">
        <ele>162.12</ele>
        <time>2016-12-11T09:44:14Z</time>
      </trkpt>
      <trkpt lat="51.820874707773328" lon="39.573996942490339">
        <ele>162.12</ele>
        <time>2016-12-11T09:44:15Z</time>
      </trkpt>
      <trkpt lat="51.8208640627563" lon="39.573998283594847">
        <ele>162.12</ele>
        <time>2016-12-11T09:44:16Z</time>
      </trkpt>
      <trkpt lat="51.820848807692528" lon="39.573990069329739">
        <ele>161.63999999999999</ele>
        <time>2016-12-11T09:44:20Z</time>
      </trkpt>
      <trkpt lat="51.820797761902213" lon="39.57400188781321">
        <ele>161.16</ele>
        <time>2016-12-11T09:44:29Z</time>
      </trkpt>
      <trkpt lat="51.82077320292592" lon="39.573992332443595">
        <ele>161.63999999999999</ele>
        <time>2016-12-11T09:44:32Z</time>
      </trkpt>
      <trkpt lat="51.820757277309895" lon="39.573966767638922">
        <ele>161.63999999999999</ele>
        <time>2016-12-11T09:44:35Z</time>
      </trkpt>
      <trkpt lat="51.820727689191699" lon="39.573856629431248">
        <ele>161.16</ele>
        <time>2016-12-11T09:44:43Z</time>
      </trkpt>
      <trkpt lat="51.820684354752302" lon="39.57384942099452">
        <ele>160.68000000000001</ele>
        <time>2016-12-11T09:44:50Z</time>
      </trkpt>
      <trkpt lat="51.820675637573004" lon="39.573857970535755">
        <ele>161.16</ele>
        <time>2016-12-11T09:44:51Z</time>
      </trkpt>
      <trkpt lat="51.820660969242454" lon="39.573863921687007">
        <ele>160.68000000000001</ele>
        <time>2016-12-11T09:44:52Z</time>
      </trkpt>
      <trkpt lat="51.820642109960318" lon="39.573873896151781">
        <ele>160.68000000000001</ele>
        <time>2016-12-11T09:44:53Z</time>
      </trkpt>
      <trkpt lat="51.820619897916913" lon="39.573884624987841">
        <ele>160.68000000000001</ele>
        <time>2016-12-11T09:44:54Z</time>
      </trkpt>
      <trkpt lat="51.820602547377348" lon="39.573893509805202">
        <ele>160.68000000000001</ele>
        <time>2016-12-11T09:44:55Z</time>
      </trkpt>
      <trkpt lat="51.820208430290222" lon="39.573955368250608">
        <ele>161.16</ele>
        <time>2016-12-11T09:45:08Z</time>
      </trkpt>
      <trkpt lat="51.819664780050516" lon="39.574004989117384">
        <ele>160.19999999999999</ele>
        <time>2016-12-11T09:45:21Z</time>
      </trkpt>
      <trkpt lat="51.819038903340697" lon="39.573898371309042">
        <ele>159.24000000000001</ele>
        <time>2016-12-11T09:45:35Z</time>
      </trkpt>
      <trkpt lat="51.81833297945559" lon="39.573795190081">
        <ele>159.72</ele>
        <time>2016-12-11T09:45:51Z</time>
      </trkpt>
      <trkpt lat="51.817470900714397" lon="39.573664600029588">
        <ele>158.27000000000001</ele>
        <time>2016-12-11T09:46:08Z</time>
      </trkpt>
      <trkpt lat="51.816853154450655" lon="39.573537027463317">
        <ele>157.78999999999999</ele>
        <time>2016-12-11T09:46:21Z</time>
      </trkpt>
      <trkpt lat="51.816678224131465" lon="39.573471061885357">
        <ele>157.78999999999999</ele>
        <time>2016-12-11T09:46:25Z</time>
      </trkpt>
      <trkpt lat="51.816639918833971" lon="39.573445245623589">
        <ele>158.27000000000001</ele>
        <time>2016-12-11T09:46:26Z</time>
      </trkpt>
      <trkpt lat="51.816603792831302" lon="39.573411298915744">
        <ele>158.27000000000001</ele>
        <time>2016-12-11T09:46:27Z</time>
      </trkpt>
      <trkpt lat="51.816569175571203" lon="39.573373077437282">
        <ele>158.75</ele>
        <time>2016-12-11T09:46:28Z</time>
      </trkpt>
      <trkpt lat="51.816536318510771" lon="39.573324713855982">
        <ele>159.24000000000001</ele>
        <time>2016-12-11T09:46:29Z</time>
      </trkpt>
      <trkpt lat="51.816506814211607" lon="39.573276182636619">
        <ele>159.72</ele>
        <time>2016-12-11T09:46:30Z</time>
      </trkpt>
      <trkpt lat="51.816474795341492" lon="39.57322932779789">
        <ele>159.72</ele>
        <time>2016-12-11T09:46:31Z</time>
      </trkpt>
      <trkpt lat="51.816440932452679" lon="39.573186747729778">
        <ele>160.19999999999999</ele>
        <time>2016-12-11T09:46:32Z</time>
      </trkpt>
      <trkpt lat="51.816404387354851" lon="39.573146346956491">
        <ele>160.68000000000001</ele>
        <time>2016-12-11T09:46:33Z</time>
      </trkpt>
      <trkpt lat="51.816362729296088" lon="39.573107790201902">
        <ele>160.68000000000001</ele>
        <time>2016-12-11T09:46:34Z</time>
      </trkpt>
      <trkpt lat="51.816322077065706" lon="39.573077028617263">
        <ele>160.68000000000001</ele>
        <time>2016-12-11T09:46:35Z</time>
      </trkpt>
      <trkpt lat="51.81628511287272" lon="39.573056325316429">
        <ele>161.16</ele>
        <time>2016-12-11T09:46:36Z</time>
      </trkpt>
      <trkpt lat="51.816244041547179" lon="39.573040148243308">
        <ele>161.16</ele>
        <time>2016-12-11T09:46:37Z</time>
      </trkpt>
      <trkpt lat="51.816203556954861" lon="39.573027240112424">
        <ele>160.68000000000001</ele>
        <time>2016-12-11T09:46:38Z</time>
      </trkpt>
      <trkpt lat="51.815826538950205" lon="39.573140311986208">
        <ele>159.24000000000001</ele>
        <time>2016-12-11T09:46:49Z</time>
      </trkpt>
      <trkpt lat="51.815754873678088" lon="39.573749005794525">
        <ele>158.27000000000001</ele>
        <time>2016-12-11T09:47:02Z</time>
      </trkpt>
      <trkpt lat="51.815930977463722" lon="39.574192324653268">
        <ele>157.31</ele>
        <time>2016-12-11T09:47:12Z</time>
      </trkpt>
      <trkpt lat="51.8163535092026" lon="39.574849968776107">
        <ele>158.27000000000001</ele>
        <time>2016-12-11T09:47:28Z</time>
      </trkpt>
      <trkpt lat="51.816444704309106" lon="39.575411723926663">
        <ele>158.75</ele>
        <time>2016-12-11T09:47:38Z</time>
      </trkpt>
      <trkpt lat="51.816416960209608" lon="39.575455812737346">
        <ele>158.75</ele>
        <time>2016-12-11T09:47:39Z</time>
      </trkpt>
      <trkpt lat="51.81638041511178" lon="39.575479533523321">
        <ele>158.75</ele>
        <time>2016-12-11T09:47:40Z</time>
      </trkpt>
      <trkpt lat="51.816355101764202" lon="39.575484730303288">
        <ele>158.75</ele>
        <time>2016-12-11T09:47:41Z</time>
      </trkpt>
      <trkpt lat="51.816319059580564" lon="39.575479784980416">
        <ele>158.75</ele>
        <time>2016-12-11T09:47:42Z</time>
      </trkpt>
      <trkpt lat="51.816281089559197" lon="39.575470983982086">
        <ele>158.75</ele>
        <time>2016-12-11T09:47:43Z</time>
      </trkpt>
      <trkpt lat="51.815408198162913" lon="39.575362103059888">
        <ele>158.27000000000001</ele>
        <time>2016-12-11T09:48:02Z</time>
      </trkpt>
      <trkpt lat="51.814520303159952" lon="39.575171330943704">
        <ele>157.31</ele>
        <time>2016-12-11T09:48:20Z</time>
      </trkpt>
      <trkpt lat="51.813368378207088" lon="39.574806969612837">
        <ele>157.78999999999999</ele>
        <time>2016-12-11T09:48:42Z</time>
      </trkpt>
      <trkpt lat="51.812126180157065" lon="39.574422743171453">
        <ele>156.83000000000001</ele>
        <time>2016-12-11T09:49:05Z</time>
      </trkpt>
      <trkpt lat="51.810688264667988" lon="39.574154857546091">
        <ele>156.34999999999999</ele>
        <time>2016-12-11T09:49:30Z</time>
      </trkpt>
      <trkpt lat="51.809531729668379" lon="39.573961738497019">
        <ele>155.87</ele>
        <time>2016-12-11T09:49:50Z</time>
      </trkpt>
      <trkpt lat="51.808263715356588" lon="39.573738109320402">
        <ele>157.31</ele>
        <time>2016-12-11T09:50:13Z</time>
      </trkpt>
      <trkpt lat="51.807051692157984" lon="39.573517078533769">
        <ele>156.34999999999999</ele>
        <time>2016-12-11T09:50:35Z</time>
      </trkpt>
      <trkpt lat="51.805997584015131" lon="39.573321025818586">
        <ele>157.78999999999999</ele>
        <time>2016-12-11T09:50:54Z</time>
      </trkpt>
      <trkpt lat="51.804726384580135" lon="39.573080968111753">
        <ele>158.75</ele>
        <time>2016-12-11T09:51:17Z</time>
      </trkpt>
      <trkpt lat="51.803584937006235" lon="39.572667153552175">
        <ele>157.78999999999999</ele>
        <time>2016-12-11T09:51:38Z</time>
      </trkpt>
      <trkpt lat="51.802626131102443" lon="39.572238503023982">
        <ele>157.78999999999999</ele>
        <time>2016-12-11T09:51:56Z</time>
      </trkpt>
      <trkpt lat="51.801556013524532" lon="39.571735169738531">
        <ele>158.27000000000001</ele>
        <time>2016-12-11T09:52:16Z</time>
      </trkpt>
      <trkpt lat="51.800554795190692" lon="39.571185233071446">
        <ele>157.78999999999999</ele>
        <time>2016-12-11T09:52:35Z</time>
      </trkpt>
      <trkpt lat="51.799432374536991" lon="39.570473525673151">
        <ele>157.78999999999999</ele>
        <time>2016-12-11T09:52:57Z</time>
      </trkpt>
      <trkpt lat="51.798381367698312" lon="39.569513713940978">
        <ele>156.83000000000001</ele>
        <time>2016-12-11T09:53:19Z</time>
      </trkpt>
      <trkpt lat="51.797428512945771" lon="39.568578377366066">
        <ele>156.34999999999999</ele>
        <time>2016-12-11T09:53:39Z</time>
      </trkpt>
      <trkpt lat="51.796446405351162" lon="39.5676164701581">
        <ele>156.34999999999999</ele>
        <time>2016-12-11T09:54:00Z</time>
      </trkpt>
      <trkpt lat="51.795183923095465" lon="39.566375026479363">
        <ele>157.31</ele>
        <time>2016-12-11T09:54:27Z</time>
      </trkpt>
      <trkpt lat="51.794303907081485" lon="39.565502386540174">
        <ele>157.31</ele>
        <time>2016-12-11T09:54:46Z</time>
      </trkpt>
      <trkpt lat="51.793365301564336" lon="39.56459236331284">
        <ele>156.83000000000001</ele>
        <time>2016-12-11T09:55:06Z</time>
      </trkpt>
      <trkpt lat="51.792326448485255" lon="39.56358578056097">
        <ele>156.83000000000001</ele>
        <time>2016-12-11T09:55:28Z</time>
      </trkpt>
      <trkpt lat="51.791342999786139" lon="39.562613228335977">
        <ele>155.87</ele>
        <time>2016-12-11T09:55:49Z</time>
      </trkpt>
      <trkpt lat="51.790274810045958" lon="39.561577644199133">
        <ele>157.78999999999999</ele>
        <time>2016-12-11T09:56:12Z</time>
      </trkpt>
      <trkpt lat="51.789698805660009" lon="39.56099309027195">
        <ele>157.78999999999999</ele>
        <time>2016-12-11T09:56:28Z</time>
      </trkpt>
      <trkpt lat="51.789577603340149" lon="39.560594446957111">
        <ele>155.87</ele>
        <time>2016-12-11T09:56:38Z</time>
      </trkpt>
      <trkpt lat="51.789835011586547" lon="39.560167221352458">
        <ele>155.87</ele>
        <time>2016-12-11T09:56:51Z</time>
      </trkpt>
      <trkpt lat="51.789915645495057" lon="39.559941329061985">
        <ele>156.34999999999999</ele>
        <time>2016-12-11T09:56:58Z</time>
      </trkpt>
      <trkpt lat="51.789751695469022" lon="39.559575039893389">
        <ele>156.83000000000001</ele>
        <time>2016-12-11T09:57:09Z</time>
      </trkpt>
      <trkpt lat="51.789295133203268" lon="39.5591064915061">
        <ele>155.38999999999999</ele>
        <time>2016-12-11T09:57:25Z</time>
      </trkpt>
      <trkpt lat="51.788901854306459" lon="39.558686222881079">
        <ele>154.43000000000001</ele>
        <time>2016-12-11T09:57:39Z</time>
      </trkpt>
      <trkpt lat="51.788475131615996" lon="39.558256901800632">
        <ele>153.94999999999999</ele>
        <time>2016-12-11T09:57:52Z</time>
      </trkpt>
      <trkpt lat="51.787785300984979" lon="39.557597581297159">
        <ele>154.43000000000001</ele>
        <time>2016-12-11T09:58:10Z</time>
      </trkpt>
      <trkpt lat="51.786996396258473" lon="39.556824266910553">
        <ele>154.43000000000001</ele>
        <time>2016-12-11T09:58:31Z</time>
      </trkpt>
      <trkpt lat="51.786096096038818" lon="39.555928828194737">
        <ele>152.50999999999999</ele>
        <time>2016-12-11T09:58:54Z</time>
      </trkpt>
      <trkpt lat="51.785292020067573" lon="39.555159537121654">
        <ele>153.47</ele>
        <time>2016-12-11T09:59:15Z</time>
      </trkpt>
      <trkpt lat="51.784624569118023" lon="39.554491583257914">
        <ele>152.99000000000001</ele>
        <time>2016-12-11T09:59:33Z</time>
      </trkpt>
      <trkpt lat="51.783904815092683" lon="39.553769649937749">
        <ele>152.50999999999999</ele>
        <time>2016-12-11T09:59:52Z</time>
      </trkpt>
      <trkpt lat="51.783166956156492" lon="39.553048722445965">
        <ele>152.03</ele>
        <time>2016-12-11T10:00:11Z</time>
      </trkpt>
      <trkpt lat="51.782507384195924" lon="39.552388396114111">
        <ele>152.50999999999999</ele>
        <time>2016-12-11T10:00:29Z</time>
      </trkpt>
      <trkpt lat="51.781882178038359" lon="39.551784060895443">
        <ele>152.03</ele>
        <time>2016-12-11T10:00:46Z</time>
      </trkpt>
      <trkpt lat="51.781223025172949" lon="39.551137732341886">
        <ele>152.03</ele>
        <time>2016-12-11T10:01:04Z</time>
      </trkpt>
      <trkpt lat="51.780647858977318" lon="39.550556531175971">
        <ele>152.50999999999999</ele>
        <time>2016-12-11T10:01:20Z</time>
      </trkpt>
      <trkpt lat="51.780082583427429" lon="39.550005085766315">
        <ele>152.50999999999999</ele>
        <time>2016-12-11T10:01:36Z</time>
      </trkpt>
      <trkpt lat="51.779939755797386" lon="39.549856642261147">
        <ele>152.50999999999999</ele>
        <time>2016-12-11T10:01:40Z</time>
      </trkpt>
      <trkpt lat="51.77991159260273" lon="39.549827557057142">
        <ele>152.03</ele>
        <time>2016-12-11T10:01:50Z</time>
      </trkpt>
      <trkpt lat="51.779906814917922" lon="39.549823449924588">
        <ele>152.03</ele>
        <time>2016-12-11T10:01:51Z</time>
      </trkpt>
      <trkpt lat="51.779608335345984" lon="39.549498148262501">
        <ele>152.03</ele>
        <time>2016-12-11T10:02:05Z</time>
      </trkpt>
      <trkpt lat="51.779110617935658" lon="39.548989282920957">
        <ele>151.53999999999999</ele>
        <time>2016-12-11T10:02:20Z</time>
      </trkpt>
      <trkpt lat="51.778372758999467" lon="39.548273384571075">
        <ele>150.09999999999999</ele>
        <time>2016-12-11T10:02:40Z</time>
      </trkpt>
      <trkpt lat="51.777691142633557" lon="39.547608448192477">
        <ele>149.62</ele>
        <time>2016-12-11T10:02:58Z</time>
      </trkpt>
      <trkpt lat="51.776942973956466" lon="39.546826751902699">
        <ele>151.06</ele>
        <time>2016-12-11T10:03:17Z</time>
      </trkpt>
      <trkpt lat="51.776250544935465" lon="39.546141028404236">
        <ele>152.03</ele>
        <time>2016-12-11T10:03:34Z</time>
      </trkpt>
      <trkpt lat="51.775475051254034" lon="39.545379364863038">
        <ele>151.53999999999999</ele>
        <time>2016-12-11T10:03:53Z</time>
      </trkpt>
      <trkpt lat="51.774742808192968" lon="39.544672602787614">
        <ele>151.06</ele>
        <time>2016-12-11T10:04:11Z</time>
      </trkpt>
      <trkpt lat="51.774057755246758" lon="39.543894594535232">
        <ele>150.58000000000001</ele>
        <time>2016-12-11T10:04:29Z</time>
      </trkpt>
      <trkpt lat="51.773876203224063" lon="39.543675240129232">
        <ele>150.58000000000001</ele>
        <time>2016-12-11T10:04:34Z</time>
      </trkpt>
      <trkpt lat="51.77331168204546" lon="39.542972836643457">
        <ele>150.09999999999999</ele>
        <time>2016-12-11T10:04:51Z</time>
      </trkpt>
      <trkpt lat="51.772841289639473" lon="39.542359448969364">
        <ele>149.13999999999999</ele>
        <time>2016-12-11T10:05:06Z</time>
      </trkpt>
      <trkpt lat="51.772332843393087" lon="39.541640365496278">
        <ele>148.66</ele>
        <time>2016-12-11T10:05:23Z</time>
      </trkpt>
      <trkpt lat="51.771951215341687" lon="39.541055727750063">
        <ele>149.13999999999999</ele>
        <time>2016-12-11T10:05:39Z</time>
      </trkpt>
      <trkpt lat="51.771692717447877" lon="39.541121693328023">
        <ele>149.62</ele>
        <time>2016-12-11T10:05:49Z</time>
      </trkpt>
      <trkpt lat="51.77150035277009" lon="39.541419837623835">
        <ele>151.06</ele>
        <time>2016-12-11T10:06:00Z</time>
      </trkpt>
      <trkpt lat="51.771450480446219" lon="39.541407516226172">
        <ele>151.06</ele>
        <time>2016-12-11T10:06:03Z</time>
      </trkpt>
      <trkpt lat="51.771437237039208" lon="39.54137122258544">
        <ele>151.06</ele>
        <time>2016-12-11T10:06:04Z</time>
      </trkpt>
      <trkpt lat="51.771427094936371" lon="39.541333504021168">
        <ele>151.06</ele>
        <time>2016-12-11T10:06:05Z</time>
      </trkpt>
      <trkpt lat="51.771414522081614" lon="39.541288074105978">
        <ele>150.58000000000001</ele>
        <time>2016-12-11T10:06:06Z</time>
      </trkpt>
      <trkpt lat="51.771398093551397" lon="39.541245326399803">
        <ele>150.58000000000001</ele>
        <time>2016-12-11T10:06:07Z</time>
      </trkpt>
      <trkpt lat="51.771377641707659" lon="39.541201572865248">
        <ele>150.58000000000001</ele>
        <time>2016-12-11T10:06:08Z</time>
      </trkpt>
      <trkpt lat="51.771031804382801" lon="39.540713913738728">
        <ele>148.66</ele>
        <time>2016-12-11T10:06:20Z</time>
      </trkpt>
      <trkpt lat="51.77063106559217" lon="39.540099771693349">
        <ele>148.66</ele>
        <time>2016-12-11T10:06:35Z</time>
      </trkpt>
      <trkpt lat="51.770463762804866" lon="39.54010664485395">
        <ele>149.13999999999999</ele>
        <time>2016-12-11T10:06:40Z</time>
      </trkpt>
      <trkpt lat="51.770438114181161" lon="39.540071357041597">
        <ele>149.13999999999999</ele>
        <time>2016-12-11T10:06:41Z</time>
      </trkpt>
      <trkpt lat="51.770419087260962" lon="39.54002995043993">
        <ele>149.13999999999999</ele>
        <time>2016-12-11T10:06:42Z</time>
      </trkpt>
      <trkpt lat="51.77015857771039" lon="39.539137277752161">
        <ele>149.13999999999999</ele>
        <time>2016-12-11T10:06:59Z</time>
      </trkpt>
      <trkpt lat="51.770292101427913" lon="39.538678703829646">
        <ele>148.18000000000001</ele>
        <time>2016-12-11T10:07:09Z</time>
      </trkpt>
      <trkpt lat="51.770104765892029" lon="39.538091719150543">
        <ele>147.69999999999999</ele>
        <time>2016-12-11T10:07:20Z</time>
      </trkpt>
      <trkpt lat="51.770086158066988" lon="39.537965906783938">
        <ele>147.69999999999999</ele>
        <time>2016-12-11T10:07:22Z</time>
      </trkpt>
      <trkpt lat="51.770069478079677" lon="39.53790295869112">
        <ele>147.69999999999999</ele>
        <time>2016-12-11T10:07:23Z</time>
      </trkpt>
      <trkpt lat="51.769861774519086" lon="39.537385879084468">
        <ele>147.69999999999999</ele>
        <time>2016-12-11T10:07:32Z</time>
      </trkpt>
      <trkpt lat="51.769371768459678" lon="39.53639748506248">
        <ele>146.74000000000001</ele>
        <time>2016-12-11T10:07:49Z</time>
      </trkpt>
      <trkpt lat="51.769244782626629" lon="39.536252394318581">
        <ele>146.25999999999999</ele>
        <time>2016-12-11T10:07:52Z</time>
      </trkpt>
      <trkpt lat="51.769204633310437" lon="39.536194307729602">
        <ele>146.25999999999999</ele>
        <time>2016-12-11T10:07:53Z</time>
      </trkpt>
      <trkpt lat="51.769167333841324" lon="39.536131108179688">
        <ele>145.78</ele>
        <time>2016-12-11T10:07:54Z</time>
      </trkpt>
      <trkpt lat="51.768686212599277" lon="39.535055961459875">
        <ele>144.81999999999999</ele>
        <time>2016-12-11T10:08:11Z</time>
      </trkpt>
      <trkpt lat="51.768551180139184" lon="39.534781202673912">
        <ele>144.34</ele>
        <time>2016-12-11T10:08:16Z</time>
      </trkpt>
      <trkpt lat="51.768166786059737" lon="39.533892637118697">
        <ele>144.34</ele>
        <time>2016-12-11T10:08:31Z</time>
      </trkpt>
      <trkpt lat="51.767731430009007" lon="39.532911870628595">
        <ele>144.34</ele>
        <time>2016-12-11T10:08:49Z</time>
      </trkpt>
      <trkpt lat="51.767534790560603" lon="39.532473916187882">
        <ele>143.84999999999999</ele>
        <time>2016-12-11T10:08:57Z</time>
      </trkpt>
      <trkpt lat="51.767519032582641" lon="39.532413063570857">
        <ele>143.84999999999999</ele>
        <time>2016-12-11T10:08:58Z</time>
      </trkpt>
      <trkpt lat="51.767263803631067" lon="39.532105280086398">
        <ele>145.30000000000001</ele>
        <time>2016-12-11T10:09:08Z</time>
      </trkpt>
      <trkpt lat="51.767074037343264" lon="39.53219429589808">
        <ele>144.34</ele>
        <time>2016-12-11T10:09:13Z</time>
      </trkpt>
      <trkpt lat="51.76702693104744" lon="39.532215250656009">
        <ele>144.34</ele>
        <time>2016-12-11T10:09:14Z</time>
      </trkpt>
      <trkpt lat="51.766982842236757" lon="39.532232349738479">
        <ele>144.34</ele>
        <time>2016-12-11T10:09:15Z</time>
      </trkpt>
      <trkpt lat="51.76693556830287" lon="39.532237378880382">
        <ele>144.34</ele>
        <time>2016-12-11T10:09:16Z</time>
      </trkpt>
      <trkpt lat="51.766891395673156" lon="39.532222207635641">
        <ele>143.84999999999999</ele>
        <time>2016-12-11T10:09:17Z</time>
      </trkpt>
      <trkpt lat="51.766857365146279" lon="39.532186752185225">
        <ele>143.84999999999999</ele>
        <time>2016-12-11T10:09:18Z</time>
      </trkpt>
      <trkpt lat="51.76683004014194" lon="39.532129168510437">
        <ele>143.84999999999999</ele>
        <time>2016-12-11T10:09:19Z</time>
      </trkpt>
      <trkpt lat="51.766809336841106" lon="39.532074937596917">
        <ele>143.84999999999999</ele>
        <time>2016-12-11T10:09:20Z</time>
      </trkpt>
      <trkpt lat="51.766755860298872" lon="39.531942838802934">
        <ele>143.37</ele>
        <time>2016-12-11T10:09:22Z</time>
      </trkpt>
      <trkpt lat="51.766725014895201" lon="39.531885255128145">
        <ele>143.37</ele>
        <time>2016-12-11T10:09:23Z</time>
      </trkpt>
      <trkpt lat="51.76614792086184" lon="39.530951427295804">
        <ele>144.81999999999999</ele>
        <time>2016-12-11T10:09:42Z</time>
      </trkpt>
      <trkpt lat="51.765937618911266" lon="39.530640710145235">
        <ele>145.30000000000001</ele>
        <time>2016-12-11T10:09:55Z</time>
      </trkpt>
      <trkpt lat="51.765555823221803" lon="39.530089935287833">
        <ele>145.30000000000001</ele>
        <time>2016-12-11T10:10:07Z</time>
      </trkpt>
      <trkpt lat="51.764872195199132" lon="39.528939435258508">
        <ele>143.84999999999999</ele>
        <time>2016-12-11T10:10:26Z</time>
      </trkpt>
      <trkpt lat="51.764133917167783" lon="39.527616435661912">
        <ele>143.37</ele>
        <time>2016-12-11T10:10:47Z</time>
      </trkpt>
      <trkpt lat="51.763424808159471" lon="39.526278264820576">
        <ele>143.37</ele>
        <time>2016-12-11T10:11:08Z</time>
      </trkpt>
      <trkpt lat="51.762930443510413" lon="39.525249218568206">
        <ele>142.88999999999999</ele>
        <time>2016-12-11T10:11:24Z</time>
      </trkpt>
      <trkpt lat="51.762260980904102" lon="39.523991094902158">
        <ele>143.84999999999999</ele>
        <time>2016-12-11T10:11:44Z</time>
      </trkpt>
      <trkpt lat="51.761618424206972" lon="39.522691229358315">
        <ele>142.88999999999999</ele>
        <time>2016-12-11T10:12:04Z</time>
      </trkpt>
      <trkpt lat="51.760893138125539" lon="39.521237136796117">
        <ele>141.93000000000001</ele>
        <time>2016-12-11T10:12:26Z</time>
      </trkpt>
      <trkpt lat="51.760268937796354" lon="39.519982449710369">
        <ele>141.44999999999999</ele>
        <time>2016-12-11T10:12:45Z</time>
      </trkpt>
      <trkpt lat="51.759599894285202" lon="39.518692474812269">
        <ele>140.97</ele>
        <time>2016-12-11T10:13:05Z</time>
      </trkpt>
      <trkpt lat="51.758927246555686" lon="39.5173922739923">
        <ele>139.05000000000001</ele>
        <time>2016-12-11T10:13:25Z</time>
      </trkpt>
      <trkpt lat="51.7583083268255" lon="39.516137922182679">
        <ele>138.56999999999999</ele>
        <time>2016-12-11T10:13:43Z</time>
      </trkpt>
      <trkpt lat="51.757655208930373" lon="39.514834871515632">
        <ele>137.61000000000001</ele>
        <time>2016-12-11T10:14:03Z</time>
      </trkpt>
      <trkpt lat="51.757087921723723" lon="39.513675905764103">
        <ele>137.61000000000001</ele>
        <time>2016-12-11T10:14:21Z</time>
      </trkpt>
      <trkpt lat="51.756448550149798" lon="39.512375202029943">
        <ele>136.16</ele>
        <time>2016-12-11T10:14:40Z</time>
      </trkpt>
      <trkpt lat="51.755763161927462" lon="39.510985650122166">
        <ele>134.72</ele>
        <time>2016-12-11T10:15:01Z</time>
      </trkpt>
      <trkpt lat="51.7551239579916" lon="39.50965628027916">
        <ele>134.72</ele>
        <time>2016-12-11T10:15:21Z</time>
      </trkpt>
      <trkpt lat="51.754506044089794" lon="39.508383069187403">
        <ele>135.19999999999999</ele>
        <time>2016-12-11T10:15:41Z</time>
      </trkpt>
      <trkpt lat="51.75387455150485" lon="39.507093345746398">
        <ele>136.63999999999999</ele>
        <time>2016-12-11T10:16:02Z</time>
      </trkpt>
      <trkpt lat="51.753364512696862" lon="39.506042590364814">
        <ele>137.61000000000001</ele>
        <time>2016-12-11T10:16:19Z</time>
      </trkpt>
      <trkpt lat="51.752794794738293" lon="39.504798380658031">
        <ele>138.09</ele>
        <time>2016-12-11T10:16:39Z</time>
      </trkpt>
      <trkpt lat="51.752392211928964" lon="39.503741338849068">
        <ele>137.61000000000001</ele>
        <time>2016-12-11T10:16:55Z</time>
      </trkpt>
      <trkpt lat="51.751903211697936" lon="39.502485394477844">
        <ele>138.09</ele>
        <time>2016-12-11T10:17:13Z</time>
      </trkpt>
      <trkpt lat="51.751312036067247" lon="39.501006407663226">
        <ele>139.05000000000001</ele>
        <time>2016-12-11T10:17:33Z</time>
      </trkpt>
      <trkpt lat="51.750800404697657" lon="39.499731101095676">
        <ele>139.05000000000001</ele>
        <time>2016-12-11T10:17:51Z</time>
      </trkpt>
      <trkpt lat="51.750256167724729" lon="39.498379686847329">
        <ele>139.05000000000001</ele>
        <time>2016-12-11T10:18:10Z</time>
      </trkpt>
      <trkpt lat="51.749675301834941" lon="39.496982339769602">
        <ele>140.00999999999999</ele>
        <time>2016-12-11T10:18:30Z</time>
      </trkpt>
      <trkpt lat="51.749054957181215" lon="39.495466807857156">
        <ele>140.97</ele>
        <time>2016-12-11T10:18:52Z</time>
      </trkpt>
      <trkpt lat="51.748461266979575" lon="39.49401187710464">
        <ele>142.88999999999999</ele>
        <time>2016-12-11T10:19:13Z</time>
      </trkpt>
      <trkpt lat="51.747934715822339" lon="39.49268669821322">
        <ele>142.88999999999999</ele>
        <time>2016-12-11T10:19:32Z</time>
      </trkpt>
      <trkpt lat="51.74741193652153" lon="39.491398986428976">
        <ele>143.37</ele>
        <time>2016-12-11T10:19:51Z</time>
      </trkpt>
      <trkpt lat="51.746928216889501" lon="39.490237925201654">
        <ele>142.88999999999999</ele>
        <time>2016-12-11T10:20:07Z</time>
      </trkpt>
      <trkpt lat="51.746287336573005" lon="39.488685512915254">
        <ele>141.44999999999999</ele>
        <time>2016-12-11T10:20:28Z</time>
      </trkpt>
      <trkpt lat="51.745739327743649" lon="39.487338457256556">
        <ele>140.00999999999999</ele>
        <time>2016-12-11T10:20:47Z</time>
      </trkpt>
      <trkpt lat="51.745146224275231" lon="39.485795935615897">
        <ele>137.61000000000001</ele>
        <time>2016-12-11T10:21:08Z</time>
      </trkpt>
      <trkpt lat="51.745029967278242" lon="39.485513381659985">
        <ele>137.13</ele>
        <time>2016-12-11T10:21:12Z</time>
      </trkpt>
      <trkpt lat="51.744568208232522" lon="39.484354080632329">
        <ele>135.68000000000001</ele>
        <time>2016-12-11T10:21:28Z</time>
      </trkpt>
      <trkpt lat="51.744044674560428" lon="39.483082629740238">
        <ele>133.75999999999999</ele>
        <time>2016-12-11T10:21:46Z</time>
      </trkpt>
      <trkpt lat="51.743840491399169" lon="39.48259899392724">
        <ele>133.75999999999999</ele>
        <time>2016-12-11T10:21:53Z</time>
      </trkpt>
      <trkpt lat="51.74334118142724" lon="39.481393760070205">
        <ele>132.31999999999999</ele>
        <time>2016-12-11T10:22:10Z</time>
      </trkpt>
      <trkpt lat="51.742765931412578" lon="39.480436882004142">
        <ele>132.31999999999999</ele>
        <time>2016-12-11T10:22:26Z</time>
      </trkpt>
      <trkpt lat="51.742242900654674" lon="39.47924162261188">
        <ele>132.80000000000001</ele>
        <time>2016-12-11T10:22:44Z</time>
      </trkpt>
      <trkpt lat="51.741930339485407" lon="39.477945528924465">
        <ele>133.28</ele>
        <time>2016-12-11T10:23:02Z</time>
      </trkpt>
      <trkpt lat="51.741601098328829" lon="39.476686650887132">
        <ele>133.75999999999999</ele>
        <time>2016-12-11T10:23:20Z</time>
      </trkpt>
      <trkpt lat="51.741166831925511" lon="39.475277401506901">
        <ele>134.24000000000001</ele>
        <time>2016-12-11T10:23:41Z</time>
      </trkpt>
      <trkpt lat="51.74077145755291" lon="39.474274422973394">
        <ele>135.68000000000001</ele>
        <time>2016-12-11T10:23:59Z</time>
      </trkpt>
      <trkpt lat="51.740776654332876" lon="39.474232094362378">
        <ele>135.68000000000001</ele>
        <time>2016-12-11T10:24:00Z</time>
      </trkpt>
      <trkpt lat="51.740788472816348" lon="39.474206194281578">
        <ele>135.68000000000001</ele>
        <time>2016-12-11T10:24:01Z</time>
      </trkpt>
      <trkpt lat="51.740807499736547" lon="39.474175097420812">
        <ele>135.68000000000001</ele>
        <time>2016-12-11T10:24:02Z</time>
      </trkpt>
      <trkpt lat="51.741157025098801" lon="39.473493313416839">
        <ele>135.19999999999999</ele>
        <time>2016-12-11T10:24:18Z</time>
      </trkpt>
      <trkpt lat="51.741476459428668" lon="39.47324613109231">
        <ele>135.19999999999999</ele>
        <time>2016-12-11T10:24:28Z</time>
      </trkpt>
      <trkpt lat="51.741518955677748" lon="39.473257614299655">
        <ele>135.19999999999999</ele>
        <time>2016-12-11T10:24:29Z</time>
      </trkpt>
      <trkpt lat="51.741561619564891" lon="39.473275216296315">
        <ele>135.19999999999999</ele>
        <time>2016-12-11T10:24:30Z</time>
      </trkpt>
      <trkpt lat="51.742192357778549" lon="39.473730772733688">
        <ele>134.72</ele>
        <time>2016-12-11T10:24:46Z</time>
      </trkpt>
      <trkpt lat="51.742275841534138" lon="39.473779806867242">
        <ele>134.72</ele>
        <time>2016-12-11T10:24:48Z</time>
      </trkpt>
      <trkpt lat="51.74232043325901" lon="39.473795145750046">
        <ele>134.72</ele>
        <time>2016-12-11T10:24:49Z</time>
      </trkpt>
      <trkpt lat="51.742367204278708" lon="39.473803108558059">
        <ele>134.72</ele>
        <time>2016-12-11T10:24:50Z</time>
      </trkpt>
      <trkpt lat="51.742506260052323" lon="39.473800091072917">
        <ele>134.72</ele>
        <time>2016-12-11T10:24:53Z</time>
      </trkpt>
      <trkpt lat="51.742552611976862" lon="39.473789446055889">
        <ele>134.72</ele>
        <time>2016-12-11T10:24:54Z</time>
      </trkpt>
      <trkpt lat="51.743320561945438" lon="39.473316539078951">
        <ele>132.31999999999999</ele>
        <time>2016-12-11T10:25:12Z</time>
      </trkpt>
      <trkpt lat="51.743387784808874" lon="39.47320313192904">
        <ele>131.84</ele>
        <time>2016-12-11T10:25:14Z</time>
      </trkpt>
      <trkpt lat="51.743415696546435" lon="39.473140854388475">
        <ele>131.84</ele>
        <time>2016-12-11T10:25:15Z</time>
      </trkpt>
      <trkpt lat="51.743441177532077" lon="39.473074721172452">
        <ele>131.84</ele>
        <time>2016-12-11T10:25:16Z</time>
      </trkpt>
      <trkpt lat="51.743462048470974" lon="39.473007079213858">
        <ele>131.84</ele>
        <time>2016-12-11T10:25:17Z</time>
      </trkpt>
      <trkpt lat="51.743481745943427" lon="39.472931558266282">
        <ele>131.84</ele>
        <time>2016-12-11T10:25:18Z</time>
      </trkpt>
      <trkpt lat="51.74351267516613" lon="39.472780851647258">
        <ele>131.36000000000001</ele>
        <time>2016-12-11T10:25:20Z</time>
      </trkpt>
      <trkpt lat="51.74352197907865" lon="39.472706839442253">
        <ele>131.36000000000001</ele>
        <time>2016-12-11T10:25:21Z</time>
      </trkpt>
      <trkpt lat="51.743454169481993" lon="39.471621802076697">
        <ele>131.84</ele>
        <time>2016-12-11T10:25:36Z</time>
      </trkpt>
      <trkpt lat="51.743267839774489" lon="39.470268459990621">
        <ele>132.31999999999999</ele>
        <time>2016-12-11T10:25:55Z</time>
      </trkpt>
      <trkpt lat="51.743149487301707" lon="39.468942442908883">
        <ele>133.28</ele>
        <time>2016-12-11T10:26:13Z</time>
      </trkpt>
      <trkpt lat="51.743061896413565" lon="39.467935189604759">
        <ele>132.80000000000001</ele>
        <time>2016-12-11T10:26:27Z</time>
      </trkpt>
      <trkpt lat="51.743070026859641" lon="39.467864697799087">
        <ele>132.80000000000001</ele>
        <time>2016-12-11T10:26:28Z</time>
      </trkpt>
      <trkpt lat="51.743085701018572" lon="39.467806024476886">
        <ele>132.31999999999999</ele>
        <time>2016-12-11T10:26:29Z</time>
      </trkpt>
      <trkpt lat="51.743113528937101" lon="39.467746512964368">
        <ele>132.31999999999999</ele>
        <time>2016-12-11T10:26:30Z</time>
      </trkpt>
      <trkpt lat="51.743142446503043" lon="39.467691611498594">
        <ele>131.84</ele>
        <time>2016-12-11T10:26:31Z</time>
      </trkpt>
      <trkpt lat="51.743175890296698" lon="39.467637799680233">
        <ele>131.84</ele>
        <time>2016-12-11T10:26:32Z</time>
      </trkpt>
      <trkpt lat="51.743213860318065" lon="39.467591112479568">
        <ele>131.36000000000001</ele>
        <time>2016-12-11T10:26:33Z</time>
      </trkpt>
      <trkpt lat="51.743253506720066" lon="39.467548113316298">
        <ele>131.36000000000001</ele>
        <time>2016-12-11T10:26:34Z</time>
      </trkpt>
      <trkpt lat="51.744036795571446" lon="39.466687710955739">
        <ele>128.47</ele>
        <time>2016-12-11T10:26:53Z</time>
      </trkpt>
      <trkpt lat="51.744839698076248" lon="39.46596896275878">
        <ele>127.51000000000001</ele>
        <time>2016-12-11T10:27:12Z</time>
      </trkpt>
      <trkpt lat="51.745582837611437" lon="39.465222470462322">
        <ele>126.55</ele>
        <time>2016-12-11T10:27:29Z</time>
      </trkpt>
      <trkpt lat="51.746110394597054" lon="39.464553594589233">
        <ele>125.59</ele>
        <time>2016-12-11T10:27:42Z</time>
      </trkpt>
      <trkpt lat="51.746138473972678" lon="39.464482264593244">
        <ele>125.59</ele>
        <time>2016-12-11T10:27:43Z</time>
      </trkpt>
      <trkpt lat="51.746184322983027" lon="39.464331138879061">
        <ele>126.06999999999999</ele>
        <time>2016-12-11T10:27:45Z</time>
      </trkpt>
      <trkpt lat="51.746456986293197" lon="39.462981484830379">
        <ele>126.06999999999999</ele>
        <time>2016-12-11T10:28:02Z</time>
      </trkpt>
      <trkpt lat="51.746738785877824" lon="39.461493361741304">
        <ele>125.11</ele>
        <time>2016-12-11T10:28:21Z</time>
      </trkpt>
      <trkpt lat="51.747031733393669" lon="39.459920497611165">
        <ele>124.63</ele>
        <time>2016-12-11T10:28:41Z</time>
      </trkpt>
      <trkpt lat="51.747309677302837" lon="39.45844167843461">
        <ele>123.67</ele>
        <time>2016-12-11T10:28:59Z</time>
      </trkpt>
      <trkpt lat="51.747586280107498" lon="39.456998901441693">
        <ele>123.19</ele>
        <time>2016-12-11T10:29:17Z</time>
      </trkpt>
      <trkpt lat="51.74784829840064" lon="39.455556375905871">
        <ele>123.19</ele>
        <time>2016-12-11T10:29:35Z</time>
      </trkpt>
      <trkpt lat="51.748104533180594" lon="39.454259695485234">
        <ele>125.59</ele>
        <time>2016-12-11T10:29:52Z</time>
      </trkpt>
      <trkpt lat="51.748366635292768" lon="39.452918758615851">
        <ele>125.59</ele>
        <time>2016-12-11T10:30:09Z</time>
      </trkpt>
      <trkpt lat="51.748680872842669" lon="39.451317815110087">
        <ele>124.63</ele>
        <time>2016-12-11T10:30:29Z</time>
      </trkpt>
      <trkpt lat="51.748931743204594" lon="39.450059020891786">
        <ele>125.59</ele>
        <time>2016-12-11T10:30:45Z</time>
      </trkpt>
      <trkpt lat="51.749201724305749" lon="39.448728896677494">
        <ele>125.59</ele>
        <time>2016-12-11T10:31:02Z</time>
      </trkpt>
      <trkpt lat="51.749249333515763" lon="39.448581710457802">
        <ele>125.11</ele>
        <time>2016-12-11T10:31:04Z</time>
      </trkpt>
      <trkpt lat="51.749279173091054" lon="39.448518846184015">
        <ele>124.63</ele>
        <time>2016-12-11T10:31:05Z</time>
      </trkpt>
      <trkpt lat="51.749313790351152" lon="39.448461011052132">
        <ele>124.15000000000001</ele>
        <time>2016-12-11T10:31:06Z</time>
      </trkpt>
      <trkpt lat="51.749354191124439" lon="39.448422202840447">
        <ele>124.15000000000001</ele>
        <time>2016-12-11T10:31:07Z</time>
      </trkpt>
      <trkpt lat="51.749396687373519" lon="39.448401415720582">
        <ele>124.15000000000001</ele>
        <time>2016-12-11T10:31:08Z</time>
      </trkpt>
      <trkpt lat="51.749440943822265" lon="39.448390351608396">
        <ele>123.67</ele>
        <time>2016-12-11T10:31:09Z</time>
      </trkpt>
      <trkpt lat="51.749489391222596" lon="39.44838716648519">
        <ele>123.19</ele>
        <time>2016-12-11T10:31:10Z</time>
      </trkpt>
      <trkpt lat="51.749538592994213" lon="39.448393285274506">
        <ele>123.19</ele>
        <time>2016-12-11T10:31:11Z</time>
      </trkpt>
      <trkpt lat="51.749588381499052" lon="39.448405858129263">
        <ele>122.70999999999999</ele>
        <time>2016-12-11T10:31:12Z</time>
      </trkpt>
      <trkpt lat="51.750452723354101" lon="39.448762089014053">
        <ele>119.81999999999999</ele>
        <time>2016-12-11T10:31:30Z</time>
      </trkpt>
      <trkpt lat="51.750495051965117" lon="39.448761083185673">
        <ele>119.81999999999999</ele>
        <time>2016-12-11T10:31:31Z</time>
      </trkpt>
      <trkpt lat="51.750535620376468" lon="39.448744403198361">
        <ele>119.81999999999999</ele>
        <time>2016-12-11T10:31:32Z</time>
      </trkpt>
      <trkpt lat="51.750573674216866" lon="39.448709953576326">
        <ele>119.81999999999999</ele>
        <time>2016-12-11T10:31:33Z</time>
      </trkpt>
      <trkpt lat="51.750605860725045" lon="39.448663769289851">
        <ele>119.81999999999999</ele>
        <time>2016-12-11T10:31:34Z</time>
      </trkpt>
      <trkpt lat="51.750632431358099" lon="39.448604341596365">
        <ele>119.81999999999999</ele>
        <time>2016-12-11T10:31:35Z</time>
      </trkpt>
      <trkpt lat="51.750651374459267" lon="39.448540471494198">
        <ele>119.81999999999999</ele>
        <time>2016-12-11T10:31:36Z</time>
      </trkpt>
      <trkpt lat="51.750666294246912" lon="39.448469392955303">
        <ele>119.81999999999999</ele>
        <time>2016-12-11T10:31:37Z</time>
      </trkpt>
      <trkpt lat="51.75067794509232" lon="39.448395548388362">
        <ele>119.81999999999999</ele>
        <time>2016-12-11T10:31:38Z</time>
      </trkpt>
      <trkpt lat="51.750687249004841" lon="39.448324469849467">
        <ele>119.81999999999999</ele>
        <time>2016-12-11T10:31:39Z</time>
      </trkpt>
      <trkpt lat="51.750851450487971" lon="39.44697598926723">
        <ele>121.26000000000001</ele>
        <time>2016-12-11T10:31:57Z</time>
      </trkpt>
      <trkpt lat="51.751054544001818" lon="39.445557938888669">
        <ele>121.26000000000001</ele>
        <time>2016-12-11T10:32:15Z</time>
      </trkpt>
      <trkpt lat="51.751271048560739" lon="39.444178948178887">
        <ele>119.81999999999999</ele>
        <time>2016-12-11T10:32:33Z</time>
      </trkpt>
      <trkpt lat="51.751612527295947" lon="39.442536598071456">
        <ele>120.78</ele>
        <time>2016-12-11T10:32:55Z</time>
      </trkpt>
      <trkpt lat="51.751928357407451" lon="39.441045122221112">
        <ele>120.78</ele>
        <time>2016-12-11T10:33:14Z</time>
      </trkpt>
      <trkpt lat="51.752328928560019" lon="39.439540151506662">
        <ele>120.3</ele>
        <time>2016-12-11T10:33:34Z</time>
      </trkpt>
      <trkpt lat="51.752814995124936" lon="39.438460310921073">
        <ele>118.86</ele>
        <time>2016-12-11T10:33:50Z</time>
      </trkpt>
      <trkpt lat="51.753538521006703" lon="39.437158433720469">
        <ele>117.42</ele>
        <time>2016-12-11T10:34:11Z</time>
      </trkpt>
      <trkpt lat="51.754254586994648" lon="39.435786232352257">
        <ele>117.42</ele>
        <time>2016-12-11T10:34:32Z</time>
      </trkpt>
      <trkpt lat="51.754791112616658" lon="39.434515116736293">
        <ele>117.42</ele>
        <time>2016-12-11T10:34:50Z</time>
      </trkpt>
      <trkpt lat="51.755234934389591" lon="39.433266213163733">
        <ele>117.42</ele>
        <time>2016-12-11T10:35:07Z</time>
      </trkpt>
      <trkpt lat="51.755714965984225" lon="39.431892922148108">
        <ele>117.42</ele>
        <time>2016-12-11T10:35:26Z</time>
      </trkpt>
      <trkpt lat="51.756157865747809" lon="39.430363811552525">
        <ele>115.5</ele>
        <time>2016-12-11T10:35:46Z</time>
      </trkpt>
      <trkpt lat="51.756290551275015" lon="39.428788684308529">
        <ele>114.05</ele>
        <time>2016-12-11T10:36:05Z</time>
      </trkpt>
      <trkpt lat="51.756450813263655" lon="39.427040303125978">
        <ele>112.61</ele>
        <time>2016-12-11T10:36:26Z</time>
      </trkpt>
      <trkpt lat="51.756615517660975" lon="39.425312038511038">
        <ele>112.61</ele>
        <time>2016-12-11T10:36:47Z</time>
      </trkpt>
      <trkpt lat="51.756662372499704" lon="39.424085849896073">
        <ele>113.09</ele>
        <time>2016-12-11T10:37:03Z</time>
      </trkpt>
      <trkpt lat="51.756741078570485" lon="39.423397025093436">
        <ele>112.61</ele>
        <time>2016-12-11T10:37:14Z</time>
      </trkpt>
      <trkpt lat="51.756902514025569" lon="39.422841807827353">
        <ele>114.05</ele>
        <time>2016-12-11T10:37:27Z</time>
      </trkpt>
      <trkpt lat="51.756876027211547" lon="39.42184922285378">
        <ele>115.5</ele>
        <time>2016-12-11T10:37:47Z</time>
      </trkpt>
      <trkpt lat="51.756851635873318" lon="39.421736905351281">
        <ele>115.01000000000001</ele>
        <time>2016-12-11T10:37:50Z</time>
      </trkpt>
      <trkpt lat="51.756968395784497" lon="39.421567255631089">
        <ele>116.94</ele>
        <time>2016-12-11T10:37:59Z</time>
      </trkpt>
      <trkpt lat="51.757060848176479" lon="39.421553090214729">
        <ele>117.42</ele>
        <time>2016-12-11T10:38:04Z</time>
      </trkpt>
      <trkpt lat="51.75706772133708" lon="39.42142803221941">
        <ele>117.42</ele>
        <time>2016-12-11T10:38:09Z</time>
      </trkpt>
      <trkpt lat="51.757058668881655" lon="39.421248575672507">
        <ele>117.90000000000001</ele>
        <time>2016-12-11T10:38:14Z</time>
      </trkpt>
      <trkpt lat="51.757096974179149" lon="39.421150758862495">
        <ele>117.42</ele>
        <time>2016-12-11T10:38:19Z</time>
      </trkpt>
      <trkpt lat="51.757148103788495" lon="39.421067778021097">
        <ele>115.5</ele>
        <time>2016-12-11T10:38:31Z</time>
      </trkpt>
      <trkpt lat="51.757059507071972" lon="39.421045398339629">
        <ele>116.94</ele>
        <time>2016-12-11T10:39:06Z</time>
      </trkpt>
      <trkpt lat="51.757004270330071" lon="39.421070292592049">
        <ele>124.15000000000001</ele>
        <time>2016-12-11T10:39:46Z</time>
      </trkpt>
      <trkpt lat="51.756982058286667" lon="39.421136593446136">
        <ele>124.15000000000001</ele>
        <time>2016-12-11T10:40:23Z</time>
      </trkpt>
      <trkpt lat="51.756931683048606" lon="39.421123769134283">
        <ele>128.47</ele>
        <time>2016-12-11T10:40:56Z</time>
      </trkpt>
      <trkpt lat="51.756859598681331" lon="39.421131061390042">
        <ele>131.84</ele>
        <time>2016-12-11T10:41:31Z</time>
      </trkpt>
      <trkpt lat="51.756959175691009" lon="39.421040285378695">
        <ele>129.43000000000001</ele>
        <time>2016-12-11T10:42:04Z</time>
      </trkpt>
      <trkpt lat="51.7568991612643" lon="39.421083619818091">
        <ele>122.70999999999999</ele>
        <time>2016-12-11T10:42:46Z</time>
      </trkpt>
      <trkpt lat="51.756855407729745" lon="39.421146484091878">
        <ele>121.73999999999999</ele>
        <time>2016-12-11T10:43:16Z</time>
      </trkpt>
      <trkpt lat="51.756948195397854" lon="39.421053361147642">
        <ele>118.86</ele>
        <time>2016-12-11T10:43:51Z</time>
      </trkpt>
      <trkpt lat="51.756895976141095" lon="39.421054115518928">
        <ele>113.56999999999999</ele>
        <time>2016-12-11T10:44:26Z</time>
      </trkpt>
      <trkpt lat="51.756908129900694" lon="39.421106334775686">
        <ele>113.09</ele>
        <time>2016-12-11T10:45:00Z</time>
      </trkpt>
      <trkpt lat="51.756916511803865" lon="39.421109603717923">
        <ele>111.65000000000001</ele>
        <time>2016-12-11T10:45:38Z</time>
      </trkpt>
      <trkpt lat="51.756917266175151" lon="39.421055037528276">
        <ele>111.65000000000001</ele>
        <time>2016-12-11T10:46:09Z</time>
      </trkpt>
      <trkpt lat="51.756918607279658" lon="39.421130055561662">
        <ele>112.61</ele>
        <time>2016-12-11T10:46:42Z</time>
      </trkpt>
      <trkpt lat="51.756935203447938" lon="39.42115344107151">
        <ele>107.31999999999999</ele>
        <time>2016-12-11T10:47:09Z</time>
      </trkpt>
      <trkpt lat="51.756941070780158" lon="39.421122092753649">
        <ele>108.77</ele>
        <time>2016-12-11T10:47:36Z</time>
      </trkpt>
      <trkpt lat="51.756936460733414" lon="39.421098120510578">
        <ele>115.01000000000001</ele>
        <time>2016-12-11T10:48:04Z</time>
      </trkpt>
      <trkpt lat="51.75690989010036" lon="39.421104406937957">
        <ele>115.98</ele>
        <time>2016-12-11T10:48:31Z</time>
      </trkpt>
      <trkpt lat="51.75687812268734" lon="39.421117398887873">
        <ele>119.81999999999999</ele>
        <time>2016-12-11T10:49:02Z</time>
      </trkpt>
      <trkpt lat="51.756863119080663" lon="39.421110777184367">
        <ele>120.78</ele>
        <time>2016-12-11T10:49:29Z</time>
      </trkpt>
      <trkpt lat="51.756858006119728" lon="39.421102227643132">
        <ele>118.86</ele>
        <time>2016-12-11T10:49:58Z</time>
      </trkpt>
      <trkpt lat="51.756929755210876" lon="39.421065011993051">
        <ele>118.86</ele>
        <time>2016-12-11T10:50:28Z</time>
      </trkpt>
      <trkpt lat="51.756910895928741" lon="39.421069957315922">
        <ele>121.73999999999999</ele>
        <time>2016-12-11T10:51:01Z</time>
      </trkpt>
      <trkpt lat="51.756955739110708" lon="39.421095019206405">
        <ele>120.3</ele>
        <time>2016-12-11T10:51:29Z</time>
      </trkpt>
      <trkpt lat="51.756979543715715" lon="39.421069119125605">
        <ele>119.81999999999999</ele>
        <time>2016-12-11T10:51:58Z</time>
      </trkpt>
      <trkpt lat="51.756985578685999" lon="39.42106744274497">
        <ele>119.81999999999999</ele>
        <time>2016-12-11T10:52:23Z</time>
      </trkpt>
      <trkpt lat="51.756984908133745" lon="39.421055372804403">
        <ele>115.01000000000001</ele>
        <time>2016-12-11T10:52:59Z</time>
      </trkpt>
      <trkpt lat="51.75696948543191" lon="39.421050511300564">
        <ele>113.56999999999999</ele>
        <time>2016-12-11T10:53:32Z</time>
      </trkpt>
      <trkpt lat="51.756971580907702" lon="39.421042548492551">
        <ele>116.45999999999999</ele>
        <time>2016-12-11T10:54:11Z</time>
      </trkpt>
      <trkpt lat="51.756989434361458" lon="39.421040955930948">
        <ele>115.5</ele>
        <time>2016-12-11T10:54:42Z</time>
      </trkpt>
      <trkpt lat="51.757013825699687" lon="39.421015894040465">
        <ele>115.01000000000001</ele>
        <time>2016-12-11T10:55:12Z</time>
      </trkpt>
      <trkpt lat="51.756999911740422" lon="39.42101270891726">
        <ele>115.5</ele>
        <time>2016-12-11T10:55:42Z</time>
      </trkpt>
      <trkpt lat="51.756996223703027" lon="39.421002482995391">
        <ele>114.05</ele>
        <time>2016-12-11T10:56:12Z</time>
      </trkpt>
      <trkpt lat="51.757072331383824" lon="39.421058306470513">
        <ele>120.78</ele>
        <time>2016-12-11T10:56:20Z</time>
      </trkpt>
      <trkpt lat="51.757080964744091" lon="39.421097869053483">
        <ele>120.3</ele>
        <time>2016-12-11T10:56:22Z</time>
      </trkpt>
      <trkpt lat="51.757076354697347" lon="39.421198954805732">
        <ele>119.34</ele>
        <time>2016-12-11T10:56:32Z</time>
      </trkpt>
      <trkpt lat="51.757076857611537" lon="39.421502547338605">
        <ele>118.38</ele>
        <time>2016-12-11T10:56:43Z</time>
      </trkpt>
      <trkpt lat="51.757022961974144" lon="39.421546552330256">
        <ele>116.94</ele>
        <time>2016-12-11T10:56:47Z</time>
      </trkpt>
      <trkpt lat="51.756978034973145" lon="39.421550575643778">
        <ele>116.94</ele>
        <time>2016-12-11T10:56:49Z</time>
      </trkpt>
      <trkpt lat="51.756894886493683" lon="39.421672280877829">
        <ele>115.5</ele>
        <time>2016-12-11T10:56:53Z</time>
      </trkpt>
      <trkpt lat="51.756817856803536" lon="39.42174855619669">
        <ele>114.53</ele>
        <time>2016-12-11T10:56:55Z</time>
      </trkpt>
      <trkpt lat="51.756561957299709" lon="39.421860203146935">
        <ele>113.56999999999999</ele>
        <time>2016-12-11T10:57:03Z</time>
      </trkpt>
      <trkpt lat="51.756544271484017" lon="39.421841679140925">
        <ele>113.56999999999999</ele>
        <time>2016-12-11T10:57:04Z</time>
      </trkpt>
      <trkpt lat="51.756532033905387" lon="39.421805972233415">
        <ele>113.56999999999999</ele>
        <time>2016-12-11T10:57:05Z</time>
      </trkpt>
      <trkpt lat="51.756425080820918" lon="39.421208258718252">
        <ele>114.53</ele>
        <time>2016-12-11T10:57:15Z</time>
      </trkpt>
      <trkpt lat="51.756418040022254" lon="39.42114070057869">
        <ele>114.53</ele>
        <time>2016-12-11T10:57:16Z</time>
      </trkpt>
      <trkpt lat="51.756338831037283" lon="39.419668670743704">
        <ele>116.45999999999999</ele>
        <time>2016-12-11T10:57:36Z</time>
      </trkpt>
      <trkpt lat="51.756322402507067" lon="39.419047487899661">
        <ele>115.98</ele>
        <time>2016-12-11T10:57:44Z</time>
      </trkpt>
      <trkpt lat="51.756312260404229" lon="39.417248144745827">
        <ele>116.45999999999999</ele>
        <time>2016-12-11T10:58:07Z</time>
      </trkpt>
      <trkpt lat="51.756138503551483" lon="39.415472019463778">
        <ele>115.01000000000001</ele>
        <time>2016-12-11T10:58:28Z</time>
      </trkpt>
      <trkpt lat="51.755781769752502" lon="39.413714837282896">
        <ele>114.53</ele>
        <time>2016-12-11T10:58:49Z</time>
      </trkpt>
      <trkpt lat="51.755372732877731" lon="39.411900658160448">
        <ele>113.56999999999999</ele>
        <time>2016-12-11T10:59:11Z</time>
      </trkpt>
      <trkpt lat="51.755043491721153" lon="39.41045536659658">
        <ele>112.61</ele>
        <time>2016-12-11T10:59:29Z</time>
      </trkpt>
      <trkpt lat="51.754980459809303" lon="39.410168789327145">
        <ele>113.56999999999999</ele>
        <time>2016-12-11T10:59:37Z</time>
      </trkpt>
      <trkpt lat="51.75498859025538" lon="39.410146996378899">
        <ele>113.09</ele>
        <time>2016-12-11T11:00:17Z</time>
      </trkpt>
      <trkpt lat="51.754955146461725" lon="39.410076420754194">
        <ele>112.61</ele>
        <time>2016-12-11T11:00:48Z</time>
      </trkpt>
      <trkpt lat="51.754789855331182" lon="39.409288940951228">
        <ele>112.13</ele>
        <time>2016-12-11T11:01:00Z</time>
      </trkpt>
      <trkpt lat="51.754525490105152" lon="39.407663522288203">
        <ele>112.61</ele>
        <time>2016-12-11T11:01:20Z</time>
      </trkpt>
      <trkpt lat="51.754431864246726" lon="39.407091876491904">
        <ele>113.09</ele>
        <time>2016-12-11T11:01:27Z</time>
      </trkpt>
      <trkpt lat="51.753874970600009" lon="39.405600484460592">
        <ele>112.13</ele>
        <time>2016-12-11T11:01:47Z</time>
      </trkpt>
      <trkpt lat="51.753298882395029" lon="39.404121581465006">
        <ele>111.17</ele>
        <time>2016-12-11T11:02:07Z</time>
      </trkpt>
      <trkpt lat="51.752711394801736" lon="39.402659023180604">
        <ele>109.25</ele>
        <time>2016-12-11T11:02:27Z</time>
      </trkpt>
      <trkpt lat="51.752235386520624" lon="39.401535596698523">
        <ele>109.73</ele>
        <time>2016-12-11T11:02:43Z</time>
      </trkpt>
      <trkpt lat="51.75162929110229" lon="39.400036409497261">
        <ele>109.25</ele>
        <time>2016-12-11T11:03:04Z</time>
      </trkpt>
      <trkpt lat="51.751146912574768" lon="39.39871609210968">
        <ele>109.25</ele>
        <time>2016-12-11T11:03:22Z</time>
      </trkpt>
      <trkpt lat="51.750599155202508" lon="39.397314721718431">
        <ele>109.25</ele>
        <time>2016-12-11T11:03:41Z</time>
      </trkpt>
      <trkpt lat="51.750044021755457" lon="39.396084928885102">
        <ele>109.73</ele>
        <time>2016-12-11T11:03:59Z</time>
      </trkpt>
      <trkpt lat="51.749485870823264" lon="39.394836109131575">
        <ele>109.25</ele>
        <time>2016-12-11T11:04:17Z</time>
      </trkpt>
      <trkpt lat="51.74943239428103" lon="39.394677523523569">
        <ele>109.25</ele>
        <time>2016-12-11T11:04:19Z</time>
      </trkpt>
      <trkpt lat="51.74941286444664" lon="39.394597057253122">
        <ele>109.25</ele>
        <time>2016-12-11T11:04:20Z</time>
      </trkpt>
      <trkpt lat="51.749383108690381" lon="39.394439812749624">
        <ele>109.25</ele>
        <time>2016-12-11T11:04:22Z</time>
      </trkpt>
      <trkpt lat="51.749376654624939" lon="39.394364207983017">
        <ele>109.25</ele>
        <time>2016-12-11T11:04:23Z</time>
      </trkpt>
      <trkpt lat="51.749373720958829" lon="39.394287513568997">
        <ele>109.25</ele>
        <time>2016-12-11T11:04:24Z</time>
      </trkpt>
      <trkpt lat="51.749376906082034" lon="39.394209394231439">
        <ele>109.25</ele>
        <time>2016-12-11T11:04:25Z</time>
      </trkpt>
      <trkpt lat="51.749385120347142" lon="39.394131107255816">
        <ele>109.73</ele>
        <time>2016-12-11T11:04:26Z</time>
      </trkpt>
      <trkpt lat="51.749503891915083" lon="39.393340442329645">
        <ele>108.77</ele>
        <time>2016-12-11T11:04:36Z</time>
      </trkpt>
      <trkpt lat="51.749501042068005" lon="39.393264083191752">
        <ele>108.77</ele>
        <time>2016-12-11T11:04:37Z</time>
      </trkpt>
      <trkpt lat="51.749492408707738" lon="39.393188897520304">
        <ele>108.77</ele>
        <time>2016-12-11T11:04:38Z</time>
      </trkpt>
      <trkpt lat="51.749480506405234" lon="39.393113125115633">
        <ele>108.77</ele>
        <time>2016-12-11T11:04:39Z</time>
      </trkpt>
      <trkpt lat="51.74946659244597" lon="39.393037520349026">
        <ele>109.25</ele>
        <time>2016-12-11T11:04:40Z</time>
      </trkpt>
      <trkpt lat="51.749118575826287" lon="39.39171158708632">
        <ele>111.17</ele>
        <time>2016-12-11T11:04:58Z</time>
      </trkpt>
      <trkpt lat="51.748852701857686" lon="39.390707015991211">
        <ele>113.56999999999999</ele>
        <time>2016-12-11T11:05:13Z</time>
      </trkpt>
      <trkpt lat="51.748579032719135" lon="39.389726836234331">
        <ele>113.56999999999999</ele>
        <time>2016-12-11T11:05:27Z</time>
      </trkpt>
      <trkpt lat="51.748243169859052" lon="39.388480866327882">
        <ele>116.94</ele>
        <time>2016-12-11T11:05:45Z</time>
      </trkpt>
      <trkpt lat="51.74794795922935" lon="39.387398092076182">
        <ele>113.56999999999999</ele>
        <time>2016-12-11T11:06:00Z</time>
      </trkpt>
      <trkpt lat="51.747647216543555" lon="39.386244574561715">
        <ele>113.09</ele>
        <time>2016-12-11T11:06:16Z</time>
      </trkpt>
      <trkpt lat="51.747459461912513" lon="39.385508308187127">
        <ele>114.05</ele>
        <time>2016-12-11T11:06:26Z</time>
      </trkpt>
      <trkpt lat="51.747164251282811" lon="39.384422935545444">
        <ele>113.56999999999999</ele>
        <time>2016-12-11T11:06:41Z</time>
      </trkpt>
      <trkpt lat="51.746894689276814" lon="39.383386848494411">
        <ele>114.53</ele>
        <time>2016-12-11T11:06:56Z</time>
      </trkpt>
      <trkpt lat="51.746724536642432" lon="39.382736915722489">
        <ele>114.53</ele>
        <time>2016-12-11T11:07:05Z</time>
      </trkpt>
      <trkpt lat="51.746704336255789" lon="39.382668854668736">
        <ele>114.53</ele>
        <time>2016-12-11T11:07:06Z</time>
      </trkpt>
      <trkpt lat="51.746561760082841" lon="39.38218672759831">
        <ele>114.05</ele>
        <time>2016-12-11T11:07:13Z</time>
      </trkpt>
      <trkpt lat="51.746179964393377" lon="39.381048548966646">
        <ele>115.5</ele>
        <time>2016-12-11T11:07:31Z</time>
      </trkpt>
      <trkpt lat="51.74577210098505" lon="39.379838956519961">
        <ele>115.5</ele>
        <time>2016-12-11T11:07:51Z</time>
      </trkpt>
      <trkpt lat="51.745433304458857" lon="39.378829607740045">
        <ele>114.05</ele>
        <time>2016-12-11T11:08:06Z</time>
      </trkpt>
      <trkpt lat="51.745065506547689" lon="39.377709534019232">
        <ele>112.61</ele>
        <time>2016-12-11T11:08:22Z</time>
      </trkpt>
      <trkpt lat="51.744583798572421" lon="39.376294165849686">
        <ele>111.17</ele>
        <time>2016-12-11T11:08:41Z</time>
      </trkpt>
      <trkpt lat="51.744153471663594" lon="39.375009555369616">
        <ele>109.73</ele>
        <time>2016-12-11T11:08:58Z</time>
      </trkpt>
      <trkpt lat="51.743722641840577" lon="39.373716479167342">
        <ele>108.77</ele>
        <time>2016-12-11T11:09:15Z</time>
      </trkpt>
      <trkpt lat="51.743239341303706" lon="39.372249729931355">
        <ele>108.77</ele>
        <time>2016-12-11T11:09:34Z</time>
      </trkpt>
      <trkpt lat="51.742826867848635" lon="39.371005604043603">
        <ele>109.73</ele>
        <time>2016-12-11T11:09:50Z</time>
      </trkpt>
      <trkpt lat="51.742777498438954" lon="39.370855903252959">
        <ele>109.25</ele>
        <time>2016-12-11T11:09:52Z</time>
      </trkpt>
      <trkpt lat="51.742751765996218" lon="39.370780801400542">
        <ele>109.25</ele>
        <time>2016-12-11T11:09:53Z</time>
      </trkpt>
      <trkpt lat="51.742504080757499" lon="39.370038080960512">
        <ele>110.20999999999999</ele>
        <time>2016-12-11T11:10:03Z</time>
      </trkpt>
      <trkpt lat="51.742481281980872" lon="39.369962643831968">
        <ele>110.20999999999999</ele>
        <time>2016-12-11T11:10:04Z</time>
      </trkpt>
      <trkpt lat="51.742297131568193" lon="39.36939443461597">
        <ele>110.20999999999999</ele>
        <time>2016-12-11T11:10:12Z</time>
      </trkpt>
      <trkpt lat="51.741880131885409" lon="39.368111835792661">
        <ele>112.13</ele>
        <time>2016-12-11T11:10:31Z</time>
      </trkpt>
      <trkpt lat="51.741795558482409" lon="39.367786701768637">
        <ele>112.13</ele>
        <time>2016-12-11T11:10:36Z</time>
      </trkpt>
      <trkpt lat="51.741601349785924" lon="39.366742568090558">
        <ele>110.69</ele>
        <time>2016-12-11T11:10:50Z</time>
      </trkpt>
      <trkpt lat="51.74140035174787" lon="39.365460220724344">
        <ele>109.25</ele>
        <time>2016-12-11T11:11:07Z</time>
      </trkpt>
      <trkpt lat="51.741008330136538" lon="39.363992633298039">
        <ele>107.81</ele>
        <time>2016-12-11T11:11:26Z</time>
      </trkpt>
      <trkpt lat="51.740713119506836" lon="39.362948499619961">
        <ele>107.31999999999999</ele>
        <time>2016-12-11T11:11:40Z</time>
      </trkpt>
      <trkpt lat="51.740651428699493" lon="39.362745489925146">
        <ele>106.84</ele>
        <time>2016-12-11T11:11:43Z</time>
      </trkpt>
      <trkpt lat="51.740633742883801" lon="39.3626718968153">
        <ele>106.84</ele>
        <time>2016-12-11T11:11:44Z</time>
      </trkpt>
      <trkpt lat="51.740472977980971" lon="39.362073093652725">
        <ele>106.36</ele>
        <time>2016-12-11T11:11:52Z</time>
      </trkpt>
      <trkpt lat="51.740453029051423" lon="39.362000171095133">
        <ele>105.88</ele>
        <time>2016-12-11T11:11:53Z</time>
      </trkpt>
      <trkpt lat="51.740329228341579" lon="39.361548889428377">
        <ele>105.40000000000001</ele>
        <time>2016-12-11T11:11:59Z</time>
      </trkpt>
      <trkpt lat="51.740310620516539" lon="39.361472027376294">
        <ele>105.40000000000001</ele>
        <time>2016-12-11T11:12:00Z</time>
      </trkpt>
      <trkpt lat="51.739937290549278" lon="39.360204432159662">
        <ele>103.95999999999999</ele>
        <time>2016-12-11T11:12:17Z</time>
      </trkpt>
      <trkpt lat="51.739524649456143" lon="39.358717063441873">
        <ele>103.48</ele>
        <time>2016-12-11T11:12:37Z</time>
      </trkpt>
      <trkpt lat="51.739198006689548" lon="39.357528509572148">
        <ele>101.56</ele>
        <time>2016-12-11T11:12:53Z</time>
      </trkpt>
      <trkpt lat="51.738821072503924" lon="39.356158571317792">
        <ele>101.56</ele>
        <time>2016-12-11T11:13:11Z</time>
      </trkpt>
      <trkpt lat="51.738779414445162" lon="39.356009289622307">
        <ele>101.56</ele>
        <time>2016-12-11T11:13:13Z</time>
      </trkpt>
      <trkpt lat="51.738593084737659" lon="39.355364553630352">
        <ele>100.59999999999999</ele>
        <time>2016-12-11T11:13:22Z</time>
      </trkpt>
      <trkpt lat="51.73857070505619" lon="39.355296408757567">
        <ele>100.59999999999999</ele>
        <time>2016-12-11T11:13:23Z</time>
      </trkpt>
      <trkpt lat="51.738439276814461" lon="39.35492274351418">
        <ele>100.59999999999999</ele>
        <time>2016-12-11T11:13:30Z</time>
      </trkpt>
    </trkseg>
  </trk>

</gpx>